Date StartTime U_cm/s V_cm/s W_cm/s Ustd_cm/s Vstd_cm/s Wstd_cm/s Uvar_(cm/s)^2 Vvar_(cm/s)^2 Wvar_(cm/s)^2 KE_(m/s)^2 TurbulentKE_(m/s)^2 HorizWindSpeed_cm/s FrictionSpeec_cm/s DragCoef SpeedOfSound_m/s SonicTemperature_C Pressure_mb 
04/08/2014  00:00:00     -116.347      -32.404       -8.501       19.997       19.452       14.186      399.881      378.386      201.236        0.782        0.049      120.775       10.598        0.008      339.797       13.379      867.117
04/08/2014  00:01:00      -87.260      -54.482        1.149       47.937       26.068       17.541     2297.982      679.539      307.703        0.693        0.164      102.871       21.808        0.045      339.770       13.331      867.121
04/08/2014  00:02:00      -97.831      -56.089        0.353       37.280       24.063       18.265     1389.772      579.019      333.627        0.751        0.115      112.769       16.550        0.022      339.782       13.352      867.118
04/08/2014  00:03:00      -84.472      -56.644        0.126       48.696       28.925       20.933     2371.316      836.627      438.202        0.699        0.182      101.706       23.995        0.056      339.696       13.207      867.105
04/08/2014  00:04:00      -65.891      -46.910        4.984       42.287       33.932       22.879     1788.227     1151.358      523.456        0.501        0.173       80.884       22.612        0.078      339.731       13.266      867.093
04/08/2014  00:05:00      -96.091      -60.950       -4.076       35.960       28.032       20.617     1293.114      785.780      425.049        0.773        0.125      113.791       20.085        0.031      339.711       13.232      867.088
04/08/2014  00:06:00     -106.309      -52.862       -1.331       32.374       21.657       19.191     1048.057      469.007      368.301        0.799        0.094      118.726       15.778        0.018      339.645       13.120      867.086
04/08/2014  00:07:00     -107.145      -39.607       -4.941       16.909       17.199       15.528      285.915      295.796      241.131        0.695        0.041      114.231        8.995        0.006      339.700       13.213      867.077
04/08/2014  00:08:00     -116.414      -43.801       -3.530       21.177       20.273       14.556      448.473      410.999      211.871        0.828        0.054      124.381       11.275        0.008      339.702       13.216      867.066
04/08/2014  00:09:00      -90.947      -44.967        1.322       31.788       32.176       16.110     1010.448     1035.291      259.525        0.630        0.115      101.456       13.666        0.018      339.636       13.105      867.061
04/08/2014  00:10:00      -79.655      -31.862        6.922       69.232       32.008       19.105     4793.123     1024.506      365.014        0.679        0.309       85.792       24.163        0.079      339.593       13.034      867.062
04/08/2014  00:11:00     -109.077      -62.679       -0.594       63.914       43.294       27.275     4085.008     1874.338      743.901        1.126        0.335      125.803       32.413        0.066      339.604       13.052      867.056
04/08/2014  00:12:00     -114.562      -67.718        1.424       47.175       36.818       21.944     2225.469     1355.547      481.550        1.089        0.203      133.080       20.723        0.024      339.625       13.087      867.049
04/08/2014  00:13:00      -94.431      -57.831        5.927       56.079       31.846       18.920     3144.860     1014.193      357.966        0.841        0.226      110.732       25.035        0.051      339.557       12.973      867.034
04/08/2014  00:14:00     -119.864      -74.994        0.605       43.034       38.197       22.663     1851.895     1459.014      513.606        1.191        0.191      141.392       22.051        0.024      339.534       12.934      867.024
04/08/2014  00:15:00     -109.088      -45.333        3.753       52.563       36.293       24.806     2762.921     1317.196      615.343        0.933        0.235      118.132       22.315        0.036      339.461       12.810      867.012
04/08/2014  00:16:00     -115.582      -64.707        0.352       46.255       36.260       27.384     2139.515     1314.819      749.909        1.087        0.210      132.462       24.757        0.035      339.501       12.877      867.006
04/08/2014  00:17:00     -129.568      -60.223        0.544       37.202       22.361       16.916     1384.018      500.013      286.165        1.129        0.109      142.880       16.461        0.013      339.512       12.896      866.993
04/08/2014  00:18:00     -165.343      -60.934       -1.658       28.927       28.839       19.801      836.786      831.690      392.074        1.656        0.103      176.214       16.957        0.009      339.476       12.836      866.983
04/08/2014  00:19:00      -84.621      -67.721        4.747       45.393       47.244       29.961     2060.540     2232.009      897.670        0.848        0.260      108.383       28.923        0.071      339.437       12.770      866.978
04/08/2014  00:20:00     -116.201      -40.501       -5.910       41.621       41.605       23.990     1732.342     1730.937      575.502        0.961        0.202      123.057       18.887        0.024      339.435       12.766      866.974
04/08/2014  00:21:00     -121.497      -47.596       -5.815       51.312       39.041       28.565     2632.948     1524.195      815.982        1.102        0.249      130.487       31.698        0.059      339.411       12.726      866.978
04/08/2014  00:22:00     -133.214      -42.803       -5.718       34.268       29.888       21.300     1174.266      893.273      453.710        1.107        0.126      139.922       18.304        0.017      339.367       12.651      866.971
04/08/2014  00:23:00      -31.123      -35.810       16.145       52.392       36.394       22.187     2744.921     1324.503      492.251        0.354        0.228       47.445       26.276        0.307      339.412       12.727      866.961
04/08/2014  00:24:00     -123.155      -91.807       -2.094       62.850       38.456       27.806     3950.109     1478.893      773.147        1.490        0.310      153.609       27.994        0.033      339.416       12.733      866.957
04/08/2014  00:25:00     -116.665      -83.829        3.866       52.336       38.526       26.864     2739.007     1484.230      721.663        1.280        0.247      143.659       28.415        0.039      339.405       12.715      866.968
04/08/2014  00:26:00     -108.129      -63.049        3.158       63.129       40.509       27.238     3985.216     1640.966      741.921        1.102        0.318      125.168       31.029        0.061      339.388       12.688      866.973
04/08/2014  00:27:00      -95.105      -50.857       -0.250       53.921       33.820       24.676     2907.520     1143.779      608.899        0.814        0.233      107.849       26.424        0.060      339.291       12.524      866.972
04/08/2014  00:28:00      -82.331      -35.883        2.636       35.130       24.928       19.033     1234.144      621.409      362.272        0.514        0.111       89.811       19.376        0.047      339.284       12.511      866.974
04/08/2014  00:29:00      -67.526      -74.512        8.096       53.753       41.935       25.660     2889.418     1758.560      658.445        0.774        0.265      100.557       28.382        0.080      339.396       12.701      866.982
04/08/2014  00:30:00      -74.419      -79.316        4.698       53.754       33.733       29.546     2889.523     1137.927      872.964        0.837        0.245      108.762       30.752        0.080      339.357       12.634      866.992
04/08/2014  00:31:00      -83.108      -95.230       -6.949       38.718       31.035       17.487     1499.080      963.189      305.809        0.940        0.138      126.394       17.200        0.019      339.436       12.768      867.001
04/08/2014  00:32:00      -81.391      -77.858        1.001       29.634       26.581       16.962      878.163      706.540      287.712        0.728        0.094      112.633       13.954        0.015      339.477       12.837      867.000
04/08/2014  00:33:00      -64.293      -49.342        5.938       51.886       30.566       23.222     2692.181      934.290      539.263        0.538        0.208       81.045       16.965        0.044      339.458       12.805      867.000
04/08/2014  00:34:00      -93.881      -52.717       -4.147       44.927       30.855       23.302     2018.419      952.004      542.977        0.756        0.176      107.670       24.410        0.051      339.351       12.625      867.009
04/08/2014  00:35:00      -84.071      -72.410        0.971       42.879       32.999       22.191     1838.624     1088.917      492.440        0.787        0.171      110.955       23.815        0.046      339.443       12.779      867.016
04/08/2014  00:36:00      -78.951      -51.689       -0.737       30.320       22.538       16.302      919.293      507.952      265.745        0.530        0.085       94.367       13.704        0.021      339.435       12.766      867.016
04/08/2014  00:37:00      -78.500      -51.902       -1.819       29.354       18.605       16.409      861.684      346.164      269.244        0.517        0.074       94.106       14.309        0.023      339.374       12.665      867.012
04/08/2014  00:38:00     -105.363      -40.969       -0.561       30.182       21.217       15.587      910.928      450.182      242.968        0.719        0.080      113.048       12.040        0.011      339.354       12.630      867.010
04/08/2014  00:39:00     -105.940      -46.094       -3.099       42.744       15.749       18.801     1827.091      248.021      353.479        0.789        0.121      115.533       19.686        0.029      339.343       12.610      867.013
04/08/2014  00:40:00     -125.039      -58.418       -3.907       17.809       15.639       15.415      317.145      244.563      237.635        0.993        0.040      138.013        7.224        0.003      339.311       12.557      867.021
04/08/2014  00:41:00      -94.678      -52.323       -3.310       33.742       26.092       17.035     1138.523      680.793      290.178        0.691        0.105      108.174       18.272        0.029      339.252       12.458      867.019
04/08/2014  00:42:00     -125.310      -33.373      -14.430       19.217       20.851       14.862      369.305      434.778      220.885        0.902        0.051      129.678       12.585        0.009      339.279       12.502      867.017
04/08/2014  00:43:00     -101.782      -38.961        0.067       27.634       21.294       15.229      763.641      453.447      231.927        0.666        0.072      108.985       15.875        0.021      339.260       12.471      867.014
04/08/2014  00:44:00      -84.664      -15.438       -0.694       30.762       24.474       15.723      946.331      598.977      247.206        0.460        0.090       86.060       15.340        0.032      339.228       12.416      867.020
04/08/2014  00:45:00      -98.287      -14.561      -11.459       16.130       19.894       11.601      260.170      395.757      134.572        0.540        0.040       99.360        9.528        0.009      339.291       12.523      867.030
04/08/2014  00:46:00      -98.179      -43.022      -16.553       17.527       18.512       10.282      307.201      342.694      105.729        0.626        0.038      107.191        4.364        0.002      339.244       12.442      867.041
04/08/2014  00:47:00      -88.608      -41.132       -1.612       23.053       20.020       11.708      531.457      400.790      137.084        0.531        0.053       97.689        9.149        0.009      339.175       12.328      867.050
04/08/2014  00:48:00     -102.218      -26.236       -5.722       18.993       16.012       12.592      360.738      256.374      158.563        0.597        0.039      105.531       11.044        0.011      339.118       12.231      867.053
04/08/2014  00:49:00      -94.258       -5.242       -8.428       20.870       18.758       17.461      435.548      351.874      304.890        0.504        0.055       94.404        8.920        0.009      339.215       12.397      867.063
04/08/2014  00:50:00      -78.702       -2.331       -5.989       33.471       26.750       19.722     1120.287      715.587      388.967        0.423        0.111       78.737       21.931        0.078      339.179       12.334      867.065
04/08/2014  00:51:00      -84.812      -38.627       -3.724       23.314       22.374       14.177      543.554      500.604      200.994        0.497        0.062       93.194        7.466        0.006      339.135       12.260      867.059
04/08/2014  00:52:00     -111.036      -51.285      -11.434       21.821       16.617       14.334      476.146      276.129      205.472        0.802        0.048      122.308       12.619        0.011      338.972       11.986      867.053
04/08/2014  00:53:00      -94.706      -21.371       -5.239       29.381       26.336       12.510      863.241      693.602      156.492        0.558        0.086       97.087       12.797        0.017      338.914       11.890      867.051
04/08/2014  00:54:00      -65.763       -4.562        0.436       30.128       23.281       17.617      907.714      542.024      310.344        0.305        0.088       65.921       12.977        0.039      339.112       12.222      867.044
04/08/2014  00:55:00      -48.563      -10.517        1.318       35.104       27.415       17.451     1232.305      751.579      304.526        0.238        0.114       49.689       13.652        0.075      339.188       12.349      867.050
04/08/2014  00:56:00     -113.482      -47.213      -10.375       23.244       18.285       13.161      540.301      334.339      173.223        0.813        0.052      122.911        9.216        0.006      338.869       11.814      867.057
04/08/2014  00:57:00     -130.409      -65.908      -18.668       22.330       20.154       13.129      498.627      406.166      172.381        1.139        0.054      146.118        6.948        0.002      338.650       11.445      867.047
04/08/2014  00:58:00     -140.292      -34.286      -15.210       34.874       20.557       16.135     1216.176      422.608      260.341        1.149        0.095      144.421        6.172        0.002      338.713       11.553      867.040
04/08/2014  00:59:00     -113.958       -7.894      -11.117       28.388       20.958       16.842      805.866      439.220      283.658        0.735        0.076      114.231       15.630        0.019      338.777       11.659      867.028
04/08/2014  01:00:00     -148.996      -20.972      -16.829       33.172       21.627       16.975     1100.394      467.726      288.148        1.239        0.093      150.464       11.911        0.006      338.683       11.502      867.018
04/08/2014  01:01:00     -166.505      -31.230      -14.224       39.028       27.906       25.367     1523.191      778.725      643.509        1.592        0.147      169.408       20.070        0.014      338.525       11.236      867.016
04/08/2014  01:02:00     -124.546      -43.917       -7.875       45.156       41.337       22.876     2039.087     1708.753      523.320        1.089        0.214      132.062       24.486        0.034      338.515       11.219      867.023
04/08/2014  01:03:00      -33.699      -19.551        7.436       41.187       24.148       25.092     1696.350      583.123      629.593        0.224        0.145       38.960       24.585        0.398      338.497       11.188      867.021
04/08/2014  01:04:00     -108.963      -33.303      -14.263       30.384       22.065       14.857      923.169      486.846      220.744        0.741        0.082      113.938        9.938        0.008      338.447       11.105      867.012
04/08/2014  01:05:00      -95.657      -36.987       -9.505       38.470       20.068       22.283     1479.942      402.724      496.520        0.649        0.119      102.559       21.468        0.044      338.545       11.270      867.008
04/08/2014  01:06:00      -69.639      -33.793      -13.041       25.694       18.837       17.461      660.186      354.830      304.883        0.374        0.066       77.405       14.759        0.036      338.497       11.190      867.009
04/08/2014  01:07:00      -30.311      -30.885       -3.657       18.734       22.784       13.694      350.949      519.126      187.514        0.147        0.053       43.273       10.947        0.064      338.587       11.340      867.014
04/08/2014  01:08:00      -44.231      -56.867       -9.198       29.097       22.205       18.588      846.658      493.067      345.498        0.348        0.084       72.044        9.795        0.018      338.632       11.415      867.019
04/08/2014  01:09:00      -62.757      -11.282       -5.187       42.660       28.110       25.900     1819.858      790.178      670.825        0.369        0.164       63.763       28.040        0.193      338.634       11.420      867.017
04/08/2014  01:10:00      -37.307      -16.116      -10.661       35.345       19.713       18.383     1249.284      388.614      337.935        0.187        0.099       40.639       18.929        0.217      338.571       11.312      867.015
04/08/2014  01:11:00        0.411      -14.812      -10.504        7.612       10.879       10.189       57.939      118.358      103.825        0.030        0.014       14.818        8.729        0.347      338.778       11.659      867.013
04/08/2014  01:12:00      -27.819      -19.219       -1.931       31.686        8.645        8.593     1004.004       74.742       73.840        0.115        0.058       33.812       13.989        0.171      338.992       12.019      867.017
04/08/2014  01:13:00     -126.908      -38.871      -15.366       16.922       12.810       12.535      286.364      164.089      157.118        0.923        0.030      132.728        8.105        0.004      338.624       11.403      867.026
04/08/2014  01:14:00      -86.351      -53.324      -16.526       32.956       12.507       10.248     1086.120      156.423      105.013        0.596        0.067      101.489       11.237        0.012      338.546       11.272      867.030
04/08/2014  01:15:00      -69.653      -42.008      -10.796        9.871        9.243        6.262       97.435       85.431       39.217        0.348        0.011       81.340        5.322        0.004      338.666       11.472      867.023
04/08/2014  01:16:00      -64.447      -31.498      -10.504        9.342        8.235        7.369       87.280       67.807       54.301        0.273        0.010       71.732        4.737        0.004      338.939       11.931      867.016
04/08/2014  01:17:00      -67.315      -15.394      -14.086       11.324        8.920        8.346      128.233       79.567       69.662        0.262        0.014       69.053        2.054        0.001      338.914       11.888      867.010
04/08/2014  01:18:00      -85.970       -6.785       -8.854       31.357       22.319       20.053      983.236      498.125      402.111        0.470        0.094       86.238       16.935        0.039      338.929       11.915      866.995
04/08/2014  01:19:00      -96.082      -28.382      -17.783        8.497       12.882        7.070       72.194      165.942       49.982        0.532        0.014      100.186        3.441        0.001      338.822       11.735      866.979
04/08/2014  01:20:00      -80.046      -56.222       -9.207        9.983       10.043        7.748       99.659      100.859       60.027        0.496        0.013       97.818        6.068        0.004      339.090       12.186      866.954
04/08/2014  01:21:00      -81.298      -44.459       -8.799       31.058       12.302       11.442      964.614      151.347      130.909        0.495        0.062       92.660        8.602        0.009      338.763       11.636      866.939
04/08/2014  01:22:00     -127.616      -53.037      -11.422       16.140       24.139       11.758      260.492      582.703      138.248        1.011        0.049      138.198        9.319        0.005      338.623       11.401      866.929
04/08/2014  01:23:00     -127.462      -36.133      -12.777       15.960       20.517       11.601      254.733      420.931      134.578        0.926        0.041      132.485        8.385        0.004      338.582       11.330      866.910
04/08/2014  01:24:00     -119.041      -51.048       -8.566       17.821       15.619       14.109      317.594      243.948      199.074        0.881        0.038      129.525        9.242        0.005      338.555       11.286      866.896
04/08/2014  01:25:00     -124.869      -47.782       -6.120       28.898       20.857       14.227      835.115      435.001      202.394        0.969        0.074      133.699       13.347        0.010      338.504       11.200      866.893
04/08/2014  01:26:00     -132.658      -36.541       -4.883       25.951       20.122       16.986      673.472      404.898      288.518        1.016        0.068      137.598       13.083        0.009      338.575       11.319      866.896
04/08/2014  01:27:00      -62.070      -22.052       13.055       47.147       27.084       19.333     2222.846      733.564      373.775        0.392        0.167       65.871       18.221        0.077      338.567       11.307      866.908
04/08/2014  01:28:00      -24.198      -25.143        2.816       24.823       20.481       12.721      616.186      419.489      161.822        0.121        0.060       34.895        9.941        0.081      338.660       11.462      866.905
04/08/2014  01:29:00      -63.950      -31.730       -5.130       22.075       14.209       11.336      487.298      201.903      128.494        0.297        0.041       71.389        7.601        0.011      338.828       11.744      866.911
04/08/2014  01:30:00      -98.094      -49.767       -4.045       23.715       25.165       11.977      562.415      633.277      143.458        0.673        0.067      109.996        8.844        0.006      338.668       11.475      866.919
04/08/2014  01:31:00      -61.290      -35.217       -1.148       27.902       19.162       14.734      778.520      367.170      217.100        0.318        0.068       70.687       13.882        0.039      338.588       11.342      866.925
04/08/2014  01:32:00      -66.610      -36.392       -1.441       27.981       22.412       12.635      782.963      502.293      159.638        0.360        0.072       75.902       13.136        0.030      338.589       11.343      866.931
04/08/2014  01:33:00      -70.148      -35.574        2.773       31.232       18.841       18.915      975.442      354.998      357.779        0.394        0.084       78.653       14.970        0.036      338.608       11.374      866.934
04/08/2014  01:34:00      -96.305      -43.579       -2.823       31.013       16.348       14.230      961.819      267.265      202.498        0.631        0.072      105.706       16.475        0.024      338.510       11.210      866.938
04/08/2014  01:35:00      -69.722      -47.096        3.220       32.260       25.947       21.055     1040.719      673.252      443.306        0.462        0.108       84.138       19.351        0.053      338.528       11.242      866.935
04/08/2014  01:36:00      -71.918      -44.995        6.202       36.072       26.991       18.488     1301.176      728.492      341.804        0.480        0.119       84.834       18.617        0.048      338.443       11.097      866.936
04/08/2014  01:37:00      -94.339      -50.453       -1.611       26.143       16.161       15.647      683.445      261.186      244.830        0.632        0.059      106.983       13.114        0.015      338.369       10.974      866.938
04/08/2014  01:38:00      -80.929      -62.042       -1.046       36.461       19.954       14.713     1329.415      398.168      216.484        0.617        0.097      101.974       17.713        0.030      338.508       11.207      866.935
04/08/2014  01:39:00      -57.274      -50.045       -0.328       38.660       21.062       18.168     1494.595      443.627      330.061        0.403        0.113       76.058       23.183        0.093      338.535       11.252      866.927
04/08/2014  01:40:00      -79.360      -53.111       -6.495       31.595       17.737       14.333      998.265      314.586      205.441        0.534        0.076       95.492        6.295        0.004      338.536       11.254      866.915
04/08/2014  01:41:00      -65.665      -40.170        2.126       34.048       14.391       14.178     1159.274      207.115      201.019        0.375        0.078       76.978       14.642        0.036      338.586       11.340      866.909
04/08/2014  01:42:00      -57.606      -31.802        1.785       29.640       24.580       19.309      878.517      604.177      372.837        0.309        0.093       65.801       20.741        0.099      338.427       11.071      866.892
04/08/2014  01:43:00      -62.692      -58.579        3.152       33.320       24.079       16.686     1110.190      579.790      278.433        0.467        0.098       85.801       14.911        0.030      338.414       11.049      866.880
04/08/2014  01:44:00      -51.673      -41.871        4.896       23.043       18.735       13.556      530.966      351.002      183.778        0.276        0.053       66.508       12.445        0.035      338.527       11.238      866.870
04/08/2014  01:45:00      -67.205      -46.764       -0.940       18.681       16.457       12.212      348.991      270.818      149.125        0.374        0.038       81.874        6.065        0.005      338.596       11.356      866.854
04/08/2014  01:46:00      -28.983      -24.966       11.876       29.158       18.345       19.589      850.197      336.540      383.722        0.159        0.079       38.253       19.919        0.271      338.553       11.283      866.839
04/08/2014  01:47:00      -35.118      -24.869        9.910       33.588       18.727       17.741     1128.126      350.695      314.738        0.187        0.090       43.032       18.606        0.187      338.364       10.966      866.831
04/08/2014  01:48:00      -47.177      -37.768        6.619       40.036       23.487       23.630     1602.917      551.624      558.367        0.320        0.136       60.433       23.228        0.148      338.204       10.696      866.821
04/08/2014  01:49:00      -98.091      -43.385       -0.845       29.586       24.197       16.145      875.328      585.483      260.673        0.661        0.086      107.257       16.266        0.023      338.220       10.723      866.824
04/08/2014  01:50:00      -89.311      -44.850       -0.352       24.741       19.421       16.397      612.123      377.174      268.871        0.562        0.063       99.940       14.308        0.020      338.303       10.863      866.816
04/08/2014  01:51:00      -69.209      -35.979        2.146       29.409       19.713       18.726      864.889      388.621      350.680        0.385        0.080       78.002       19.443        0.062      338.349       10.939      866.804
04/08/2014  01:52:00      -87.848      -46.485        0.099       27.445       18.873       16.225      753.231      356.192      263.235        0.563        0.069       99.389       15.839        0.025      338.313       10.881      866.791
04/08/2014  01:53:00     -106.068      -53.721       -0.419       32.732       26.485       20.223     1071.412      701.449      408.979        0.816        0.109      118.896       18.808        0.025      338.218       10.720      866.773
04/08/2014  01:54:00      -76.886      -59.101        0.236       29.974       24.424       17.249      898.464      596.508      297.533        0.560        0.090       96.976       15.755        0.026      338.156       10.617      866.760
04/08/2014  01:55:00      -46.492      -30.632        7.863       23.794       17.101       14.177      566.143      292.443      201.000        0.211        0.053       55.676       12.909        0.054      338.160       10.624      866.748
04/08/2014  01:56:00      -90.478      -59.040       -5.282       19.632       21.658       15.226      385.413      469.064      231.817        0.639        0.054      108.037       11.113        0.011      338.221       10.726      866.743
04/08/2014  01:57:00      -87.418      -54.086       -2.893       35.412       21.455       18.764     1254.013      460.331      352.071        0.632        0.103      102.797       16.841        0.027      338.180       10.656      866.746
04/08/2014  01:58:00       -7.176      -25.962       -0.223       24.282       18.851       14.728      589.608      355.344      216.900        0.094        0.058       26.936       10.281        0.146      338.287       10.836      866.733
04/08/2014  01:59:00      -35.506      -45.681       -2.003       38.141       16.717       13.073     1454.715      279.448      170.909        0.263        0.095       57.857       12.462        0.046      338.532       11.247      866.716
04/08/2014  02:00:00     -107.322      -48.268        0.366       34.375       21.849       16.934     1181.667      477.382      286.745        0.790        0.097      117.677        9.848        0.007      338.102       10.524      866.716
04/08/2014  02:01:00      -89.368      -32.815       -5.859       17.320       12.617        8.535      299.995      159.194       72.846        0.481        0.027       95.202        4.108        0.002      338.249       10.773      866.716
04/08/2014  02:02:00      -67.084      -34.712        1.671       40.615       14.501       13.594     1649.542      210.281      184.803        0.388        0.102       75.533       16.804        0.049      338.241       10.759      866.720
04/08/2014  02:03:00      -67.147      -43.899        3.538       36.418       25.937       20.894     1326.246      672.710      436.574        0.444        0.122       80.223       17.776        0.049      338.224       10.729      866.717
04/08/2014  02:04:00     -167.904      -47.302       -5.560       21.604       25.003       12.994      466.733      625.167      168.843        1.586        0.063      174.440       11.590        0.004      338.076       10.482      866.720
04/08/2014  02:05:00      -78.508      -34.504        2.646       43.984       21.522       13.018     1934.574      463.196      169.473        0.496        0.128       85.756       14.928        0.030      338.054       10.446      866.709
04/08/2014  02:06:00     -106.319      -41.389       -6.509       36.234       17.898       19.146     1312.918      320.355      366.587        0.753        0.100      114.091       18.306        0.026      338.080       10.488      866.695
04/08/2014  02:07:00      -96.063      -58.256        2.721       36.609       28.280       18.221     1340.251      799.760      332.015        0.755        0.124      112.347       18.555        0.027      338.139       10.588      866.686
04/08/2014  02:08:00     -119.440      -34.788       -1.834       35.185       23.686       20.062     1237.957      561.019      402.497        0.884        0.110      124.403       18.847        0.023      338.078       10.486      866.685
04/08/2014  02:09:00      -83.167      -37.184        6.429       49.603       30.763       28.212     2460.507      946.374      795.914        0.627        0.210       91.101       30.260        0.110      338.062       10.457      866.668
04/08/2014  02:10:00     -130.155      -44.779        3.190       40.411       26.584       23.804     1633.060      706.710      566.616        1.093        0.145      137.643       22.255        0.026      338.094       10.511      866.655
04/08/2014  02:11:00     -126.510      -62.005       -3.509       38.762       23.931       18.051     1502.524      572.702      325.835        1.113        0.120      140.888       15.440        0.012      338.076       10.481      866.652
04/08/2014  02:12:00      -98.292      -55.866       -2.499       27.487       21.082       19.290      755.515      444.463      372.118        0.718        0.079      113.059       17.285        0.023      338.140       10.589      866.652
04/08/2014  02:13:00     -107.332      -56.877      -10.324       15.091       12.568        8.493      227.738      157.949       72.132        0.766        0.023      121.471        3.798        0.001      338.164       10.629      866.651
04/08/2014  02:14:00     -110.536      -46.133       -9.159       17.359       16.140       13.482      301.338      260.484      181.771        0.759        0.037      119.777        8.358        0.005      338.225       10.733      866.641
04/08/2014  02:15:00     -137.698      -47.774      -11.488       21.675       18.294       13.076      469.802      334.666      170.987        1.118        0.049      145.750        4.677        0.001      338.190       10.673      866.635
04/08/2014  02:16:00     -130.152      -28.600      -10.218       11.785       11.774       13.423      138.882      138.628      180.170        0.916        0.023      133.257        7.132        0.003      338.101       10.523      866.627
04/08/2014  02:17:00     -134.614      -23.523      -14.799       14.649       15.118       13.205      214.581      228.558      174.375        0.976        0.031      136.654        6.543        0.002      338.069       10.471      866.624
04/08/2014  02:18:00     -103.387      -46.487        3.228       34.270       21.619       18.158     1174.443      467.371      329.724        0.742        0.099      113.357       15.234        0.018      338.020       10.388      866.616
04/08/2014  02:19:00     -119.159      -51.733       -0.161       29.453       22.881       15.632      867.452      523.541      244.363        0.926        0.082      129.905       12.398        0.009      338.100       10.522      866.610
04/08/2014  02:20:00      -98.849      -33.069        0.607       35.848       28.399       19.535     1285.084      806.529      381.601        0.667        0.124      104.234       17.578        0.028      338.085       10.497      866.608
04/08/2014  02:21:00     -104.605      -19.282       -4.820       28.319       20.996       12.531      801.981      440.816      157.027        0.637        0.070      106.368        7.553        0.005      337.991       10.339      866.610
04/08/2014  02:22:00      -91.575      -18.018       -3.036       37.186       20.435       13.458     1382.782      417.595      181.129        0.535        0.099       93.331        8.633        0.009      338.023       10.393      866.625
04/08/2014  02:23:00     -126.998      -21.221       -4.106       21.737       18.293       13.498      472.500      334.627      182.183        0.879        0.049      128.759        9.754        0.006      338.034       10.412      866.641
04/08/2014  02:24:00      -85.310      -17.404       -5.288       15.977       20.626       12.168      255.268      425.445      148.055        0.422        0.041       87.067       11.385        0.017      337.988       10.334      866.642
04/08/2014  02:25:00      -74.573      -19.069       -8.629       15.543        8.369        9.058      241.597       70.043       82.049        0.320        0.020       76.973        7.658        0.010      338.011       10.373      866.636
04/08/2014  02:26:00      -59.212      -27.064        2.109       14.849       14.260       11.228      220.503      203.360      126.065        0.240        0.027       65.104        6.222        0.009      338.119       10.554      866.640
04/08/2014  02:27:00     -105.966      -27.211      -10.442       22.247       15.007       11.526      494.934      225.196      132.847        0.647        0.043      109.404       11.545        0.011      337.977       10.315      866.637
04/08/2014  02:28:00     -114.257      -13.982      -11.984       13.900       16.671       11.529      193.211      277.926      132.920        0.700        0.030      115.109        3.505        0.001      337.877       10.149      866.641
04/08/2014  02:29:00     -103.576      -32.444       -9.166       21.223       13.677       12.239      450.430      187.060      149.794        0.633        0.039      108.538        9.718        0.008      337.878       10.149      866.636
04/08/2014  02:30:00     -125.092      -44.564      -13.981       10.442       12.634        9.543      109.028      159.617       91.078        0.909        0.018      132.793        6.070        0.002      337.833       10.075      866.635
04/08/2014  02:31:00     -111.426      -39.229      -13.663       17.821       20.311       12.633      317.603      412.520      159.582        0.752        0.044      118.130       11.050        0.009      337.848       10.099      866.626
04/08/2014  02:32:00     -114.985      -13.898      -11.407       33.761       18.861       18.939     1139.793      355.724      358.675        0.770        0.093      115.822       14.758        0.016      337.754        9.941      866.623
04/08/2014  02:33:00     -113.123      -14.937       -9.165       31.938       19.182       20.887     1020.056      367.934      436.275        0.746        0.091      114.105       18.341        0.026      337.771        9.971      866.626
04/08/2014  02:34:00      -80.286      -15.542       -2.492       37.414       27.543       20.337     1399.788      758.608      413.575        0.463        0.129       81.776       19.954        0.060      337.797       10.013      866.628
04/08/2014  02:35:00     -127.075       -6.001      -13.437       41.076       33.238       22.218     1687.218     1104.767      493.641        0.982        0.164      127.216       20.672        0.026      337.776        9.979      866.627
04/08/2014  02:36:00     -117.013      -18.799      -12.586       29.049       22.782       17.942      843.840      519.034      321.902        0.794        0.084      118.514       16.416        0.019      337.740        9.919      866.627
04/08/2014  02:37:00      -80.950      -43.731      -11.730       31.514       22.591       14.790      993.146      510.364      218.743        0.516        0.086       92.007        6.014        0.004      337.562        9.621      866.625
04/08/2014  02:38:00      -92.264      -45.332       -7.425       23.231       18.325       12.186      539.665      335.788      148.492        0.582        0.051      102.799        9.500        0.009      337.569        9.632      866.624
04/08/2014  02:39:00      -62.118      -23.688        1.111       35.360       43.695       24.881     1250.321     1909.249      619.081        0.410        0.189       66.482       23.790        0.128      337.724        9.891      866.611
04/08/2014  02:40:00      -63.449      -30.645        0.069       35.369       27.400       17.484     1250.989      750.764      305.678        0.364        0.115       70.462       15.347        0.047      337.601        9.685      866.605
04/08/2014  02:41:00      -70.472      -36.354       -0.152       48.157       31.940       15.489     2319.118     1020.188      239.913        0.493        0.179       79.296       19.777        0.062      337.555        9.607      866.597
04/08/2014  02:42:00      -95.809      -51.533      -16.317       51.198       24.722       14.856     2621.225      611.157      220.688        0.778        0.173      108.789       11.496        0.011      337.606        9.695      866.580
04/08/2014  02:43:00      -97.398      -29.542        3.682       51.336       43.555       29.201     2635.407     1897.052      852.721        0.788        0.269      101.780       31.908        0.098      337.553        9.605      866.568
04/08/2014  02:44:00     -108.171      -11.897       -7.705       44.218       38.345       20.432     1955.241     1470.358      417.478        0.787        0.192      108.823       22.123        0.041      337.539        9.582      866.574
04/08/2014  02:45:00     -138.287      -39.016      -14.507       30.787       26.511       17.267      947.823      702.814      298.138        1.140        0.097      143.685        6.978        0.002      337.444        9.421      866.578
04/08/2014  02:46:00     -126.417      -53.963       -8.078       31.363       23.829       17.172      983.621      567.807      294.890        1.040        0.092      137.452       16.367        0.014      337.451        9.434      866.580
04/08/2014  02:47:00      -96.366      -48.084       -3.135       19.542       20.247       15.443      381.901      409.930      238.493        0.632        0.052      107.696       11.340        0.011      337.491        9.500      866.568
04/08/2014  02:48:00     -100.979      -48.393       -9.955       15.551       20.353       10.677      241.830      414.241      113.990        0.670        0.039      111.976        6.876        0.004      337.591        9.668      866.579
04/08/2014  02:49:00      -59.536      -50.316       -1.250       34.797       23.741       18.343     1210.799      563.658      336.468        0.409        0.106       77.950       17.453        0.050      337.676        9.811      866.580
04/08/2014  02:50:00      -70.742      -48.907       -5.784       19.029       13.805       10.271      362.091      190.592      105.498        0.404        0.033       86.002        1.890        0.000      337.620        9.717      866.570
04/08/2014  02:51:00      -75.074      -32.545       -3.648       19.476       16.293       12.399      379.306      265.470      153.739        0.375        0.040       81.824       11.861        0.021      337.739        9.917      866.552
04/08/2014  02:52:00      -88.407      -32.169       -3.812       15.835       19.588       11.367      250.745      383.687      129.217        0.481        0.038       94.078        7.180        0.006      337.744        9.926      866.546
04/08/2014  02:53:00      -89.007      -43.029      -10.890       10.424       14.082       12.884      108.663      198.309      165.993        0.518        0.024       98.862        6.596        0.004      337.752        9.939      866.540
04/08/2014  02:54:00      -88.386      -45.875       -2.576       37.117       15.508       14.149     1377.642      240.502      200.199        0.587        0.091       99.582       17.124        0.030      337.579        9.648      866.538
04/08/2014  02:55:00      -53.951      -37.695        5.863       30.829       20.952       20.587      950.453      438.967      423.841        0.309        0.091       65.815       17.030        0.067      337.515        9.541      866.530
04/08/2014  02:56:00      -64.333      -63.108        2.331       40.873       35.056       21.020     1670.587     1228.956      441.832        0.573        0.167       90.119       18.718        0.043      337.659        9.783      866.529
04/08/2014  02:57:00     -113.274      -63.658       -3.865       35.362       32.671       25.064     1250.487     1067.408      628.190        0.992        0.147      129.936       18.071        0.019      337.755        9.942      866.542
04/08/2014  02:58:00      -99.033     -103.556      -11.647       29.480       28.985       20.342      869.051      840.103      413.800        1.139        0.106      143.288       10.094        0.005      337.790       10.002      866.550
04/08/2014  02:59:00      -95.881      -79.662       -6.177       23.228       26.750       18.234      539.552      715.550      332.463        0.858        0.079      124.656       15.669        0.016      337.794       10.010      866.547
04/08/2014  03:00:00      -92.707      -60.812       -1.696       34.090       21.081       19.611     1162.096      444.401      384.594        0.714        0.100      110.872       16.007        0.021      337.737        9.913      866.543
04/08/2014  03:01:00      -79.377      -53.488        7.418       36.999       27.477       19.584     1368.920      755.005      383.533        0.586        0.125       95.717       12.810        0.018      337.640        9.750      866.531
04/08/2014  03:02:00      -95.095      -63.194       -2.667       31.904       39.867       19.625     1017.895     1589.398      385.146        0.802        0.150      114.178       13.515        0.014      337.634        9.741      866.525
04/08/2014  03:03:00     -119.274      -33.265       -5.025       26.933       22.842       17.869      725.373      521.761      319.299        0.846        0.078      123.825       17.759        0.021      337.519        9.548      866.519
04/08/2014  03:04:00     -123.969      -39.372        0.527       23.111       23.504       14.629      534.114      552.433      214.014        0.911        0.065      130.071       12.831        0.010      337.574        9.641      866.508
04/08/2014  03:05:00     -113.087      -41.466       -7.172       14.251       10.278        6.321      203.089      105.629       39.959        0.745        0.017      120.449        3.541        0.001      337.593        9.672      866.494
04/08/2014  03:06:00     -109.203      -41.973       -7.106       23.492       19.200       15.733      551.881      368.644      247.521        0.745        0.058      116.992       13.492        0.013      337.548        9.597      866.490
04/08/2014  03:07:00     -119.116      -56.340       -5.050       26.592       18.070       13.293      707.133      326.514      176.694        0.930        0.061      131.768       11.720        0.008      337.543        9.588      866.486
04/08/2014  03:08:00      -90.380      -27.313       -1.525       29.832       15.912       15.820      889.970      253.206      250.269        0.515        0.070       94.417       14.673        0.024      337.516        9.542      866.488
04/08/2014  03:09:00      -75.588      -36.617        0.937       30.690       20.964       16.793      941.902      439.505      281.992        0.436        0.083       83.990       13.801        0.027      337.617        9.712      866.486
04/08/2014  03:10:00     -123.035      -44.173        0.836       31.271       24.399       17.665      977.888      595.328      312.036        0.949        0.094      130.725       14.856        0.013      337.499        9.514      866.478
04/08/2014  03:11:00     -106.010      -37.087        1.110       40.084       24.040       18.700     1606.709      577.916      349.686        0.757        0.127      112.310       20.635        0.034      337.505        9.524      866.467
04/08/2014  03:12:00     -112.167      -45.831       -4.031       26.426       23.334       15.147      698.346      544.485      229.422        0.808        0.074      121.169       14.684        0.015      337.520        9.549      866.461
04/08/2014  03:13:00     -122.940      -47.080        1.049       34.497       27.891       20.047     1190.052      777.918      401.893        0.985        0.118      131.647       14.038        0.011      337.528        9.563      866.450
04/08/2014  03:14:00     -134.354      -37.668        0.277       29.739       26.374       17.890      884.421      695.566      320.057        1.068        0.095      139.534       14.367        0.011      337.457        9.444      866.446
04/08/2014  03:15:00     -150.514      -57.808       -5.145       25.123       30.382       20.186      631.147      923.051      407.484        1.399        0.098      161.234       14.347        0.008      337.350        9.266      866.445
04/08/2014  03:16:00     -140.809      -48.346        1.916       30.841       29.404       15.548      951.167      864.593      241.752        1.211        0.103      148.878       15.525        0.011      337.299        9.180      866.429
04/08/2014  03:17:00     -135.546      -54.295       -2.004       32.020       25.944       16.931     1025.297      673.087      286.658        1.165        0.099      146.016       15.388        0.011      337.256        9.107      866.415
04/08/2014  03:18:00     -147.091      -63.446        0.875       35.856       28.220       22.170     1285.618      796.375      491.524        1.412        0.129      160.191       17.110        0.011      337.272        9.135      866.411
04/08/2014  03:19:00     -156.532      -73.815       -2.184       39.389       26.153       26.298     1551.528      684.002      691.581        1.644        0.146      173.063       21.073        0.015      337.274        9.138      866.416
04/08/2014  03:20:00     -138.712      -69.770       -0.084       50.981       28.884       24.277     2599.049      834.275      589.371        1.407        0.201      155.271       28.384        0.033      337.212        9.034      866.435
04/08/2014  03:21:00      -90.103      -56.074        1.963       57.785       33.583       27.720     3339.149     1127.787      768.413        0.825        0.262      106.127       24.526        0.053      337.278        9.144      866.442
04/08/2014  03:22:00     -102.269      -75.141       -1.494       53.850       36.690       19.421     2899.840     1346.158      377.159        1.036        0.231      126.906       18.347        0.021      337.362        9.285      866.445
04/08/2014  03:23:00     -105.914      -70.042       -6.072       36.289       36.619       22.477     1316.885     1340.940      505.211        0.966        0.158      126.979       17.375        0.019      337.420        9.381      866.448
04/08/2014  03:24:00      -99.677      -63.642       -0.804       35.323       27.873       17.849     1247.715      776.892      318.574        0.816        0.117      118.261       12.812        0.012      337.470        9.466      866.450
04/08/2014  03:25:00      -91.073      -69.282       -1.853       35.850       37.157       17.952     1285.229     1380.612      322.284        0.804        0.149      114.430       15.445        0.018      337.443        9.418      866.460
04/08/2014  03:26:00      -92.752      -54.802        2.133       27.453       21.143       13.111      753.671      447.022      171.886        0.649        0.069      107.732        7.630        0.005      337.394        9.339      866.452
04/08/2014  03:27:00     -105.988      -50.458       -0.636       44.884       28.414       19.273     2014.580      807.351      371.438        0.849        0.160      117.386       18.229        0.024      337.351        9.267      866.437
04/08/2014  03:28:00      -88.882      -61.290       -6.896       31.621       21.970       15.697      999.871      482.674      246.400        0.672        0.086      107.965       12.346        0.013      337.380        9.316      866.440
04/08/2014  03:29:00     -110.910      -56.720       -2.840       36.796       29.247       22.065     1353.970      855.385      486.866        0.911        0.135      124.572       18.027        0.021      337.379        9.313      866.441
04/08/2014  03:30:00     -104.047      -66.166        1.186       41.112       33.850       26.312     1690.186     1145.800      692.340        0.937        0.176      123.304       25.151        0.042      337.336        9.240      866.427
04/08/2014  03:31:00     -131.062      -54.460      -11.574       25.655       18.768       18.386      658.169      352.244      338.054        1.081        0.067      141.927       15.957        0.013      337.353        9.270      866.414
04/08/2014  03:32:00     -111.570      -44.960       -7.322       21.951       13.583       15.808      481.828      184.500      249.908        0.772        0.046      120.288       12.501        0.011      337.336        9.241      866.403
04/08/2014  03:33:00      -92.983      -56.843       -0.301       25.432       22.996       17.542      646.789      528.794      307.711        0.668        0.074      108.982       12.457        0.013      337.385        9.324      866.395
04/08/2014  03:34:00     -119.277      -52.103       -4.965       17.406       16.323       12.430      302.955      266.449      154.493        0.884        0.036      130.160        9.502        0.005      337.395        9.338      866.391
04/08/2014  03:35:00     -127.935      -64.832       -4.258       24.288       18.327       12.989      589.923      335.880      168.704        1.084        0.055      143.424        9.860        0.005      337.362        9.285      866.390
04/08/2014  03:36:00     -118.305      -53.388       -3.879       22.401       18.916       14.409      501.820      357.796      207.606        0.896        0.053      129.793       11.686        0.008      337.295        9.174      866.376
04/08/2014  03:37:00     -107.189      -56.062       -0.879       33.125       25.487       20.512     1097.273      649.563      420.734        0.840        0.108      120.964       17.163        0.020      337.305        9.189      866.366
04/08/2014  03:38:00      -93.004      -47.976       -0.155       29.798       23.934       16.223      887.945      572.854      263.180        0.634        0.086      104.649       11.138        0.011      337.318        9.211      866.369
04/08/2014  03:39:00     -132.379      -46.304       -2.882       29.600       21.412       16.375      876.150      458.488      268.130        1.064        0.080      140.243       13.226        0.009      337.291        9.165      866.374
04/08/2014  03:40:00      -92.465      -48.740        6.165       43.101       29.322       16.876     1857.669      859.796      284.800        0.698        0.150      104.524       18.253        0.030      337.317        9.210      866.367
04/08/2014  03:41:00      -91.870      -57.933        7.829       41.680       28.234       24.061     1737.204      797.139      578.932        0.748        0.156      108.611       24.311        0.050      337.294        9.172      866.370
04/08/2014  03:42:00     -124.039      -56.426        0.859       27.246       23.037       16.867      742.319      530.692      284.482        1.006        0.078      136.271       15.430        0.013      337.205        9.023      866.375
04/08/2014  03:43:00     -120.623      -60.258        5.116       34.818       32.789       19.343     1212.287     1075.108      374.136        1.043        0.133      134.837       20.313        0.023      337.257        9.108      866.395
04/08/2014  03:44:00     -113.474      -52.373        7.931       34.684       24.736       18.682     1202.986      611.858      349.030        0.892        0.108      124.977       20.002        0.026      337.315        9.207      866.402
04/08/2014  03:45:00     -104.574      -53.521        5.354       47.367       37.569       27.018     2243.617     1411.445      729.945        0.911        0.219      117.475       25.591        0.047      337.346        9.258      866.404
04/08/2014  03:46:00     -134.537      -64.039       -0.453       44.100       29.881       20.633     1944.813      892.877      425.726        1.273        0.163      149.001       24.557        0.027      337.336        9.243      866.410
04/08/2014  03:47:00     -121.447      -75.459       -2.659       40.992       22.234       18.959     1680.372      494.358      359.451        1.149        0.127      142.981        6.517        0.002      337.381        9.316      866.411
04/08/2014  03:48:00     -102.034      -73.782       -3.797       37.387       23.713       17.439     1397.780      562.294      304.107        0.907        0.113      125.916       16.407        0.017      337.480        9.482      866.413
04/08/2014  03:49:00     -125.947      -54.332       -1.740       25.861       24.254       15.460      668.785      588.257      239.019        1.016        0.075      137.166       12.153        0.008      337.362        9.284      866.412
04/08/2014  03:50:00      -70.252      -41.745        4.702       31.996       23.968       18.851     1023.760      574.477      355.357        0.433        0.098       81.719       17.385        0.045      337.317        9.209      866.405
04/08/2014  03:51:00      -81.076      -46.027        6.607       39.873       20.807       18.327     1589.878      432.948      335.894        0.555        0.118       93.229       15.225        0.027      337.334        9.239      866.404
04/08/2014  03:52:00     -106.995      -39.853       -3.199       28.135       23.518       15.117      791.571      553.086      228.520        0.731        0.079      114.176       12.259        0.012      337.313        9.203      866.400
04/08/2014  03:53:00     -105.535      -35.496       -5.925       32.941       28.881       19.824     1085.102      834.096      392.994        0.737        0.116      111.344       20.769        0.035      337.210        9.031      866.411
04/08/2014  03:54:00      -83.375      -22.747        5.483       34.584       23.541       17.348     1196.041      554.158      300.948        0.477        0.103       86.423       17.145        0.039      337.093        8.835      866.423
04/08/2014  03:55:00      -93.707      -24.023       -5.901       23.599       21.399       16.840      556.916      457.902      283.580        0.535        0.065       96.737       10.878        0.013      337.141        8.916      866.428
04/08/2014  03:56:00      -96.479      -33.920       -5.332       18.436       18.484       11.378      339.889      341.644      129.468        0.565        0.041      102.268        9.198        0.008      337.116        8.873      866.421
04/08/2014  03:57:00      -63.438      -35.160       -0.796       24.755       20.183       11.922      612.823      407.335      142.140        0.321        0.058       72.530        6.413        0.008      337.059        8.777      866.421
04/08/2014  03:58:00      -40.358      -33.523        0.598       21.793       20.001       11.479      474.926      400.029      131.769        0.188        0.050       52.465        6.863        0.017      337.059        8.777      866.416
04/08/2014  03:59:00      -59.630      -39.797        1.046       23.841       17.511       13.762      568.377      306.644      189.387        0.310        0.053       71.690       12.154        0.029      337.110        8.861      866.425
04/08/2014  04:00:00      -51.116      -27.456        1.867       26.824       13.568       14.654      719.547      184.100      214.747        0.224        0.056       58.023       14.554        0.063      337.085        8.818      866.434
04/08/2014  04:01:00      -56.157      -35.629        4.014       35.782       24.807       16.498     1280.371      615.399      272.185        0.330        0.108       66.506       20.128        0.092      337.125        8.889      866.434
04/08/2014  04:02:00      -30.289      -35.156        6.394       37.161       22.494       19.474     1380.960      505.964      379.231        0.223        0.113       46.404       20.352        0.192      337.171        8.965      866.426
04/08/2014  04:03:00      -45.352      -51.550        4.932       32.264       28.618       22.017     1040.979      818.966      484.766        0.354        0.117       68.660       19.096        0.077      337.166        8.958      866.423
04/08/2014  04:04:00      -75.280      -74.666       -6.886       43.682       39.066       20.922     1908.147     1526.125      437.734        0.758        0.194      106.029       15.046        0.020      337.166        8.956      866.416
04/08/2014  04:05:00      -78.096      -67.863       10.570       48.831       34.104       31.318     2384.470     1163.060      980.803        0.767        0.226      103.462       25.832        0.062      337.115        8.871      866.409
04/08/2014  04:06:00     -116.397     -135.332       -9.192       58.865       53.572       33.401     3465.139     2869.974     1115.636        1.970        0.373      178.502       27.988        0.025      337.152        8.931      866.426
04/08/2014  04:07:00     -106.029     -102.120       -0.140       51.852       46.047       28.851     2688.597     2120.336      832.391        1.365        0.282      147.210       27.974        0.036      337.102        8.849      866.421
04/08/2014  04:08:00     -107.292      -95.391       -3.728       38.727       42.275       26.223     1499.774     1787.145      687.624        1.230        0.199      143.566       15.221        0.011      337.150        8.928      866.410
04/08/2014  04:09:00      -91.344      -91.982        3.317       48.454       46.595       27.293     2347.801     2171.055      744.898        1.104        0.263      129.632       24.818        0.037      337.170        8.964      866.397
04/08/2014  04:10:00     -104.736      -97.237        1.927       49.441       40.336       26.828     2444.377     1627.001      719.734        1.261        0.240      142.915       26.272        0.034      337.127        8.890      866.393
04/08/2014  04:11:00      -69.177      -81.366       -5.591       35.987       40.297       19.765     1295.064     1623.886      390.658        0.737        0.165      106.798       18.407        0.030      337.179        8.979      866.391
04/08/2014  04:12:00      -91.641      -85.499       -5.961       46.499       32.333       24.842     2162.183     1045.433      617.146        0.978        0.191      125.332       26.167        0.044      337.177        8.977      866.387
04/08/2014  04:13:00      -57.229      -67.134        5.394       50.489       55.379       25.766     2549.116     3066.797      663.894        0.704        0.314       88.217       28.291        0.103      337.134        8.902      866.380
04/08/2014  04:14:00      -93.751      -96.591        0.581       62.485       47.752       29.258     3904.314     2280.261      856.032        1.258        0.352      134.608       33.215        0.061      337.144        8.919      866.380
04/08/2014  04:15:00      -85.585      -59.471        9.533       53.675       32.385       26.745     2881.037     1048.794      715.278        0.780        0.232      104.219       29.522        0.080      337.106        8.856      866.378
04/08/2014  04:16:00      -99.893     -109.442      -11.587       41.571       35.922       20.256     1728.128     1290.410      410.305        1.276        0.171      148.176       18.633        0.016      337.139        8.910      866.381
04/08/2014  04:17:00      -91.133      -66.487       -1.235       53.190       39.762       28.766     2829.143     1581.041      827.480        0.898        0.262      112.809       30.193        0.072      337.124        8.885      866.392
04/08/2014  04:18:00     -100.010      -59.177       -4.931       45.016       38.358       22.490     2026.454     1471.315      505.801        0.877        0.200      116.207       23.074        0.039      337.085        8.820      866.391
04/08/2014  04:19:00     -113.482      -80.925        0.128       58.568       49.938       27.534     3430.177     2493.821      758.118        1.305        0.334      139.381       31.342        0.051      337.084        8.818      866.402
04/08/2014  04:20:00     -139.614      -58.509       -5.948       45.863       38.295       31.077     2103.455     1466.472      965.763        1.374        0.227      151.378       23.242        0.024      337.076        8.804      866.401
04/08/2014  04:21:00     -133.397      -65.214        0.351       44.609       33.128       26.480     1989.954     1097.472      701.209        1.292        0.189      148.485       22.835        0.024      337.093        8.834      866.409
04/08/2014  04:22:00      -98.795      -51.779        2.340       42.144       39.973       21.639     1776.084     1597.845      468.260        0.814        0.192      111.541       14.813        0.018      337.120        8.878      866.408
04/08/2014  04:23:00      -74.237      -38.652       -0.351       45.615       26.255       21.944     2080.743      689.347      481.539        0.513        0.163       83.696       23.768        0.081      337.135        8.903      866.407
04/08/2014  04:24:00      -53.474      -40.777        5.931       56.219       35.787       22.345     3160.601     1280.732      499.279        0.475        0.247       67.247       27.746        0.170      337.125        8.888      866.416
04/08/2014  04:25:00      -79.236      -36.668       -1.319       27.691       24.453       15.420      766.819      597.960      237.775        0.461        0.080       87.309        3.020        0.001      337.153        8.936      866.407
04/08/2014  04:26:00      -45.698      -25.268        9.060       37.507       20.584       16.838     1406.747      423.697      283.534        0.246        0.106       52.218       15.130        0.084      337.145        8.921      866.407
04/08/2014  04:27:00      -77.496      -68.328       -5.093       35.977       28.888       16.407     1294.361      834.529      269.202        0.655        0.120      103.317       14.919        0.021      337.152        8.933      866.407
04/08/2014  04:28:00      -76.211      -74.462        1.734       40.741       36.294       25.750     1659.805     1317.286      663.088        0.750        0.182      106.548       23.801        0.050      337.134        8.901      866.403
04/08/2014  04:29:00      -90.658      -56.794        6.262       60.545       41.854       34.176     3665.686     1751.799     1167.990        0.903        0.329      106.979       34.771        0.106      337.027        8.723      866.407
04/08/2014  04:30:00      -74.426      -57.193        3.561       53.520       33.968       20.658     2864.384     1153.794      426.767        0.663        0.222       93.863       27.327        0.085      337.030        8.728      866.398
04/08/2014  04:31:00      -71.879      -43.859       -2.761       49.376       27.125       22.824     2438.030      735.791      520.939        0.540        0.185       84.203       29.007        0.119      337.070        8.796      866.404
04/08/2014  04:32:00      -70.459      -44.370       -5.043       29.731       25.394       15.185      883.946      644.880      230.570        0.436        0.088       83.266        8.960        0.012      337.139        8.912      866.398
04/08/2014  04:33:00      -80.950      -29.444       -0.379       32.968       24.196       17.498     1086.864      585.446      306.164        0.470        0.099       86.139       19.371        0.051      337.032        8.731      866.399
04/08/2014  04:34:00      -68.836      -17.067        0.538       23.342       16.719       15.132      544.854      279.519      228.982        0.304        0.053       70.920       10.130        0.020      336.975        8.635      866.411
04/08/2014  04:35:00      -92.238      -13.961       -1.279       24.285       22.272       17.727      589.748      496.061      314.235        0.505        0.070       93.288       14.477        0.024      336.882        8.481      866.409
04/08/2014  04:36:00      -80.171      -18.069        1.401       29.933       25.471       18.482      895.964      648.760      341.592        0.432        0.094       82.182       13.194        0.026      336.952        8.599      866.421
04/08/2014  04:37:00      -54.192      -20.267       -1.566       20.241       16.939       17.494      409.715      286.914      306.034        0.218        0.050       57.858        3.613        0.004      336.916        8.537      866.428
04/08/2014  04:38:00      -51.795      -21.596        1.341       20.265       15.697       12.564      410.671      246.403      157.858        0.198        0.041       56.117        6.637        0.014      336.924        8.551      866.434
04/08/2014  04:39:00      -32.220      -16.176        2.728       27.404       18.546       12.502      750.964      343.948      156.312        0.128        0.063       36.053        8.108        0.051      336.977        8.639      866.434
04/08/2014  04:40:00      -30.676      -53.964        1.867       26.267       25.242       15.206      689.932      637.178      231.228        0.271        0.078       62.073       12.817        0.043      337.048        8.758      866.440
04/08/2014  04:41:00      -37.260     -115.053       -0.733       27.336       48.107       21.129      747.241     2314.272      446.436        0.907        0.175      120.936       21.826        0.033      337.009        8.692      866.431
04/08/2014  04:42:00      -77.836     -114.941       -3.197       45.715       38.097       24.582     2089.858     1451.392      604.279        1.171        0.207      138.816       21.198        0.023      336.942        8.581      866.412
04/08/2014  04:43:00      -75.835      -56.573       -1.630       33.429       43.240       21.318     1117.491     1869.702      454.443        0.620        0.172       94.611       18.628        0.039      336.894        8.500      866.408
04/08/2014  04:44:00     -137.778      -86.111       -5.853       41.937       53.494       23.299     1758.704     2861.600      542.861        1.580        0.258      162.474       20.469        0.016      336.920        8.544      866.396
04/08/2014  04:45:00      -95.341      -59.416       -3.216       54.297       47.732       27.084     2948.189     2278.319      733.562        0.929        0.298      112.340       23.784        0.045      336.883        8.483      866.386
04/08/2014  04:46:00     -100.057      -82.584        6.847       65.374       44.138       28.616     4273.807     1948.180      818.894        1.196        0.352      129.736       32.610        0.063      336.888        8.490      866.384
04/08/2014  04:47:00     -131.459      -86.676      -10.472       38.397       43.624       23.200     1474.322     1903.075      538.225        1.441        0.196      157.462       15.696        0.010      336.872        8.465      866.392
04/08/2014  04:48:00     -112.156      -72.416      -10.910       28.871       32.598       22.162      833.521     1062.619      491.160        1.016        0.119      133.503       20.050        0.023      336.897        8.506      866.394
04/08/2014  04:49:00      -81.706      -40.247        6.414       50.057       30.969       24.966     2505.725      959.110      623.311        0.621        0.204       91.080       22.968        0.064      336.824        8.384      866.392
04/08/2014  04:50:00      -70.767      -31.707        0.226       37.227       32.654       22.471     1385.816     1066.259      504.924        0.448        0.148       77.546       22.565        0.085      336.856        8.437      866.397
04/08/2014  04:51:00     -101.373      -36.545       -7.767       54.859       34.125       18.867     3009.545     1164.498      355.957        0.810        0.227      107.759       19.138        0.032      336.889        8.493      866.407
04/08/2014  04:52:00     -109.069      -37.582        1.316       58.818       34.253       23.622     3459.595     1173.285      557.982        0.925        0.260      115.362       24.097        0.044      336.793        8.334      866.403
04/08/2014  04:53:00      -84.819      -50.131        2.018       48.195       42.006       25.012     2322.735     1764.462      625.614        0.721        0.236       98.526       17.718        0.032      336.782        8.315      866.405
04/08/2014  04:54:00      -75.462      -37.258        1.166       47.996       32.396       31.384     2303.579     1049.482      984.950        0.571        0.217       84.159       33.340        0.157      336.694        8.167      866.407
04/08/2014  04:55:00      -86.353      -22.904        6.256       57.400       55.603       27.171     3294.734     3091.713      738.271        0.757        0.356       89.339       30.457        0.116      336.706        8.189      866.405
04/08/2014  04:56:00     -104.998      -53.676        6.083       66.712       50.324       27.711     4450.531     2532.520      767.890        1.085        0.388      117.923       34.293        0.085      336.718        8.209      866.404
04/08/2014  04:57:00      -92.418      -50.831        4.331       49.218       55.971       31.221     2422.381     3132.732      974.765        0.884        0.326      105.475       29.379        0.078      336.716        8.206      866.399
04/08/2014  04:58:00     -112.100      -29.622        1.227       48.047       31.447       24.007     2308.531      988.941      576.318        0.866        0.194      115.948       26.638        0.053      336.565        7.953      866.397
04/08/2014  04:59:00     -118.402      -15.386       -1.172       45.254       31.475       27.316     2047.916      990.657      746.176        0.902        0.189      119.398       26.661        0.050      336.438        7.738      866.391
04/08/2014  05:00:00      -97.338      -13.961       -0.273       51.083       33.831       26.720     2609.503     1144.527      713.975        0.707        0.223       98.334       29.843        0.092      336.376        7.637      866.377
04/08/2014  05:01:00     -126.963       -4.681       -5.670       52.867       33.705       26.774     2794.886     1136.041      716.863        1.041        0.232      127.049       27.209        0.046      336.279        7.473      866.369
04/08/2014  05:02:00      -94.898      -23.853        0.424       38.349       31.970       24.254     1470.647     1022.050      588.246        0.633        0.154       97.850       20.421        0.044      336.232        7.395      866.375
04/08/2014  05:03:00      -76.877      -28.739       -4.740       21.696       27.292       16.466      470.698      744.852      271.121        0.412        0.074       82.074       10.680        0.017      336.214        7.365      866.377
04/08/2014  05:04:00      -84.541       -7.359       -4.447       41.421       20.676       17.170     1715.674      427.493      294.822        0.483        0.122       84.861       19.065        0.050      336.175        7.301      866.374
04/08/2014  05:05:00     -105.579       -1.100      -14.767       20.577       14.050       15.490      423.402      197.402      239.955        0.611        0.043      105.585        5.496        0.003      336.151        7.259      866.385
04/08/2014  05:06:00      -99.924      -14.519      -13.749       20.143       22.101       16.435      405.751      488.474      270.097        0.577        0.058      100.973       14.222        0.020      336.184        7.314      866.383
04/08/2014  05:07:00      -95.143       -1.054       -1.963       22.792       18.623       15.560      519.467      346.835      242.121        0.508        0.055       95.149       14.445        0.023      336.211        7.360      866.371
04/08/2014  05:08:00      -91.613       15.659       -5.329       14.846       15.723       15.015      220.400      247.223      225.456        0.468        0.035       92.942        9.735        0.011      336.192        7.329      866.370
04/08/2014  05:09:00      -85.999      -17.204       -7.120       22.103       21.623       12.719      488.523      467.543      161.768        0.443        0.056       87.703        8.848        0.010      336.196        7.335      866.379
04/08/2014  05:10:00      -77.061      -19.744       -5.913       24.991       15.657       13.811      624.543      245.128      190.744        0.371        0.053       79.550       12.259        0.024      336.161        7.278      866.380
04/08/2014  05:11:00      -89.221      -16.819       -5.707       29.937       22.280       13.196      896.245      496.393      174.145        0.492        0.078       90.793       14.325        0.025      336.164        7.281      866.373
04/08/2014  05:12:00      -48.837      -22.119       -4.815       16.354       15.299       12.494      267.462      234.051      156.100        0.178        0.033       53.613        8.595        0.026      336.176        7.301      866.369
04/08/2014  05:13:00      -94.220       -7.250       -9.791       16.405       25.366       12.706      269.131      643.435      161.450        0.505        0.054       94.499        7.978        0.007      336.155        7.268      866.375
04/08/2014  05:14:00      -86.846      -20.631       -9.356       13.695       10.605        9.572      187.547      112.472       91.617        0.422        0.020       89.263        6.567        0.005      336.177        7.304      866.378
04/08/2014  05:15:00      -80.927      -33.964      -10.826       15.916       20.316       10.918      253.330      412.734      119.202        0.430        0.039       87.766        5.376        0.004      336.264        7.447      866.374
04/08/2014  05:16:00     -101.979      -32.478      -13.600       18.514       26.124       12.732      342.779      682.447      162.109        0.641        0.059      107.026        7.515        0.005      336.314        7.531      866.367
04/08/2014  05:17:00     -112.324      -16.852       -9.290       20.161       16.788       13.415      406.466      281.841      179.974        0.693        0.043      113.581        8.005        0.005      336.245        7.418      866.371
04/08/2014  05:18:00     -105.198      -42.967       -5.193       17.886       20.600       11.516      319.894      424.356      132.618        0.691        0.044      113.635        8.986        0.006      336.253        7.430      866.369
04/08/2014  05:19:00      -99.360      -23.915      -12.616       24.539       15.625       10.763      602.145      244.143      115.833        0.578        0.048      102.197        8.512        0.007      336.288        7.489      866.357
04/08/2014  05:20:00      -73.159      -37.980       -7.390       21.239       14.931       14.205      451.110      222.923      201.776        0.386        0.044       82.430       10.751        0.017      336.342        7.578      866.336
04/08/2014  05:21:00      -81.950      -39.672       -2.494       17.277       14.521       13.684      298.489      210.860      187.257        0.450        0.035       91.047       10.960        0.014      336.341        7.578      866.334
04/08/2014  05:22:00      -69.608      -14.176       -4.197       28.235       17.914       15.204      797.190      320.908      231.176        0.321        0.067       71.037       12.947        0.033      336.352        7.596      866.325
04/08/2014  05:23:00      -99.019      -16.369        0.884       20.906       15.474       14.764      437.069      239.459      217.983        0.548        0.045      100.363       13.084        0.017      336.373        7.631      866.317
04/08/2014  05:24:00      -77.268      -44.152        3.199       28.673       15.827       17.140      822.119      250.508      293.788        0.465        0.068       88.994       18.076        0.041      336.334        7.566      866.314
04/08/2014  05:25:00      -76.510      -50.261        0.893       25.336       22.392       16.676      641.930      501.380      278.082        0.490        0.071       91.542       15.765        0.030      336.281        7.478      866.317
04/08/2014  05:26:00      -69.548      -43.246       -0.843       33.543       21.154       19.166     1125.100      447.509      367.346        0.432        0.097       81.898       20.451        0.062      336.251        7.427      866.329
04/08/2014  05:27:00     -114.163      -41.770       -5.783       23.044       17.161       13.878      531.024      294.511      192.600        0.791        0.051      121.564        9.097        0.006      336.258        7.440      866.329
04/08/2014  05:28:00     -146.860      -54.785       -6.369       41.519       33.820       22.317     1723.851     1143.784      498.067        1.399        0.168      156.746       14.658        0.009      336.276        7.469      866.338
04/08/2014  05:29:00     -132.571      -23.322       -4.927       36.395       41.964       28.064     1324.629     1761.014      787.602        1.101        0.194      134.607       23.496        0.030      336.262        7.446      866.344
04/08/2014  05:30:00     -117.764      -17.973        2.585       48.440       35.343       26.255     2346.430     1249.121      689.331        0.924        0.214      119.127       29.058        0.059      336.245        7.416      866.352
04/08/2014  05:31:00     -111.163      -32.056        0.775       39.205       30.430       19.661     1537.039      926.006      386.549        0.812        0.142      115.693       19.614        0.029      336.310        7.525      866.365
04/08/2014  05:32:00     -119.199      -30.765        0.800       36.131       28.330       23.262     1305.466      802.580      541.132        0.890        0.132      123.105       18.324        0.022      336.285        7.484      866.361
04/08/2014  05:33:00     -142.473      -51.714       -1.986       35.371       28.483       23.458     1251.100      811.271      550.296        1.279        0.131      151.569       21.423        0.020      336.215        7.367      866.357
04/08/2014  05:34:00     -147.626      -53.226       -3.317       34.931       29.450       20.150     1220.181      867.324      406.012        1.357        0.125      156.929       16.787        0.011      336.179        7.308      866.353
04/08/2014  05:35:00     -130.005      -55.306       -1.637       49.027       32.259       22.460     2403.673     1040.629      504.434        1.195        0.197      141.280       21.071        0.022      336.224        7.381      866.347
04/08/2014  05:36:00     -103.712      -50.229       -2.925       28.531       32.263       18.030      814.026     1040.901      325.097        0.773        0.109      115.235       16.128        0.020      336.280        7.475      866.356
04/08/2014  05:37:00      -79.798      -47.134       -0.627       41.727       26.833       19.965     1741.166      720.028      398.591        0.572        0.143       92.678       18.340        0.039      336.312        7.530      866.372
04/08/2014  05:38:00      -99.119      -49.697       -5.493       25.476       24.478       18.255      649.018      599.189      333.228        0.695        0.079      110.880        7.376        0.004      336.369        7.625      866.393
04/08/2014  05:39:00      -74.712      -41.994        1.344       36.857       33.265       17.537     1358.432     1106.543      307.534        0.506        0.139       85.705       15.715        0.034      336.368        7.623      866.402
04/08/2014  05:40:00      -67.823      -19.732        3.642       43.368       25.594       21.928     1880.820      655.045      480.823        0.401        0.151       70.635       21.722        0.095      336.390        7.659      866.413
04/08/2014  05:41:00      -75.276      -12.765        0.505       46.389       29.413       20.116     2151.896      865.120      404.665        0.462        0.171       76.350       24.282        0.101      336.442        7.747      866.423
04/08/2014  05:42:00     -107.009      -24.297        2.196       33.441       24.454       16.532     1118.311      597.975      273.316        0.702        0.099      109.733       16.961        0.024      336.445        7.751      866.428
04/08/2014  05:43:00      -92.041      -24.935       -0.301       43.410       29.168       18.616     1884.457      850.772      346.574        0.609        0.154       95.359       19.543        0.042      336.447        7.754      866.427
04/08/2014  05:44:00     -100.502      -18.711       -4.755       24.455       18.968       18.184      598.059      359.800      330.653        0.588        0.064      102.229       14.985        0.021      336.456        7.770      866.420
04/08/2014  05:45:00      -98.948      -16.519       -3.571       20.961       16.147       13.269      439.379      260.738      176.064        0.548        0.044      100.317       11.407        0.013      336.449        7.758      866.415
04/08/2014  05:46:00      -80.547      -16.580       -1.061       22.533       17.409       12.734      507.738      303.057      162.160        0.387        0.049       82.236        8.513        0.011      336.480        7.810      866.422
04/08/2014  05:47:00      -84.812       -8.844       -2.521       25.931       17.128       17.306      672.427      293.376      299.502        0.427        0.063       85.272       15.756        0.034      336.399        7.674      866.426
04/08/2014  05:48:00      -97.402       -3.247      -11.517       20.059       22.480       14.548      402.380      505.363      211.653        0.537        0.056       97.456        9.991        0.011      336.381        7.644      866.426
04/08/2014  05:49:00      -71.275        1.395       -3.617       29.342       23.767       17.533      860.976      564.852      307.420        0.341        0.087       71.289        8.155        0.013      336.341        7.578      866.432
04/08/2014  05:50:00      -87.055      -27.876       -6.146       30.165       16.120       13.836      909.942      259.855      191.436        0.488        0.068       91.409       13.564        0.022      336.430        7.726      866.434
04/08/2014  05:51:00      -85.353      -19.282        0.632       19.712       17.944       10.904      388.565      321.982      118.904        0.424        0.041       87.504        9.579        0.012      336.343        7.581      866.448
04/08/2014  05:52:00      -86.433        1.572       -6.270       16.944       15.477       10.048      287.108      239.529      100.965        0.407        0.031       86.447        7.503        0.008      336.327        7.555      866.448
04/08/2014  05:53:00      -60.937      -24.496       -9.608       24.411       22.292       12.913      595.888      496.923      166.748        0.283        0.063       65.676       10.271        0.024      336.235        7.400      866.461
04/08/2014  05:54:00      -83.774      -30.058      -12.961       15.598       14.295       10.461      243.286      204.337      109.437        0.432        0.028       89.003        6.337        0.005      336.183        7.313      866.474
04/08/2014  05:55:00      -65.028      -44.255       -0.817       26.342       26.811       15.110      693.915      718.814      228.311        0.391        0.082       78.658        8.014        0.010      336.317        7.537      866.482
04/08/2014  05:56:00      -41.308      -23.641        8.808       23.816       17.726       13.325      567.195      314.210      177.547        0.170        0.053       47.595       12.393        0.068      336.374        7.633      866.501
04/08/2014  05:57:00      -85.113      -14.984       -5.254       22.674       17.777       12.568      514.093      316.030      157.954        0.424        0.049       86.422       11.121        0.017      336.359        7.606      866.514
04/08/2014  05:58:00      -81.611      -17.419       -7.798       15.550       18.179       12.840      241.791      330.473      164.855        0.388        0.037       83.449        8.709        0.011      336.305        7.518      866.518
04/08/2014  05:59:00      -69.968      -19.996       -1.754       19.371       23.878       15.393      375.235      570.181      236.946        0.324        0.059       72.769        9.429        0.017      336.294        7.498      866.521
04/08/2014  06:00:00      -43.929      -23.623       12.665       32.311       26.954       18.233     1043.972      726.503      332.429        0.238        0.105       49.878       16.487        0.109      336.329        7.557      866.519
04/08/2014  06:01:00      -59.553      -62.308       -6.071       39.918       28.444       18.824     1593.473      809.087      354.326        0.511        0.138       86.191       23.802        0.076      336.442        7.746      866.520
04/08/2014  06:02:00      -72.658      -26.392        9.901       51.932       28.402       24.145     2696.911      806.668      582.987        0.508        0.204       77.303       27.505        0.127      336.368        7.622      866.520
04/08/2014  06:03:00      -44.458      -69.245        1.799       28.635       38.732       15.283      819.956     1500.187      233.568        0.466        0.128       82.288       13.321        0.026      336.378        7.638      866.519
04/08/2014  06:04:00      -63.434      -39.565       -3.984       28.212       30.294       18.777      795.903      917.725      352.569        0.384        0.103       74.762       17.012        0.052      336.376        7.637      866.524
04/08/2014  06:05:00      -69.387      -46.394       -0.020       34.874       24.149       14.555     1216.172      583.174      211.848        0.449        0.101       83.468       11.535        0.019      336.372        7.630      866.531
04/08/2014  06:06:00      -42.690      -48.614       -2.518       28.144       27.958       13.601      792.100      781.663      184.983        0.298        0.088       64.697       11.294        0.030      336.384        7.651      866.531
04/08/2014  06:07:00      -33.203      -24.142        9.633       39.520       18.533       17.353     1561.848      343.489      301.122        0.199        0.110       41.053       18.083        0.194      336.385        7.651      866.534
04/08/2014  06:08:00      -82.189      -48.290       -2.239       23.911       22.573       14.050      571.728      509.548      197.391        0.519        0.064       95.325       15.612        0.027      336.418        7.705      866.536
04/08/2014  06:09:00      -28.146      -35.290        6.371       30.331       22.638       16.614      919.990      512.468      276.029        0.189        0.085       45.140       13.678        0.092      336.433        7.732      866.540
04/08/2014  06:10:00      -30.901      -24.467        5.106       34.351       21.433       18.516     1179.985      459.389      342.835        0.178        0.099       39.414       16.983        0.186      336.509        7.859      866.560
04/08/2014  06:11:00      -33.496      -40.984       13.467       37.251       31.030       23.886     1387.609      962.887      570.556        0.295        0.146       52.931       25.623        0.234      336.481        7.813      866.580
04/08/2014  06:12:00      -72.188      -56.262        2.386       30.107       20.564       19.147      906.440      422.888      366.615        0.504        0.085       91.523       16.266        0.032      336.493        7.831      866.598
04/08/2014  06:13:00      -62.448      -52.865        0.859       34.809       20.401       18.525     1211.662      416.195      343.179        0.433        0.099       81.819       18.722        0.052      336.488        7.823      866.608
04/08/2014  06:14:00      -88.341      -67.554       -7.860       18.475       20.971       14.527      341.338      439.768      211.021        0.671        0.050      111.210       10.755        0.009      336.490        7.828      866.615
04/08/2014  06:15:00      -52.863      -47.718        1.951       41.759       30.943       17.107     1743.812      957.453      292.664        0.403        0.150       71.215       19.875        0.078      336.529        7.893      866.629
04/08/2014  06:16:00      -68.084      -47.129        8.251       35.250       27.528       22.280     1242.565      757.815      496.417        0.471        0.125       82.805       19.859        0.058      336.504        7.851      866.642
04/08/2014  06:17:00      -14.385      -15.655        3.980       37.282       18.592       17.499     1389.916      345.655      306.224        0.125        0.102       21.260       19.081        0.805      336.548        7.925      866.651
04/08/2014  06:18:00      -88.556      -40.243        1.550       30.201       22.480       15.918      912.126      505.332      253.390        0.557        0.084       97.271       15.570        0.026      336.478        7.806      866.660
04/08/2014  06:19:00      -39.069      -32.951        7.359       36.113       17.270       17.796     1304.128      298.236      316.690        0.229        0.096       51.109       17.255        0.114      336.558        7.942      866.667
04/08/2014  06:20:00      -33.689      -33.392        4.135       36.455       26.436       18.576     1328.994      698.880      345.086        0.232        0.119       47.434       16.289        0.118      336.575        7.969      866.671
04/08/2014  06:21:00      -45.623      -47.157       12.818       38.691       22.576       20.414     1497.032      509.665      416.733        0.345        0.121       65.615       23.135        0.124      336.564        7.952      866.697
04/08/2014  06:22:00       -9.187      -25.317       14.818       36.195       17.484       17.567     1310.053      305.676      308.592        0.143        0.096       26.932       20.334        0.570      336.521        7.879      866.705
04/08/2014  06:23:00      -62.674      -46.835        0.886       33.463       30.982       21.193     1119.781      959.894      449.146        0.433        0.126       78.240       22.162        0.080      336.514        7.867      866.714
04/08/2014  06:24:00      -44.515      -49.033       10.307       39.907       30.476       20.689     1592.558      928.770      428.040        0.372        0.147       66.226       18.820        0.081      336.540        7.911      866.718
04/08/2014  06:25:00      -28.179      -21.988        8.510       32.909       24.868       20.005     1083.022      618.422      400.213        0.173        0.105       35.743       19.239        0.290      336.528        7.890      866.726
04/08/2014  06:26:00      -34.634      -28.133       11.507       31.523       25.102       23.146      993.681      630.095      535.723        0.214        0.108       44.620       19.293        0.187      336.481        7.812      866.726
04/08/2014  06:27:00      -57.649      -40.824        4.828       47.693       30.080       25.067     2274.621      904.806      628.358        0.441        0.190       70.640       28.218        0.160      336.526        7.888      866.730
04/08/2014  06:28:00      -31.772      -40.635        2.063       33.255       16.176       14.932     1105.909      261.661      222.967        0.213        0.080       51.582       14.294        0.077      336.529        7.892      866.734
04/08/2014  06:29:00      -54.263      -41.210        3.326       28.572       16.598       18.440      816.336      275.486      340.030        0.304        0.072       68.137       18.634        0.075      336.525        7.886      866.729
04/08/2014  06:30:00      -23.096      -33.314       -2.162       38.507       16.419       17.617     1482.787      269.583      310.366        0.185        0.103       40.537       15.361        0.144      336.572        7.966      866.731
04/08/2014  06:31:00      -37.194      -39.657        2.902       21.858       18.223       15.382      477.762      332.075      236.621        0.201        0.052       54.370       11.059        0.041      336.473        7.799      866.741
04/08/2014  06:32:00      -44.818      -49.333       -1.621       18.708       20.765       10.798      349.985      431.193      116.596        0.267        0.045       66.651        8.273        0.015      336.472        7.797      866.749
04/08/2014  06:33:00      -46.832      -45.372        3.252       38.888       26.318       21.135     1512.293      692.623      446.686        0.346        0.133       65.206       18.689        0.082      336.524        7.884      866.749
04/08/2014  06:34:00      -31.101      -35.300        1.682       21.458       19.589       14.314      460.450      383.713      204.891        0.163        0.052       47.046        9.860        0.044      336.494        7.834      866.752
04/08/2014  06:35:00      -36.557      -29.327       -4.351       22.716       10.716       10.328      516.024      114.828      106.663        0.148        0.037       46.866        9.029        0.037      336.403        7.681      866.770
04/08/2014  06:36:00      -60.080      -28.348       -5.661        8.613        9.246        5.618       74.181       85.480       31.565        0.232        0.010       66.432        4.353        0.004      336.178        7.305      866.783
04/08/2014  06:37:00      -32.935       -3.614        1.572       17.811       14.054       10.864      317.222      197.517      118.017        0.087        0.032       33.132       11.281        0.116      336.059        7.107      866.787
04/08/2014  06:38:00      -71.542       21.151       -8.225       14.527        9.339        7.866      211.042       87.222       61.875        0.300        0.018       74.603        6.075        0.007      336.222        7.380      866.785
04/08/2014  06:39:00      -42.591        2.030       -4.991        8.275        9.172        5.853       68.480       84.134       34.258        0.101        0.009       42.639        3.452        0.007      336.278        7.471      866.789
04/08/2014  06:40:00      -41.899       -6.469       -1.766       12.987       10.617        8.737      168.666      112.721       76.327        0.108        0.018       42.396        8.014        0.036      336.220        7.374      866.801
04/08/2014  06:41:00      -33.519      -20.858       -0.888       15.024       21.010        8.699      225.729      441.430       75.677        0.115        0.037       39.479        6.048        0.023      336.232        7.394      866.827
04/08/2014  06:42:00      -35.731      -26.933       -2.149       20.672       13.223       10.103      427.334      174.837      102.065        0.136        0.035       44.745        7.610        0.029      336.080        7.139      866.838
04/08/2014  06:43:00      -19.350      -18.813        6.023       15.303       17.175       14.230      234.176      294.979      202.495        0.075        0.037       26.988        8.637        0.102      336.042        7.078      866.850
04/08/2014  06:44:00      -86.334      -16.542       -8.120        9.916       10.415        6.711       98.319      108.478       45.042        0.402        0.013       87.904        4.629        0.003      336.013        7.030      866.848
04/08/2014  06:45:00      -80.273      -17.655      -11.227       11.163       14.347        9.074      124.622      205.831       82.338        0.365        0.021       82.191        6.717        0.007      335.996        7.000      866.856
04/08/2014  06:46:00      -74.519      -17.681      -10.029       24.730       11.019        8.503      611.583      121.410       72.300        0.339        0.040       76.588        9.488        0.015      336.010        7.022      866.877
04/08/2014  06:47:00      -40.975      -25.398       -4.906       10.087        6.840        7.328      101.738       46.789       53.703        0.128        0.010       48.207        2.428        0.003      336.086        7.151      866.886
04/08/2014  06:48:00      -29.753      -12.049       -4.104        8.350        6.306        3.830       69.717       39.766       14.668        0.059        0.006       32.100        1.376        0.002      336.214        7.361      866.905
04/08/2014  06:49:00      -41.489      -28.642       -6.582        7.225        8.861        5.386       52.206       78.522       29.008        0.137        0.008       50.415        4.189        0.007      336.280        7.475      866.920
04/08/2014  06:50:00       -9.323       -4.317       -2.209        9.915        9.087        4.469       98.307       82.576       19.970        0.016        0.010       10.274        2.784        0.073      336.299        7.511      866.927
04/08/2014  06:51:00        3.478       29.637       -1.215       13.187       13.764       11.350      173.907      189.443      128.828        0.069        0.025       29.840        7.043        0.056      336.300        7.510      866.937
04/08/2014  06:52:00      -31.471       17.048       -4.637       16.151       15.085       11.336      260.846      227.564      128.509        0.096        0.031       35.792        7.238        0.041      336.316        7.537      866.946
04/08/2014  06:53:00      -57.794      -40.378       -8.369       11.361       16.374        9.383      129.078      268.108       88.045        0.276        0.024       70.502        5.497        0.006      336.263        7.446      866.955
04/08/2014  06:54:00      -29.025      -29.852       -0.262       19.382       10.761       10.405      375.665      115.798      108.254        0.117        0.030       41.636        3.190        0.006      336.339        7.576      866.955
04/08/2014  06:55:00      -33.952      -17.535        6.442       22.648       13.551       10.058      512.916      183.627      101.162        0.115        0.040       38.213        9.562        0.063      336.206        7.351      866.964
04/08/2014  06:56:00      -50.844       -7.453       -6.468       21.337       13.836        9.643      455.248      191.431       92.994        0.171        0.037       51.387        5.903        0.013      336.307        7.521      866.962
04/08/2014  06:57:00      -46.232       -7.970       -0.838       23.322       12.997       10.457      543.897      168.935      109.346        0.151        0.041       46.914        4.992        0.011      336.205        7.351      866.968
04/08/2014  06:58:00      -37.192      -16.764       -2.283       16.840       15.843        7.415      283.593      251.014       54.983        0.113        0.029       40.796        6.861        0.028      336.172        7.294      866.981
04/08/2014  06:59:00      -51.135       -4.489       -2.704       17.754       12.598       11.731      315.217      158.701      137.615        0.163        0.031       51.331       11.887        0.054      336.085        7.149      866.990
04/08/2014  07:00:00      -56.380      -13.735       -4.889       16.535       13.614       10.231      273.399      185.353      104.674        0.198        0.028       58.029        8.072        0.019      336.068        7.121      867.009
04/08/2014  07:01:00      -51.544      -28.180        2.908       20.851       12.378       13.203      434.782      153.224      174.315        0.211        0.038       58.744       12.889        0.048      336.015        7.032      867.034
04/08/2014  07:02:00      -79.835      -29.665       -1.615       29.232       23.160       16.249      854.497      536.376      264.015        0.446        0.083       85.168       16.051        0.036      335.844        6.749      867.051
04/08/2014  07:03:00     -105.491      -13.933      -10.720       33.385       20.141       13.660     1114.534      405.648      186.589        0.657        0.085      106.407       14.059        0.017      335.775        6.633      867.071
04/08/2014  07:04:00     -116.288      -15.250       -6.006       40.338       23.320       19.803     1627.188      543.824      392.141        0.818        0.128      117.283       19.984        0.029      335.699        6.508      867.093
04/08/2014  07:05:00     -138.655      -15.545       -9.782       29.029       18.646       15.605      842.660      347.684      243.514        1.050        0.072      139.524       14.635        0.011      335.716        6.534      867.118
04/08/2014  07:06:00      -96.177        0.368       -3.419       38.098       28.114       22.975     1451.479      790.370      527.862        0.602        0.138       96.178       25.163        0.068      335.756        6.602      867.133
04/08/2014  07:07:00     -107.003        9.289       -5.330       39.943       22.110       21.632     1595.481      488.837      467.952        0.706        0.128      107.406       20.774        0.037      335.812        6.696      867.140
04/08/2014  07:08:00     -142.932        1.295      -14.284       30.727       18.991       18.144      944.164      360.648      329.218        1.113        0.082      142.937       15.634        0.012      335.787        6.654      867.141
04/08/2014  07:09:00     -103.102      -10.119       -6.837       39.326       25.340       17.573     1546.532      642.128      308.803        0.664        0.125      103.598       17.278        0.028      335.830        6.725      867.145
04/08/2014  07:10:00     -112.738        0.124       -9.030       29.965       23.026       18.722      897.900      530.205      350.529        0.728        0.089      112.739       16.492        0.021      335.833        6.731      867.151
04/08/2014  07:11:00      -96.588       -6.263       -8.402       29.744       19.479       20.912      884.732      379.422      437.304        0.557        0.085       96.791       19.463        0.040      335.885        6.816      867.155
04/08/2014  07:12:00     -112.355       -1.927      -14.019       22.817       17.925       15.848      520.637      321.290      251.168        0.696        0.055      112.371       11.635        0.011      335.881        6.810      867.146
04/08/2014  07:13:00     -101.987        1.861       -6.388       17.262       22.264       13.825      297.964      495.677      191.131        0.572        0.049      102.004        9.962        0.010      335.943        6.912      867.139
04/08/2014  07:14:00     -102.378      -15.785      -11.195       24.695       24.438       14.698      609.837      597.199      216.027        0.614        0.071      103.587       14.758        0.020      335.974        6.964      867.137
04/08/2014  07:15:00      -98.069      -12.439      -12.142       22.448       14.777       12.435      503.933      218.370      154.633        0.540        0.044       98.854       10.441        0.011      336.012        7.027      867.149
04/08/2014  07:16:00      -82.732       -9.763       -3.070       25.230       22.516       14.630      636.536      506.964      214.040        0.415        0.068       83.306       10.687        0.016      336.030        7.058      867.162
04/08/2014  07:17:00      -44.134      -20.504        2.219       35.720       19.634       13.591     1275.929      385.513      184.706        0.211        0.092       48.665       18.559        0.145      336.183        7.314      867.173
04/08/2014  07:18:00      -44.199      -21.659        2.072       17.983       21.911        9.843      323.391      480.072       96.876        0.166        0.045       49.221        6.264        0.016      336.150        7.258      867.180
04/08/2014  07:19:00      -67.399      -12.091       -4.519       12.929       14.941       10.607      167.156      223.237      112.516        0.261        0.025       68.475        6.265        0.008      336.172        7.296      867.192
04/08/2014  07:20:00      -83.845      -16.213       -2.849       20.380       19.440       11.694      415.327      377.900      136.741        0.412        0.046       85.398       11.217        0.017      336.241        7.409      867.197
04/08/2014  07:21:00     -107.824      -56.403       -8.308       17.525       16.139       12.411      307.132      260.455      154.024        0.780        0.036      121.686        9.091        0.006      336.303        7.514      867.200
04/08/2014  07:22:00      -91.320      -57.123       -9.516       23.748       18.810       14.670      563.978      353.825      215.214        0.641        0.057      107.715       10.302        0.009      336.366        7.618      867.209
04/08/2014  07:23:00      -80.884      -28.733       -7.272       18.589       19.284       10.834      345.534      371.882      117.382        0.413        0.042       85.836        8.103        0.009      336.364        7.616      867.223
04/08/2014  07:24:00      -73.279      -10.996      -11.298       18.459       23.848       11.768      340.734      568.719      138.485        0.333        0.052       74.100        9.609        0.017      336.332        7.563      867.238
04/08/2014  07:25:00      -80.612        8.842       -2.802       28.871       21.825       16.820      833.560      476.328      282.916        0.409        0.080       81.096       14.169        0.031      336.299        7.508      867.243
04/08/2014  07:26:00      -65.778       -8.427       -3.842       23.915       26.079       14.147      571.927      680.137      200.129        0.293        0.073       66.316       13.835        0.044      336.343        7.581      867.244
04/08/2014  07:27:00      -67.206      -14.773       -6.505       18.632       19.932       10.767      347.164      397.300      115.935        0.282        0.043       68.811        6.939        0.010      336.417        7.704      867.256
04/08/2014  07:28:00      -63.273      -12.875      -11.735       28.176       23.892       10.592      793.898      570.836      112.200        0.289        0.074       64.569        7.108        0.012      336.429        7.725      867.250
04/08/2014  07:29:00      -64.476      -30.955        7.346       29.309       29.140       18.063      859.035      849.158      326.269        0.360        0.102       71.521       18.168        0.065      336.585        7.986      867.256
04/08/2014  07:30:00      -53.135      -21.630        0.693       28.215       23.428       15.253      796.068      548.851      232.657        0.243        0.079       57.369       16.164        0.079      336.594        8.000      867.256
04/08/2014  07:31:00      -21.223       -8.345        6.765       28.477       25.380       15.413      810.918      644.160      237.549        0.113        0.085       22.805       14.523        0.406      336.724        8.219      867.260
04/08/2014  07:32:00      -23.085      -19.083       -1.666       21.850       13.515       11.868      477.403      182.650      140.849        0.085        0.040       29.951       11.693        0.152      336.757        8.275      867.252
04/08/2014  07:33:00      -79.089      -16.747       -9.838       28.397       15.235       10.313      806.408      232.112      106.358        0.389        0.057       80.843        7.100        0.008      336.658        8.107      867.260
04/08/2014  07:34:00      -96.605      -25.929        0.541       19.339       15.935       14.534      373.990      253.928      211.251        0.542        0.042      100.024       12.171        0.015      336.658        8.108      867.258
04/08/2014  07:35:00      -68.225       -0.062        0.418       28.096       18.029       15.445      789.381      325.030      238.543        0.300        0.068       68.225       14.366        0.044      336.736        8.239      867.267
04/08/2014  07:36:00      -92.631      -25.714      -10.818       16.042       12.820       10.301      257.354      164.352      106.108        0.494        0.026       96.133        5.560        0.003      336.793        8.335      867.273
04/08/2014  07:37:00      -90.207      -27.943       -7.283       15.044       14.961       12.370      226.325      223.819      153.018        0.479        0.030       94.435        7.259        0.006      336.832        8.399      867.281
04/08/2014  07:38:00      -80.774      -23.358       -8.804       14.217       10.436        8.166      202.121      108.907       66.691        0.376        0.019       84.083        6.016        0.005      336.894        8.500      867.299
04/08/2014  07:39:00      -67.709      -11.803       -9.179       14.153       13.738        9.277      200.308      188.730       86.072        0.264        0.024       68.730        8.085        0.014      336.949        8.592      867.312
04/08/2014  07:40:00      -71.034      -16.957      -11.966       13.427       23.616       11.023      180.291      557.713      121.517        0.317        0.043       73.030        6.882        0.009      336.990        8.660      867.321
04/08/2014  07:41:00      -76.278      -13.220      -12.780       14.712       11.859       15.073      216.445      140.638      227.203        0.337        0.029       77.415       10.256        0.018      337.042        8.749      867.326
04/08/2014  07:42:00      -74.008      -25.492       -4.954       19.521       15.766       10.738      381.066      248.554      115.310        0.345        0.037       78.275        6.343        0.007      337.070        8.796      867.337
04/08/2014  07:43:00      -49.474      -10.408       -0.936       16.047       13.596        7.538      257.493      184.854       56.824        0.153        0.025       50.557        8.646        0.029      337.088        8.823      867.341
04/08/2014  07:44:00      -33.194       -2.403       -1.593        6.110        5.222        4.453       37.338       27.274       19.828        0.060        0.004       33.281        2.286        0.005      337.124        8.886      867.341
04/08/2014  07:45:00      -30.237      -14.020       -1.272       13.148        7.691        6.491      172.881       59.151       42.127        0.069        0.014       33.329        4.896        0.022      337.231        9.065      867.343
04/08/2014  07:46:00      -56.802      -27.852       -8.339       13.783       10.568        7.719      189.972      111.679       59.576        0.222        0.018       63.263        6.450        0.010      337.291        9.165      867.352
04/08/2014  07:47:00      -32.193      -16.040       -1.807       13.641       16.226        7.881      186.075      263.288       62.113        0.090        0.026       35.968        9.288        0.067      337.306        9.190      867.355
04/08/2014  07:48:00      -14.414      -12.147       -1.573        7.824        6.710       10.891       61.221       45.019      118.618        0.029        0.011       18.849        7.038        0.139      337.421        9.383      867.357
04/08/2014  07:49:00      -24.586        0.465       -2.680        8.139        8.029        9.463       66.241       64.459       89.554        0.042        0.011       24.590        5.132        0.044      337.465        9.457      867.359
04/08/2014  07:50:00      -18.582        5.927       10.352       12.749        9.735        7.658      162.549       94.777       58.643        0.040        0.016       19.504        5.944        0.093      337.795       10.011      867.363
04/08/2014  07:51:00       -3.760       -0.928       17.521        6.778        3.761        6.583       45.948       14.144       43.333        0.021        0.005        3.873        3.797        0.961      338.309       10.873      867.361
04/08/2014  07:52:00      -11.625        0.719        8.555       10.653       12.095        8.975      113.482      146.281       80.559        0.027        0.017       11.647        5.171        0.197      337.900       10.187      867.359
04/08/2014  07:53:00      -45.846      -19.305       -3.232       14.999       12.712        7.351      224.965      161.606       54.033        0.146        0.022       49.744        6.843        0.019      337.606        9.692      867.361
04/08/2014  07:54:00      -48.074       -4.408       -4.544       11.641       15.788        8.670      135.508      249.268       75.176        0.141        0.023       48.276        8.242        0.029      337.585        9.657      867.365
04/08/2014  07:55:00      -17.328       -8.508       -8.043       14.179       10.394        4.943      201.044      108.042       24.429        0.039        0.017       19.304        3.478        0.032      337.705        9.861      867.377
04/08/2014  07:56:00      -12.206       -5.468       -7.171        6.392        7.744        5.644       40.852       59.975       31.855        0.018        0.007       13.375        3.982        0.089      337.892       10.172      867.381
04/08/2014  07:57:00      -28.591       -2.293       -8.835        8.813        5.410        5.412       77.676       29.273       29.287        0.052        0.007       28.683        2.843        0.010      337.798       10.013      867.391
04/08/2014  07:58:00       -9.345      -15.157        6.927       14.151       11.023       10.575      200.248      121.505      111.835        0.040        0.022       17.806        8.882        0.249      338.167       10.636      867.393
04/08/2014  07:59:00      -27.829       -9.980       -1.983       11.092        8.515        7.848      123.042       72.509       61.595        0.057        0.013       29.564        7.972        0.073      337.970       10.304      867.394
04/08/2014  08:00:00      -16.448        4.857       10.663        8.479       10.317        8.978       71.897      106.442       80.611        0.033        0.013       17.150        3.818        0.050      338.323       10.896      867.386
04/08/2014  08:01:00      -17.342        9.642       28.163       13.396       12.801       14.565      179.458      163.876      212.154        0.087        0.028       19.842        8.928        0.202      338.659       11.461      867.365
04/08/2014  08:02:00        8.744       20.712       22.338       14.632       19.250       12.982      214.109      370.554      168.529        0.088        0.038       22.482       10.633        0.224      338.360       10.958      867.350
04/08/2014  08:03:00       24.945       32.243       17.896       20.265       14.815       19.775      410.680      219.496      391.031        0.150        0.051       40.766       12.542        0.095      338.087       10.499      867.336
04/08/2014  08:04:00        4.151       14.552       20.248       24.004       16.459       15.510      576.211      270.907      240.554        0.086        0.054       15.133       11.325        0.560      338.586       11.338      867.326
04/08/2014  08:05:00       18.198       24.629       10.096       19.145       20.166       21.338      366.539      406.680      455.309        0.113        0.061       30.623       13.092        0.183      338.363       10.963      867.327
04/08/2014  08:06:00       45.626       42.794        9.975       29.135       18.598       21.036      848.873      345.881      442.520        0.282        0.082       62.555       11.905        0.036      338.253       10.780      867.328
04/08/2014  08:07:00       47.248       39.936       23.201       43.607       23.594       18.776     1901.539      556.677      352.555        0.359        0.141       61.865       19.593        0.100      338.469       11.144      867.332
04/08/2014  08:08:00       74.029       47.704       20.140       30.871       21.234       20.450      953.004      450.871      418.189        0.499        0.091       88.068       15.881        0.033      338.145       10.597      867.333
04/08/2014  08:09:00       35.323       52.278        9.535       26.143       24.722       25.381      683.482      611.161      644.196        0.300        0.097       63.093       17.714        0.079      338.219       10.722      867.335
04/08/2014  08:10:00       18.540      -30.406        9.048       21.031       30.626       28.383      442.295      937.924      805.571        0.177        0.109       35.612       21.553        0.366      338.527       11.239      867.346
04/08/2014  08:11:00        5.642      -11.708       27.104       20.856       31.565       28.467      434.963      996.318      810.362        0.157        0.112       12.996       28.926        4.954      338.621       11.397      867.354
04/08/2014  08:12:00       24.347       39.085       35.674       25.417       22.250       25.826      646.020      495.084      666.961        0.260        0.090       46.048       10.645        0.053      338.494       11.186      867.358
04/08/2014  08:13:00       51.006       69.496        1.028       22.683       21.645       20.049      514.531      468.485      401.949        0.441        0.069       86.205       12.242        0.020      338.294       10.847      867.352
04/08/2014  08:14:00       37.715       43.200       -6.159       19.090       14.129       21.926      364.426      199.621      480.737        0.219        0.052       57.347       10.161        0.031      338.234       10.747      867.340
04/08/2014  08:15:00       40.651       18.889        9.559       17.049       14.769       18.467      290.663      218.119      341.036        0.148        0.042       44.826       11.005        0.060      338.401       11.029      867.339
04/08/2014  08:16:00       44.435       41.567       10.036       28.088       34.850       23.429      788.914     1214.552      548.906        0.318        0.128       60.846       13.464        0.049      338.477       11.156      867.328
04/08/2014  08:17:00       54.490       63.307      -15.952       17.683       20.193       17.523      312.696      407.747      307.049        0.413        0.051       83.528       10.105        0.015      338.343       10.931      867.320
04/08/2014  08:18:00       28.385       41.897        6.685       19.802       18.150       20.329      392.110      329.420      413.279        0.187        0.057       50.607       14.314        0.080      338.552       11.281      867.322
04/08/2014  08:19:00       37.265       46.907       43.420       38.712       23.123       26.019     1498.582      534.673      677.006        0.409        0.136       59.908       16.241        0.073      338.564       11.302      867.329
04/08/2014  08:20:00       32.397       12.484        6.525       20.517       16.925       14.227      420.934      286.467      202.396        0.108        0.045       34.719       14.416        0.172      338.322       10.896      867.325
04/08/2014  08:21:00       -0.593       42.155       51.161       16.623       31.935       23.815      276.314     1019.835      567.137        0.313        0.093       42.159       22.971        0.297      338.957       11.962      867.316
04/08/2014  08:22:00       48.647       73.743       51.499       33.300       31.039       32.348     1108.907      963.418     1046.375        0.679        0.156       88.343       19.863        0.051      338.387       11.003      867.302
04/08/2014  08:23:00       39.255       39.426       49.446       28.272       29.183       21.559      799.333      851.644      464.799        0.383        0.106       55.637       18.419        0.110      338.545       11.270      867.300
04/08/2014  08:24:00       16.117      -36.157       22.314       17.695       30.952       17.751      313.120      958.026      315.085        0.183        0.079       39.586       15.612        0.156      338.562       11.298      867.293
04/08/2014  08:25:00       12.825       -2.285       38.166       16.546       32.051       15.776      273.774     1027.293      248.896        0.159        0.077       13.027       16.699        1.643      338.887       11.844      867.296
04/08/2014  08:26:00       32.251       57.356       45.499       50.285       35.472       29.164     2528.533     1258.246      850.556        0.552        0.232       65.802       25.519        0.150      338.765       11.639      867.282
04/08/2014  08:27:00       19.995       65.792       98.249       45.821       49.871       28.622     2099.573     2487.104      819.193        0.989        0.270       68.763       27.868        0.164      338.817       11.727      867.265
04/08/2014  08:28:00       62.287       69.920       66.239       38.256       27.875       25.228     1463.500      777.039      636.460        0.802        0.144       93.640       16.591        0.031      338.498       11.191      867.264
04/08/2014  08:29:00       14.434       43.083       60.544       36.440       43.843       34.339     1327.843     1922.207     1179.187        0.508        0.221       45.437       31.575        0.483      338.771       11.650      867.262
04/08/2014  08:30:00       72.037       39.004       22.072       39.606       27.041       28.094     1568.632      731.229      789.281        0.514        0.154       81.919       19.916        0.059      338.657       11.458      867.281
04/08/2014  08:31:00       38.155       33.500       24.045       31.287       30.415       24.936      978.852      925.080      621.819        0.284        0.126       50.774       20.531        0.164      338.881       11.833      867.305
04/08/2014  08:32:00       17.808      -19.262       23.059       25.793       40.845       26.431      665.290     1668.288      698.582        0.213        0.152       26.233       23.056        0.772      339.128       12.249      867.320
04/08/2014  08:33:00       50.166        5.549       45.090       53.908      100.147       51.480     2906.077    10029.422     2650.221        1.008        0.779       50.472       65.224        1.670      338.710       11.546      867.320
04/08/2014  08:34:00       70.409       62.426       58.365       40.795       34.808       36.167     1664.215     1211.607     1308.063        0.822        0.209       94.098       27.871        0.088      338.445       11.102      867.308
04/08/2014  08:35:00       35.494       40.620       47.051       29.210       36.579       31.900      853.216     1338.033     1017.635        0.417        0.160       53.943       22.893        0.180      338.671       11.482      867.290
04/08/2014  08:36:00       44.383       54.180       50.647       29.115       27.629       26.784      847.698      763.356      717.381        0.490        0.116       70.038       13.048        0.035      338.674       11.487      867.278
04/08/2014  08:37:00       53.320       16.290       43.741       42.168       59.937       38.307     1778.152     3592.465     1467.451        0.593        0.342       55.753       42.112        0.571      338.677       11.491      867.272
04/08/2014  08:38:00       69.189       34.935       21.603       27.633       23.649       27.314      763.578      559.269      746.066        0.427        0.103       77.508       17.639        0.052      338.532       11.248      867.263
04/08/2014  08:39:00       23.013       18.579       33.895       28.870       34.423       21.617      833.482     1184.969      467.300        0.225        0.124       29.577       16.197        0.300      338.930       11.916      867.259
04/08/2014  08:40:00       32.986       21.322       16.943       31.559       23.986       25.494      996.001      575.306      649.964        0.203        0.111       39.278       14.799        0.142      338.852       11.784      867.257
04/08/2014  08:41:00       38.345       48.655       39.835       22.974       30.067       21.390      527.813      904.000      457.528        0.366        0.094       61.948       15.764        0.065      339.073       12.156      867.248
04/08/2014  08:42:00       43.122       19.331       29.658       27.848       34.752       25.849      775.488     1207.706      668.170        0.288        0.133       47.257        3.560        0.006      338.940       11.934      867.248
04/08/2014  08:43:00       23.182       11.618       31.466       33.666       32.354       21.677     1133.407     1046.766      469.887        0.216        0.133       25.930       11.623        0.201      339.138       12.266      867.243
04/08/2014  08:44:00       15.181       28.658       37.445       22.226       35.305       26.135      494.016     1246.442      683.022        0.244        0.121       32.430       26.144        0.650      339.154       12.294      867.238
04/08/2014  08:45:00       32.759       29.615       19.173       24.773       19.344       25.109      613.679      374.208      630.484        0.197        0.081       44.161       19.270        0.190      338.970       11.983      867.243
04/08/2014  08:46:00       26.128       32.778       22.422       22.791       21.932       27.229      519.435      480.992      741.444        0.200        0.087       41.918       15.902        0.144      339.175       12.329      867.238
04/08/2014  08:47:00       17.215       -5.386       27.590       35.980       50.652       32.517     1294.539     2565.606     1057.330        0.300        0.246       18.038       32.401        3.227      339.312       12.559      867.228
04/08/2014  08:48:00       64.840       -1.224       17.511       45.845       60.254       40.876     2101.723     3630.604     1670.839        0.596        0.370       64.852       23.767        0.134      339.208       12.384      867.225
04/08/2014  08:49:00       37.430       31.792       23.515       42.103       31.332       29.382     1772.678      981.713      863.326        0.329        0.181       49.110       19.280        0.154      339.363       12.646      867.219
04/08/2014  08:50:00       78.731       67.427       26.242       36.231       27.506       29.325     1312.686      756.587      859.981        0.718        0.146      103.658       18.084        0.030      339.172       12.325      867.225
04/08/2014  08:51:00       56.359       50.084       14.136       33.392       25.800       25.706     1114.999      665.656      660.793        0.416        0.122       75.397       17.812        0.056      339.122       12.240      867.239
04/08/2014  08:52:00        2.985      -10.042       14.124       26.589       37.571       26.655      706.960     1411.548      710.465        0.157        0.141       10.477       21.971        4.398      339.266       12.482      867.243
04/08/2014  08:53:00        8.672       11.988       42.660       29.456       41.995       32.853      867.644     1763.617     1079.321        0.287        0.186       14.796       33.176        5.028      339.631       13.097      867.247
04/08/2014  08:54:00        2.937       47.168       65.343       20.528       29.199       14.892      421.413      852.563      221.763        0.400        0.075       47.260       15.203        0.103      339.306       12.549      867.236
04/08/2014  08:55:00       29.221       -1.654       10.892       30.036       35.479       29.095      902.141     1258.759      846.522        0.199        0.150       29.268       28.528        0.950      339.211       12.389      867.229
04/08/2014  08:56:00        7.920       -6.990       21.911       24.951       31.833       15.865      622.548     1013.357      251.699        0.124        0.094       10.563        9.159        0.752      339.239       12.437      867.221
04/08/2014  08:57:00       39.707      -31.739        7.856       25.612       42.850       24.741      655.979     1836.081      612.101        0.287        0.155       50.833       24.744        0.237      339.135       12.259      867.214
04/08/2014  08:58:00       26.735       20.790       33.002       33.848       30.835       18.110     1145.713      950.789      327.955        0.233        0.121       33.867       16.294        0.231      339.424       12.748      867.224
04/08/2014  08:59:00       26.723       29.008       16.482       29.502       33.604       19.547      870.375     1129.196      382.099        0.210        0.119       39.441       17.246        0.191      339.452       12.795      867.233
04/08/2014  09:00:00       25.926       55.109       -7.932       26.254       43.177       18.901      689.276     1864.270      357.229        0.334        0.146       60.903       10.277        0.028      339.188       12.351      867.230
04/08/2014  09:01:00       -3.682       54.812       -6.372       19.395       39.849       19.852      376.149     1587.928      394.109        0.271        0.118       54.935       18.743        0.116      339.467       12.819      867.234
04/08/2014  09:02:00        9.932       13.932        9.731       26.770       29.837       20.131      716.651      890.253      405.262        0.120        0.101       17.110       12.280        0.515      339.818       13.412      867.229
04/08/2014  09:03:00        3.027       -8.954       18.936       18.688       25.609       20.243      349.247      655.820      409.778        0.093        0.071        9.452       14.946        2.500      340.252       14.146      867.238
04/08/2014  09:04:00      -22.394      -80.144       -0.297       19.692       33.705       14.339      387.780     1136.033      205.614        0.433        0.086       83.214       15.134        0.033      339.259       12.470      867.234
04/08/2014  09:05:00       -9.526      -64.218       -0.178       18.649       28.334       14.072      347.801      802.811      198.007        0.278        0.067       64.921       10.295        0.025      339.326       12.583      867.240
04/08/2014  09:06:00       -5.054      -66.190       -0.875       14.318       22.345       18.220      205.013      499.278      331.954        0.272        0.052       66.383       13.212        0.040      339.304       12.546      867.233
04/08/2014  09:07:00       27.288       -7.469        8.778       26.670       26.044       22.036      711.267      678.289      485.578        0.138        0.094       28.291       17.056        0.363      339.701       13.215      867.218
04/08/2014  09:08:00       42.419       40.683        2.948       45.738       36.158       24.023     2091.948     1307.417      577.127        0.372        0.199       58.775       19.299        0.108      339.939       13.617      867.203
04/08/2014  09:09:00       60.210       54.168       13.598       39.538       33.069       30.091     1563.216     1093.547      905.466        0.515        0.178       80.990       26.065        0.104      339.878       13.514      867.186
04/08/2014  09:10:00       82.834       61.970       12.845       38.637       32.994       26.963     1492.818     1088.626      726.993        0.709        0.165      103.449       14.827        0.021      339.785       13.357      867.192
04/08/2014  09:11:00       46.236       31.076       26.225       33.282       25.871       24.464     1107.683      669.304      598.474        0.308        0.119       55.709       16.744        0.090      340.030       13.769      867.210
04/08/2014  09:12:00       45.176       27.004        7.997       39.533       33.200       31.102     1562.883     1102.244      967.330        0.323        0.182       52.632       28.362        0.290      339.943       13.624      867.218
04/08/2014  09:13:00       26.293       18.566       11.281       41.713       33.787       21.172     1739.995     1141.595      448.241        0.225        0.166       32.187       18.038        0.314      340.029       13.767      867.215
04/08/2014  09:14:00       68.201       37.417       14.834       42.478       29.100       27.357     1804.402      846.829      748.401        0.483        0.170       77.791       25.409        0.107      340.074       13.844      867.218
04/08/2014  09:15:00        3.805       13.119       25.342       35.023       43.683       33.535     1226.640     1908.235     1124.610        0.254        0.213       13.660       14.557        1.136      340.169       14.004      867.206
04/08/2014  09:16:00      -10.080        1.915       42.607       17.978       30.022       17.008      323.193      901.328      289.265        0.172        0.076       10.261       16.403        2.556      340.722       14.938      867.198
04/08/2014  09:17:00       79.671       48.066        4.295       69.319       40.528       40.433     4805.084     1642.508     1634.866        0.838        0.404       93.048       43.635        0.220      340.077       13.849      867.198
04/08/2014  09:18:00      103.302       72.706       12.774       49.478       34.920       40.253     2448.111     1219.391     1620.302        1.070        0.264      126.323       23.314        0.034      339.859       13.481      867.199
04/08/2014  09:19:00       66.581       60.397       10.654       28.119       23.355       23.767      790.695      545.460      564.894        0.505        0.095       89.893       16.419        0.033      339.648       13.123      867.203
04/08/2014  09:20:00      122.535       88.978        7.474       33.965       32.849       33.152     1153.624     1079.043     1099.083        1.316        0.167      151.432       20.098        0.018      339.916       13.578      867.194
04/08/2014  09:21:00       86.863       68.218       -0.383       33.592       29.734       26.479     1128.397      884.082      701.116        0.746        0.136      110.449       19.969        0.033      339.905       13.558      867.192
04/08/2014  09:22:00       68.242       69.900       23.684       35.242       41.401       39.659     1241.971     1714.071     1572.802        0.732        0.226       97.688       16.594        0.029      340.176       14.017      867.183
04/08/2014  09:23:00        7.804       21.174       53.275       42.244       23.830       21.337     1784.589      567.882      455.261        0.308        0.140       22.566       19.391        0.738      340.577       14.696      867.184
04/08/2014  09:24:00       -2.330        9.472       30.440       22.701       28.017       24.400      515.336      784.930      595.346        0.146        0.095        9.755        4.458        0.209      340.064       13.827      867.190
04/08/2014  09:25:00      -14.129        7.295       20.002       16.057       27.248       23.980      257.814      742.448      575.046        0.111        0.079       15.901       15.884        0.998      340.148       13.969      867.194
04/08/2014  09:26:00       19.031      -31.798       24.370       31.051       37.114       26.877      964.138     1377.421      722.382        0.251        0.153       37.058        9.006        0.059      339.771       13.334      867.191
04/08/2014  09:27:00       12.276      -23.702       21.108       24.344       40.124       31.595      592.622     1609.902      998.264        0.218        0.160       26.692       22.591        0.716      339.941       13.620      867.195
04/08/2014  09:28:00       18.702      -28.269       16.261       31.070       41.745       32.473      965.349     1742.666     1054.513        0.259        0.188       33.895       26.650        0.618      339.879       13.516      867.200
04/08/2014  09:29:00       22.691      -20.673        7.657       32.563       28.868       31.252     1060.379      833.384      976.718        0.194        0.144       30.697       24.429        0.633      340.133       13.944      867.197
04/08/2014  09:30:00       27.747      -12.454       16.186       30.380       34.300       33.264      922.916     1176.493     1106.520        0.220        0.160       30.414       24.333        0.640      339.994       13.709      867.202
04/08/2014  09:31:00       54.666      -38.996      -10.215       23.521       31.845       21.146      553.227     1014.136      447.158        0.331        0.101       67.150       11.286        0.028      339.872       13.503      867.224
04/08/2014  09:32:00       11.682       11.633       15.658       21.919       18.270       27.559      480.451      333.775      759.519        0.105        0.079       16.487       16.697        1.026      340.837       15.134      867.230
04/08/2014  09:33:00        2.433       -7.724       24.886       18.222       25.780       21.863      332.028      664.633      477.994        0.108        0.074        8.098       10.413        1.654      340.728       14.950      867.233
04/08/2014  09:34:00       37.703       18.021       11.035       30.241       39.806       35.494      914.534     1584.478     1259.794        0.281        0.188       41.788       24.047        0.331      340.328       14.272      867.227
04/08/2014  09:35:00       28.398       -3.033       29.763       29.335       41.541       33.495      860.547     1725.688     1121.908        0.270        0.185       28.559       29.611        1.075      340.411       14.414      867.219
04/08/2014  09:36:00        3.023       44.408       73.095       28.117       42.473       24.411      790.578     1803.954      595.889        0.526        0.160       44.510       12.938        0.084      340.932       15.293      867.202
04/08/2014  09:37:00       28.174       25.700       60.883       40.131       29.845       33.323     1610.478      890.723     1110.449        0.439        0.181       38.135       11.928        0.098      340.903       15.246      867.182
04/08/2014  09:38:00       16.254       22.240       54.577       30.656       35.237       27.680      939.794     1241.640      766.183        0.334        0.147       27.547       17.598        0.408      341.118       15.611      867.161
04/08/2014  09:39:00       53.845       50.710       47.658       47.057       24.705       33.721     2214.397      610.360     1137.114        0.585        0.198       73.964       25.906        0.123      340.417       14.424      867.153
04/08/2014  09:40:00       89.485       41.391       20.654       54.587       24.195       37.548     2979.773      585.421     1409.875        0.756        0.249       98.594       32.187        0.107      340.339       14.292      867.149
04/08/2014  09:41:00       18.588       36.772       13.464       41.580       37.551       29.923     1728.921     1410.073      895.386        0.296        0.202       41.203       12.291        0.089      340.790       15.053      867.156
04/08/2014  09:42:00       -4.202       43.350       20.159       27.778       34.432       24.754      771.620     1185.539      612.766        0.244        0.128       43.553       18.313        0.177      341.286       15.894      867.158
04/08/2014  09:43:00       38.776       45.498       11.773       45.468       32.048       25.486     2067.312     1027.096      649.521        0.373        0.187       59.780       15.615        0.068      340.869       15.188      867.164
04/08/2014  09:44:00      128.921       90.390        8.821       29.628       30.544       27.611      877.799      932.953      762.352        1.372        0.129      157.451       14.892        0.009      340.256       14.151      867.189
04/08/2014  09:45:00      116.618       93.303       22.155       37.061       25.760       36.603     1373.530      663.595     1339.784        1.309        0.169      149.349       21.395        0.021      340.323       14.264      867.188
04/08/2014  09:46:00      103.888       83.321        0.800       44.663       27.546       39.306     1994.800      758.786     1544.930        1.102        0.215      133.173       17.527        0.017      340.347       14.305      867.199
04/08/2014  09:47:00       94.956       49.248       12.019       54.341       32.938       36.725     2952.921     1084.934     1348.736        0.849        0.269      106.967       27.488        0.066      340.808       15.086      867.186
04/08/2014  09:48:00       68.789       68.874       -8.681       40.230       30.919       28.520     1618.444      955.981      813.407        0.647        0.169       97.343       18.304        0.035      340.867       15.185      867.191
04/08/2014  09:49:00       17.764       47.107       12.169       28.663       42.828       31.295      821.543     1834.214      979.356        0.316        0.182       50.345       23.315        0.214      341.261       15.851      867.184
04/08/2014  09:50:00      117.517       25.019        8.647       61.029       56.373       43.085     3724.558     3177.895     1856.302        1.163        0.438      120.151       22.332        0.035      340.678       14.865      867.180
04/08/2014  09:51:00       39.555       65.774       11.178       37.365       45.059       32.581     1396.111     2030.354     1061.546        0.525        0.224       76.752       31.042        0.164      341.091       15.564      867.193
04/08/2014  09:52:00       50.890       63.104        9.438       32.878       45.470       36.246     1080.975     2067.530     1313.763        0.556        0.223       81.067       31.428        0.150      340.778       15.034      867.188
04/08/2014  09:53:00       36.662       36.388       19.217       31.335       27.102       22.525      981.864      734.499      507.373        0.263        0.111       51.654       14.955        0.084      341.286       15.894      867.198
04/08/2014  09:54:00       21.240       23.163       29.232       38.736       51.604       25.255     1500.453     2662.947      637.830        0.332        0.240       31.427       20.677        0.433      341.317       15.946      867.212
04/08/2014  09:55:00       45.614       54.138       46.738       44.350       32.751       26.864     1966.937     1072.644      721.691        0.548        0.188       70.792       17.691        0.062      340.906       15.250      867.205
04/08/2014  09:56:00        0.335        4.609       19.930       37.029       45.972       35.307     1371.180     2113.386     1246.596        0.257        0.237        4.622       30.587       43.800      341.034       15.469      867.193
04/08/2014  09:57:00       33.986        2.986        5.645       38.646       66.434       33.638     1493.490     4413.503     1131.505        0.412        0.352       34.117       20.788        0.371      341.023       15.447      867.198
04/08/2014  09:58:00       13.332      -17.899       38.321       25.516       46.070       26.091      651.080     2122.457      680.738        0.271        0.173       22.319       17.305        0.601      341.382       16.056      867.196
04/08/2014  09:59:00       -2.850        5.522       32.256       12.630       19.751       11.779      159.523      390.091      138.747        0.088        0.034        6.214        5.003        0.648      341.672       16.548      867.201
04/08/2014  10:00:00       33.665      -10.730       13.166       31.927       27.656       22.169     1019.342      764.828      491.482        0.185        0.114       35.334       19.903        0.317      341.206       15.758      867.209
04/08/2014  10:01:00        8.626       14.278       28.711       20.836       29.955       21.986      434.120      897.313      483.405        0.146        0.091       16.681       19.666        1.390      341.599       16.425      867.210
04/08/2014  10:02:00        8.784        2.738       33.945       37.283       49.121       29.549     1389.986     2412.885      873.119        0.296        0.234        9.201       22.252        5.849      341.517       16.285      867.218
04/08/2014  10:03:00       86.900       81.313       60.229       52.476       53.438       53.375     2753.686     2855.670     2848.856        1.312        0.423      119.011       33.141        0.078      341.208       15.760      867.208
04/08/2014  10:04:00       97.897      108.264       78.716       48.803       31.942       37.987     2381.731     1020.279     1442.983        1.617        0.242      145.962       25.335        0.030      340.815       15.096      867.200
04/08/2014  10:05:00       99.768      108.497       70.269       45.164       35.344       40.257     2039.827     1249.199     1620.592        1.579        0.245      147.395       21.036        0.020      340.995       15.401      867.188
04/08/2014  10:06:00      126.599       83.601       23.184       18.801       22.750       23.916      353.492      517.551      571.992        1.250        0.072      151.712       10.875        0.005      340.728       14.949      867.180
04/08/2014  10:07:00       46.331       34.593       -4.386       51.821       35.326       20.989     2685.403     1247.914      440.552        0.387        0.219       57.821       20.484        0.125      340.968       15.356      867.169
04/08/2014  10:08:00       21.993       26.701       33.575       35.434       29.270       23.453     1255.604      856.723      550.055        0.249        0.133       34.592       18.029        0.272      341.585       16.399      867.159
04/08/2014  10:09:00       61.419      -81.273       24.698       70.485       87.282       43.440     4968.166     7618.073     1887.019        1.273        0.724      101.871       50.405        0.245      341.130       15.629      867.153
04/08/2014  10:10:00       20.596       18.211       11.731       25.922       22.189       24.756      671.964      492.339      612.861        0.133        0.089       27.492       14.363        0.273      341.475       16.214      867.159
04/08/2014  10:11:00      -15.349       31.833       66.889       19.214       43.486       39.672      369.169     1891.068     1573.906        0.478        0.192       35.340       35.442        1.006      341.809       16.780      867.149
04/08/2014  10:12:00       50.557       39.832       77.183       43.407       40.287       36.175     1884.207     1623.019     1308.606        0.746        0.241       64.363       21.508        0.112      341.506       16.266      867.141
04/08/2014  10:13:00       76.434       54.451       63.400       40.382       42.158       37.490     1630.735     1777.303     1405.536        0.882        0.241       93.846       10.402        0.012      341.140       15.647      867.141
04/08/2014  10:14:00       67.740       67.097       39.745       31.062       26.293       25.756      964.858      691.348      663.364        0.649        0.116       95.345       17.465        0.034      341.011       15.429      867.138
04/08/2014  10:15:00       33.165       35.093        4.281       27.999       29.487       25.043      783.972      869.463      627.148        0.231        0.114       48.285       12.505        0.067      341.076       15.538      867.134
04/08/2014  10:16:00       56.987       36.206       29.384       45.524       30.366       27.352     2072.424      922.102      748.147        0.458        0.187       67.515       19.746        0.086      341.597       16.420      867.131
04/08/2014  10:17:00       65.138       44.124       36.994       62.022       41.487       35.100     3846.693     1721.197     1232.032        0.718        0.340       78.676       27.484        0.122      341.616       16.453      867.133
04/08/2014  10:18:00       15.825       25.675       20.746       35.248       32.976       27.461     1242.416     1087.449      754.094        0.221        0.154       30.160       28.109        0.869      341.821       16.800      867.137
04/08/2014  10:19:00       14.053        4.633       17.955       27.372       40.245       36.663      749.217     1619.646     1344.191        0.213        0.186       14.797       28.585        3.732      342.099       17.272      867.128
04/08/2014  10:20:00       40.894       -7.340        3.502       16.938       39.843       22.239      286.889     1587.454      494.594        0.205        0.118       41.547       11.538        0.077      341.567       16.371      867.140
04/08/2014  10:21:00      107.872       37.901       41.543       64.226       48.834       38.546     4124.985     2384.724     1485.825        1.140        0.400      114.336       38.119        0.111      341.735       16.655      867.125
04/08/2014  10:22:00      120.180       71.489       29.988       70.442       66.323       50.628     4962.087     4398.708     2563.147        1.619        0.596      139.836       36.221        0.067      341.806       16.775      867.112
04/08/2014  10:23:00      145.093       82.403       42.748       56.409       46.312       44.018     3181.923     2144.822     1937.609        1.847        0.363      166.860       29.523        0.031      341.711       16.612      867.112
04/08/2014  10:24:00      129.021       96.354       23.083       72.528       54.196       47.986     5260.340     2937.155     2302.609        1.848        0.525      161.029       35.618        0.049      341.633       16.480      867.108
04/08/2014  10:25:00      151.130       84.526       29.110       60.232       38.829       52.451     3627.926     1507.689     2751.087        1.936        0.394      173.161       37.123        0.046      341.371       16.036      867.110
04/08/2014  10:26:00       67.557       80.137       30.719       34.173       30.679       29.608     1167.791      941.182      876.620        0.746        0.149      104.814       23.373        0.050      341.231       15.800      867.114
04/08/2014  10:27:00       -5.567       50.661      -10.522       42.126       33.573       25.933     1774.635     1127.153      672.510        0.314        0.179       50.966       21.774        0.183      341.531       16.309      867.102
04/08/2014  10:28:00       13.725       32.737       61.964       40.003       52.906       46.759     1600.274     2799.076     2186.368        0.584        0.329       35.498       29.550        0.693      342.153       17.363      867.093
04/08/2014  10:29:00       46.858       93.493       83.008       56.973       43.422       39.481     3245.906     1885.440     1558.740        1.226        0.335      104.578       32.746        0.098      341.734       16.652      867.097
04/08/2014  10:30:00       25.352      -21.904       41.976       53.974       94.978       47.562     2913.176     9020.729     2262.122        0.854        0.710       33.503       45.045        1.808      341.907       16.947      867.101
04/08/2014  10:31:00       45.905      -73.632       11.649       45.508      106.111       47.128     2070.948    11259.533     2221.030        1.160        0.778       86.769       54.742        0.398      342.247       17.524      867.098
04/08/2014  10:32:00       29.053       13.928       45.025       43.227       55.724       33.559     1868.560     3105.135     1126.224        0.458        0.305       32.218       28.405        0.777      342.431       17.836      867.108
04/08/2014  10:33:00       35.996      -43.278       28.459       55.099       69.216       44.227     3035.916     4790.899     1956.035        0.688        0.489       56.291       50.284        0.798      342.543       18.025      867.110
04/08/2014  10:34:00      123.906     -131.593      -23.114       59.808       68.170       40.586     3576.980     4647.115     1647.250        2.154        0.494      180.747       34.495        0.036      341.982       17.070      867.094
04/08/2014  10:35:00       42.312      -14.722       17.339       42.231       41.091       44.069     1783.493     1688.455     1942.095        0.386        0.271       44.800       33.510        0.559      342.356       17.709      867.094
04/08/2014  10:36:00       18.578        3.335       42.756       49.205       61.379       38.570     2421.119     3767.404     1487.625        0.493        0.384       18.875       25.998        1.897      342.532       18.008      867.083
04/08/2014  10:37:00      124.394       96.813       38.072       74.339       40.043       50.165     5526.350     1603.436     2516.544        1.797        0.482      157.629       18.853        0.014      341.882       16.902      867.079
04/08/2014  10:38:00      184.140       93.415       53.099       80.966       53.589       57.537     6555.438     2871.787     3310.558        2.909        0.637      206.480       43.682        0.045      341.978       17.063      867.088
04/08/2014  10:39:00      129.140       79.628       19.656       67.670       42.626       41.195     4579.212     1817.000     1697.052        1.575        0.405      151.716       31.094        0.042      341.930       16.984      867.086
04/08/2014  10:40:00       70.150       57.298       43.783       53.970       52.882       36.388     2912.753     2796.526     1324.099        0.858        0.352       90.576       33.145        0.134      342.297       17.607      867.073
04/08/2014  10:41:00       58.648       52.679       56.941       81.425       62.019       47.879     6629.950     3846.358     2292.397        1.111        0.638       78.833       28.452        0.130      342.833       18.517      867.057
04/08/2014  10:42:00      103.559       74.681       42.630       64.796       53.006       49.922     4198.496     2809.616     2492.242        1.381        0.475      127.678       34.740        0.074      342.638       18.187      867.049
04/08/2014  10:43:00      160.035      105.659       35.267       62.632       45.681       55.586     3922.755     2086.744     3089.803        2.356        0.455      191.768       23.459        0.015      342.034       17.159      867.031
04/08/2014  10:44:00       80.729       38.790        3.017       63.387       55.749       38.987     4017.862     3107.977     1520.014        0.834        0.432       89.564       27.153        0.092      342.735       18.354      867.016
04/08/2014  10:45:00       26.738      -22.749       14.703       56.719       63.234       37.885     3217.048     3998.489     1435.307        0.505        0.433       35.106       29.301        0.697      342.824       18.504      867.004
04/08/2014  10:46:00       36.265      -28.644       34.802       45.996       71.624       48.034     2115.591     5130.045     2307.228        0.645        0.478       46.213       46.982        1.034      343.012       18.824      867.001
04/08/2014  10:47:00       75.024       60.717       39.520       47.421       68.511       41.551     2248.741     4693.773     1726.473        0.977        0.433       96.515       18.256        0.036      342.758       18.392      866.982
04/08/2014  10:48:00       31.347       35.541       35.102       56.509       46.143       26.038     3193.286     2129.178      677.967        0.474        0.300       47.390       23.434        0.245      342.891       18.619      866.980
04/08/2014  10:49:00        6.517      -16.814       39.771       25.665       48.758       31.837      658.675     2377.346     1013.621        0.298        0.202       18.033       24.927        1.911      342.975       18.761      866.963
04/08/2014  10:50:00       34.514        6.685       32.308       45.004       28.409       35.211     2025.379      807.055     1239.797        0.318        0.204       35.155       20.617        0.344      342.798       18.460      866.963
04/08/2014  10:51:00       44.290       41.195       35.063       67.951       44.438       43.787     4617.326     1974.704     1917.282        0.670        0.425       60.486       39.524        0.427      342.787       18.442      866.948
04/08/2014  10:52:00       60.298       78.827       78.028       74.379       73.010       62.278     5532.162     5330.405     3878.606        1.534        0.737       99.244       48.723        0.241      342.595       18.114      866.943
04/08/2014  10:53:00       37.392       25.367       31.376       43.722       65.282       53.245     1911.623     4261.708     2835.073        0.602        0.450       45.185       40.560        0.806      342.687       18.271      866.931
04/08/2014  10:54:00       60.086       73.065       13.416       47.969       35.874       40.920     2301.051     1286.940     1674.422        0.719        0.263       94.598       23.570        0.062      342.713       18.315      866.939
04/08/2014  10:55:00       43.873       92.164      -15.747       48.015       31.709       26.171     2305.488     1005.443      684.902        0.733        0.200      102.074       11.473        0.013      342.407       17.793      866.924
04/08/2014  10:56:00       56.620       36.310       23.928       58.709       60.800       44.155     3446.725     3696.639     1949.686        0.709        0.455       67.262       30.115        0.200      342.940       18.702      866.923
04/08/2014  10:57:00       36.403       40.467       29.764       47.779       36.483       24.671     2282.839     1330.987      608.650        0.403        0.211       54.431       20.850        0.147      342.766       18.405      866.918
04/08/2014  10:58:00       47.481       71.295       17.654       43.978       59.031       41.276     1934.034     3484.611     1703.705        0.738        0.356       85.659       39.018        0.207      342.840       18.532      866.907
04/08/2014  10:59:00       55.295       77.187       12.155       52.835       35.044       33.952     2791.565     1228.090     1152.714        0.717        0.259       94.950       20.928        0.049      342.811       18.480      866.906
04/08/2014  11:00:00       81.300       76.076        7.074       36.329       28.418       27.213     1319.823      807.611      740.544        0.766        0.143      111.343       20.226        0.033      342.701       18.295      866.898
04/08/2014  11:01:00       13.682       25.305        3.680       26.248       25.548       25.361      688.946      652.687      643.174        0.141        0.099       28.767       15.660        0.296      343.214       19.168      866.898
04/08/2014  11:02:00       33.783      -50.074       11.342       33.273       56.389       39.058     1107.110     3179.678     1525.528        0.479        0.291       60.405       33.781        0.313      343.161       19.078      866.886
04/08/2014  11:03:00       26.837      -30.981       15.756       37.238       58.646       35.763     1386.643     3439.371     1279.000        0.402        0.305       40.989       38.760        0.894      342.626       18.167      866.882
04/08/2014  11:04:00       24.034       -2.368       40.243       36.691       46.997       37.969     1346.222     2208.685     1441.655        0.360        0.250       24.151       34.809        2.077      342.921       18.671      866.870
04/08/2014  11:05:00       30.386       38.311       51.505       29.266       30.927       19.817      856.471      956.492      392.724        0.362        0.110       48.898       13.661        0.078      343.212       19.165      866.861
04/08/2014  11:06:00       57.270      -41.934       21.712       62.997      123.070       62.372     3968.604    15146.334     3890.288        1.425        1.150       70.981       78.840        1.234      343.138       19.038      866.844
04/08/2014  11:07:00       60.681     -103.200       -8.815       42.894       65.437       46.691     1839.906     4281.981     2180.004        1.135        0.415      119.718       42.947        0.129      343.019       18.837      866.845
04/08/2014  11:08:00       39.975       33.243       52.125       39.955       74.967       45.369     1596.435     5620.034     2058.324        0.735        0.464       51.992       40.647        0.611      343.285       19.290      866.825
04/08/2014  11:09:00      166.554      104.734       32.310       76.434       50.824       50.124     5842.164     2583.115     2512.425        2.534        0.547      196.748       38.318        0.038      342.861       18.565      866.811
04/08/2014  11:10:00       88.523       55.218       38.022       69.709       46.916       44.987     4859.310     2201.146     2023.864        1.071        0.454      104.333       29.626        0.081      343.247       19.223      866.794
04/08/2014  11:11:00      102.940       95.418       48.129       68.844       30.865       43.175     4739.503      952.629     1864.073        1.479        0.378      140.361       37.748        0.072      343.115       18.998      866.781
04/08/2014  11:12:00      124.116       51.701       21.189       64.741       43.251       40.678     4191.370     1870.675     1654.724        1.312        0.386      134.453       23.571        0.031      343.121       19.008      866.779
04/08/2014  11:13:00       55.671       70.789       13.873       55.381       52.127       37.017     3067.017     2717.240     1370.273        0.773        0.358       90.057       28.690        0.101      343.596       19.820      866.768
04/08/2014  11:14:00        3.018       42.185       16.953       28.131       58.599       30.508      791.346     3433.788      930.756        0.361        0.258       42.293       34.197        0.654      343.844       20.244      866.774
04/08/2014  11:15:00       34.228       26.043       19.262       31.107       22.968       20.341      967.619      527.513      413.761        0.206        0.095       43.010       15.089        0.123      343.748       20.080      866.772
04/08/2014  11:16:00       39.619       73.130       -2.810       28.326       46.662       28.957      802.355     2177.387      838.492        0.537        0.191       83.173       20.263        0.059      343.425       19.528      866.764
04/08/2014  11:17:00       57.680       71.473       -3.452       47.509       67.868       42.253     2257.133     4606.044     1785.315        0.855        0.432       91.844       44.804        0.238      343.821       20.202      866.758
04/08/2014  11:18:00      -25.506       55.537       16.444       49.004       41.114       37.750     2401.364     1690.322     1425.067        0.476        0.276       61.114       23.665        0.150      344.071       20.631      866.741
04/08/2014  11:19:00        3.070       55.625       41.504       39.754       53.992       38.886     1580.408     2915.135     1512.132        0.542        0.300       55.710       35.738        0.412      344.265       20.961      866.732
04/08/2014  11:20:00      -28.134      -11.278       10.440       44.202       26.610       26.455     1953.819      708.109      699.844        0.219        0.168       30.310       25.620        0.714      344.246       20.929      866.715
04/08/2014  11:21:00     -131.356      -29.441       -7.124       44.169       31.577       20.627     1950.939      997.078      425.478        1.077        0.169      134.615       16.852        0.016      343.575       19.785      866.703
04/08/2014  11:22:00      -96.980      -76.720       -4.202       52.285       48.860       27.012     2733.755     2387.340      729.660        1.058        0.293      123.657       28.193        0.052      343.532       19.710      866.684
04/08/2014  11:23:00      -69.587     -113.437        6.918       55.051       58.230       32.475     3030.618     3390.762     1054.637        1.262        0.374      133.080       29.659        0.050      343.413       19.506      866.675
04/08/2014  11:24:00      -47.470      -94.333        1.172       30.901       50.570       23.076      954.852     2557.323      532.483        0.760        0.202      105.603       23.607        0.050      343.422       19.522      866.679
04/08/2014  11:25:00     -108.621      -76.126       -8.344       55.674       49.582       28.814     3099.611     2458.391      830.225        1.202        0.319      132.641       28.530        0.046      343.420       19.520      866.657
04/08/2014  11:26:00     -158.507      -66.418      -18.607       28.818       29.981       20.924      830.496      898.872      437.823        1.602        0.108      171.860        6.087        0.001      343.191       19.129      866.649
04/08/2014  11:27:00     -113.983      -56.669       -7.494       52.721       63.299       35.925     2779.512     4006.769     1290.634        1.217        0.404      127.293       27.673        0.047      343.421       19.521      866.631
04/08/2014  11:28:00      -96.530      -42.068        7.440       72.917       53.475       33.012     5316.872     2859.534     1089.804        1.020        0.463      105.299       38.004        0.130      343.813       20.190      866.617
04/08/2014  11:29:00      -60.450      -16.581       15.223       58.925       46.045       28.570     3472.203     2120.097      816.234        0.528        0.320       62.683       34.041        0.295      343.877       20.298      866.615
04/08/2014  11:30:00      -28.654      -63.614       -2.256       77.756       48.730       31.511     6045.927     2374.608      992.956        0.714        0.471       69.769       18.359        0.069      343.708       20.011      866.593
04/08/2014  11:31:00       14.485     -139.310      -23.002       91.023       91.439       42.834     8285.121     8361.117     1834.718        1.931        0.924      140.061       49.799        0.126      343.714       20.017      866.542
04/08/2014  11:32:00       37.700     -151.239        9.377       78.867       83.675       39.981     6219.942     7001.446     1598.464        1.960        0.741      155.867       39.647        0.065      343.900       20.337      866.527
04/08/2014  11:33:00       35.180       20.635       61.375       61.565       66.614       40.177     3790.293     4437.370     1614.160        0.763        0.492       40.785       27.606        0.458      344.237       20.914      866.523
04/08/2014  11:34:00        0.413      -31.966       53.293       51.468       78.029       40.802     2648.946     6088.456     1664.798        0.713        0.520       31.969       28.966        0.821      344.285       20.995      866.501
04/08/2014  11:35:00       57.127      -60.358       20.939       64.103       89.857       54.002     4109.237     8074.350     2916.261        1.122        0.755       83.106       62.693        0.569      343.923       20.375      866.501
04/08/2014  11:36:00       58.878     -109.071       -9.144       31.652       46.470       23.950     1001.873     2159.428      573.612        0.959        0.187      123.948       19.379        0.024      343.485       19.630      866.501
04/08/2014  11:37:00       43.297        3.367       37.674       56.070       44.246       47.280     3143.791     1957.733     2235.382        0.532        0.367       43.427       42.070        0.938      344.152       20.770      866.489
04/08/2014  11:38:00       40.788       31.498       32.016       30.782       30.542       32.340      947.527      932.790     1045.887        0.330        0.146       51.534       11.333        0.048      343.518       19.686      866.476
04/08/2014  11:39:00       46.146        5.626       33.320       61.229       88.410       45.056     3748.993     7816.390     2030.042        0.843        0.680       46.488       53.355        1.317      343.819       20.199      866.443
04/08/2014  11:40:00       28.147        2.968       63.663       58.752       46.566       49.240     3451.812     2168.376     2424.563        0.645        0.402       28.303       22.816        0.650      344.413       21.215      866.438
04/08/2014  11:41:00        5.526       44.058       63.993       48.393       52.646       41.286     2341.897     2771.585     1704.567        0.644        0.341       44.403       36.126        0.662      344.215       20.877      866.431
04/08/2014  11:42:00       30.069       -1.327       33.983       48.755       76.101       28.756     2377.080     5791.341      826.923        0.553        0.450       30.098       32.614        1.174      344.118       20.710      866.426
04/08/2014  11:43:00       50.780     -117.460        3.853       89.005      126.589       52.691     7921.871    16024.797     2776.343        2.155        1.336      127.966       37.369        0.085      343.822       20.204      866.414
04/08/2014  11:44:00       36.838       73.724      103.825       66.732       74.181       51.079     4453.116     5502.790     2609.104        1.507        0.628       82.416       53.056        0.414      344.237       20.913      866.416
04/08/2014  11:45:00       84.079      108.325      112.395      107.979       76.920       68.771    11659.563     5916.618     4729.514        2.687        1.115      137.126       54.078        0.156      343.880       20.301      866.398
04/08/2014  11:46:00      127.475      128.817      105.449      102.817       77.295       68.944    10571.313     5974.551     4753.340        3.263        1.065      181.228       62.639        0.119      343.630       19.875      866.414
04/08/2014  11:47:00       77.123       75.802       91.749       66.089       60.360       54.955     4367.808     3643.328     3020.034        1.557        0.552      108.138       41.972        0.151      343.608       19.838      866.412
04/08/2014  11:48:00       -6.730       52.361       48.821       42.301       43.296       48.254     1789.372     1874.530     2328.426        0.558        0.300       52.792       32.144        0.371      343.820       20.202      866.405
04/08/2014  11:49:00       -9.123      -43.660        1.607       23.199       47.974       24.479      538.211     2301.457      599.218        0.271        0.172       44.603       22.749        0.260      343.981       20.476      866.395
04/08/2014  11:50:00       27.450      -86.195       -8.453       36.116       71.159       44.871     1304.363     5063.581     2013.397        0.832        0.419       90.460       38.459        0.181      344.133       20.734      866.370
04/08/2014  11:51:00       40.802       41.151       65.255       52.963       76.810       50.544     2805.085     5899.786     2554.668        0.944        0.563       57.950       53.137        0.841      344.089       20.661      866.361
04/08/2014  11:52:00       38.338       57.118       81.729       58.299       59.956       36.194     3398.741     3594.666     1310.012        0.986        0.415       68.792       32.903        0.229      344.030       20.561      866.357
04/08/2014  11:53:00       20.994      104.182      113.520       63.189       55.888       51.334     3992.863     3123.506     2635.212        1.696        0.488      106.276       44.609        0.176      343.887       20.315      866.351
04/08/2014  11:54:00       75.699       33.389       35.580       59.199       45.684       30.178     3504.471     2087.062      910.715        0.731        0.325       82.736       22.120        0.071      343.716       20.023      866.350
04/08/2014  11:55:00       80.675       74.072       61.444       97.758       65.664       50.641     9556.556     4311.826     2564.544        1.610        0.822      109.522       44.338        0.164      344.105       20.688      866.321
04/08/2014  11:56:00      191.376      122.676       30.817       74.083       64.080       52.933     5488.307     4106.188     2801.866        3.251        0.620      227.320       38.246        0.028      343.972       20.457      866.318
04/08/2014  11:57:00       83.741       54.641       22.562       51.268       63.020       36.627     2628.374     3971.567     1341.533        0.922        0.397       99.991       18.885        0.036      344.090       20.664      866.313
04/08/2014  11:58:00       44.675      -83.024       15.360       56.550       93.103       46.724     3197.856     8668.257     2183.094        1.158        0.702       94.281       45.025        0.228      344.472       21.313      866.286
04/08/2014  11:59:00       68.366      106.221       83.361       72.267       56.808       50.309     5222.483     3227.187     2531.010        1.694        0.549      126.320       32.693        0.067      344.307       21.032      866.288
04/08/2014  12:00:00       36.036       54.046       75.216       47.796       54.361       41.138     2284.475     2955.121     1692.350        0.840        0.347       64.958       24.688        0.144      344.354       21.114      866.290
04/08/2014  12:01:00       38.845      -25.266       20.900       48.941       54.203       38.150     2395.219     2938.019     1455.444        0.469        0.339       46.338       22.132        0.228      343.766       20.111      866.280
04/08/2014  12:02:00       19.904      -30.616        2.702       27.537       41.102       36.276      758.292     1689.366     1315.950        0.255        0.188       36.517       35.616        0.951      344.408       21.206      866.272
04/08/2014  12:03:00       46.375       41.566       27.634       38.234       27.524       26.334     1461.870      757.592      693.461        0.378        0.146       62.277       19.602        0.099      344.342       21.093      866.259
04/08/2014  12:04:00       81.815       31.690       -6.474       27.144       32.796       28.505      736.814     1075.558      812.518        0.518        0.131       87.738       15.596        0.032      343.770       20.114      866.239
04/08/2014  12:05:00      -65.120      -10.159      -19.396       74.704       23.880       30.939     5580.640      570.254      957.217        0.591        0.355       65.908       39.043        0.351      343.796       20.160      866.229
04/08/2014  12:06:00     -117.585       12.983      -10.354       82.424       44.626       39.779     6793.793     1991.459     1582.361        1.223        0.518      118.300       22.070        0.035      344.147       20.759      866.209
04/08/2014  12:07:00      -95.667      -15.340       -3.040       88.520       48.163       41.778     7835.737     2319.632     1745.388        1.065        0.595       96.889       47.734        0.243      344.107       20.690      866.190
04/08/2014  12:08:00      -15.172      -81.438       -2.667       32.823       46.466       23.189     1077.364     2159.131      537.740        0.532        0.189       82.839       19.501        0.055      343.705       20.004      866.177
04/08/2014  12:09:00       35.271       33.520       36.331       53.411       42.097       31.467     2852.719     1772.167      990.156        0.465        0.281       48.658       35.179        0.523      344.197       20.844      866.162
04/08/2014  12:10:00      117.977       21.238       28.685       45.061       85.828       43.086     2030.496     7366.371     1856.408        1.322        0.563      119.873       46.393        0.150      343.824       20.208      866.143
04/08/2014  12:11:00      101.222        8.660       36.441       54.836       59.401       52.663     3006.996     3528.443     2773.394        1.048        0.465      101.592       47.712        0.221      343.737       20.058      866.153
04/08/2014  12:12:00       52.156      -17.189       44.259       75.435      124.401       51.485     5690.509    15475.528     2650.711        1.439        1.191       54.916       40.728        0.550      343.831       20.219      866.129
04/08/2014  12:13:00      108.605       88.364       41.459       58.130       52.982       36.711     3379.144     2807.040     1347.714        1.443        0.377      140.012       22.537        0.026      343.887       20.315      866.123
04/08/2014  12:14:00       33.134        8.104       36.744       38.936       38.527       32.125     1515.981     1484.299     1032.041        0.327        0.202       34.111       12.769        0.140      344.191       20.836      866.129
04/08/2014  12:15:00      161.887      133.935       18.579       53.345       39.929       41.819     2845.707     1594.325     1748.829        2.534        0.309      210.109       19.022        0.008      344.043       20.580      866.121
04/08/2014  12:16:00      102.141      108.682        6.858       96.688       53.851       37.678     9348.540     2899.950     1419.653        1.798        0.683      149.146       29.339        0.039      343.976       20.466      866.135
04/08/2014  12:17:00       44.406       66.531      -18.070       66.390       40.702       32.406     4407.669     1656.671     1050.137        0.692        0.356       79.989       25.890        0.105      344.410       21.209      866.125
04/08/2014  12:18:00      -17.731       51.061       10.579       35.848       38.489       41.527     1285.079     1481.421     1724.479        0.376        0.225       54.052       17.970        0.111      344.725       21.748      866.127
04/08/2014  12:19:00        0.417       26.432       28.648       29.490       34.534       21.291      869.681     1192.625      453.293        0.202        0.126       26.435       18.840        0.508      345.029       22.267      866.102
04/08/2014  12:20:00      -19.735       74.971       15.460       40.368       67.344       34.660     1629.587     4535.147     1201.322        0.681        0.368       77.525       35.136        0.205      344.719       21.738      866.079
04/08/2014  12:21:00      -60.244      203.873      -13.426       27.112       53.454       30.597      735.064     2857.369      936.202        2.495        0.226      212.588       29.104        0.019      344.018       20.536      866.059
04/08/2014  12:22:00      -26.347      115.508       -9.515       47.332      111.902       43.339     2240.299    12522.066     1878.303        1.538        0.832      118.475       55.968        0.223      344.341       21.090      866.053
04/08/2014  12:23:00      -42.761       70.245      -12.226       38.700       46.075       28.896     1497.656     2122.933      834.992        0.568        0.223       82.237       23.698        0.083      344.178       20.812      866.032
04/08/2014  12:24:00       34.812       55.976        2.817       34.629       52.355       31.226     1199.175     2741.003      975.071        0.463        0.246       65.918       26.066        0.156      344.320       21.055      866.001
04/08/2014  12:25:00       39.328      112.682       -9.511       56.944       47.896       39.718     3242.563     2294.061     1577.551        1.072        0.356      119.348       31.166        0.068      344.370       21.141      865.975
04/08/2014  12:26:00       83.275       63.211       11.276       65.134       40.110       33.731     4242.467     1608.810     1137.789        0.902        0.349      104.549        6.345        0.004      344.424       21.233      865.950
04/08/2014  12:27:00       71.471       81.851       56.988       84.913       58.616       56.458     7210.227     3435.858     3187.489        1.444        0.692      108.663       55.648        0.262      344.762       21.809      865.941
04/08/2014  12:28:00      105.424       64.854       22.701      104.083       91.885       56.890    10833.340     8442.788     3236.439        1.917        1.126      123.775       31.000        0.063      344.415       21.216      865.917
04/08/2014  12:29:00       47.503      -25.606       44.449       65.629       72.243       48.752     4307.231     5219.045     2376.797        0.839        0.595       53.965       43.899        0.662      344.126       20.725      865.914
04/08/2014  12:30:00       51.924      -57.521       -2.926       57.723       87.896       49.028     3331.938     7725.784     2403.706        0.973        0.673       77.490       39.557        0.261      344.366       21.134      865.889
04/08/2014  12:31:00       20.312       16.413       40.652       35.826       42.825       29.162     1283.492     1833.991      850.427        0.315        0.198       26.115       16.783        0.413      344.891       22.033      865.873
04/08/2014  12:32:00       78.683       32.771       50.812       61.550       81.819       45.657     3788.373     6694.426     2084.553        1.120        0.628       85.235       41.882        0.241      344.367       21.137      865.851
04/08/2014  12:33:00       83.544     -117.298       13.873       90.131       91.231       64.380     8123.676     8323.017     4144.728        2.076        1.030      144.008       60.394        0.176      344.472       21.314      865.819
04/08/2014  12:34:00       84.000       49.461       99.827      112.320       86.811       69.714    12615.798     7536.217     4859.984        2.223        1.251       97.480       74.902        0.590      344.533       21.418      865.811
04/08/2014  12:35:00       98.692       26.572       44.051       84.437       61.843       49.237     7129.601     3824.571     2424.286        1.288        0.669      102.206       36.549        0.128      344.604       21.542      865.820
04/08/2014  12:36:00      122.150      134.634      158.336      105.169      113.163       87.704    11060.531    12805.951     7692.065        4.483        1.578      181.788       76.196        0.176      344.269       20.965      865.798
04/08/2014  12:37:00      117.832       24.777       83.152       86.116       88.541       64.909     7415.924     7839.439     4213.171        2.044        0.973      120.409       66.578        0.306      344.077       20.639      865.815
04/08/2014  12:38:00       74.193     -208.096      -33.338       73.995       78.113       46.671     5475.273     6101.622     2178.201        3.183        0.688      220.927       49.169        0.050      344.237       20.910      865.803
04/08/2014  12:39:00       93.575     -117.073       18.030       70.531      146.505       69.721     4974.601    21463.612     4861.032        2.704        1.565      149.875       73.118        0.238      344.679       21.667      865.780
04/08/2014  12:40:00       35.865       28.667       71.031       61.395       55.146       40.026     3769.359     3041.084     1602.078        0.778        0.421       45.914       34.564        0.567      344.532       21.419      865.785
04/08/2014  12:41:00      -11.041      -25.166       14.745       21.434       32.636       25.041      459.436     1065.124      627.036        0.156        0.108       27.482       14.525        0.279      344.633       21.590      865.767
04/08/2014  12:42:00      -21.858       11.853       20.996       29.889       31.735       28.161      893.378     1007.132      793.033        0.188        0.135       24.865       18.694        0.565      344.933       22.104      865.722
04/08/2014  12:43:00      138.479     -150.495        0.309       97.214       53.574       48.547     9450.556     2870.221     2356.832        2.825        0.734      204.512       47.561        0.054      344.351       21.105      865.685
04/08/2014  12:44:00       34.948      -72.872       31.415       56.621       76.024       49.841     3205.982     5779.696     2484.100        0.949        0.573       80.819       36.884        0.208      344.819       21.909      865.667
04/08/2014  12:45:00       96.176     -134.288      -21.870       76.910       90.876       57.783     5915.155     8258.396     3338.835        2.263        0.876      165.176       62.633        0.144      344.516       21.389      865.665
04/08/2014  12:46:00       78.010     -115.676      -27.545       74.851       93.499       51.621     5602.737     8742.149     2664.742        1.861        0.850      139.523       56.803        0.166      344.592       21.518      865.654
04/08/2014  12:47:00       88.626     -144.016      -21.036       61.882       74.429       52.325     3829.396     5539.705     2737.868        2.057        0.605      169.101       40.156        0.056      344.661       21.637      865.646
04/08/2014  12:48:00       38.465      -92.587       -3.901       67.957       61.299       40.902     4618.105     3757.607     1673.001        1.006        0.502      100.259       36.854        0.135      344.747       21.786      865.634
04/08/2014  12:49:00        8.999      -85.331        0.007       47.685       65.639       37.770     2273.834     4308.521     1426.586        0.768        0.400       85.804       31.095        0.131      345.045       22.294      865.627
04/08/2014  12:50:00       23.425        5.378       40.434       53.044       60.662       34.741     2813.664     3679.878     1206.968        0.496        0.385       24.035       28.990        1.455      344.985       22.193      865.599
04/08/2014  12:51:00       73.985       46.726       69.116      102.773       67.126       59.477    10562.286     4505.908     3537.551        1.552        0.930       87.505       56.487        0.417      344.725       21.747      865.571
04/08/2014  12:52:00        4.447        6.407       40.865       42.585       59.178       53.519     1813.490     3502.010     2864.273        0.495        0.409        7.799       48.045       37.949      344.647       21.614      865.567
04/08/2014  12:53:00        6.112      -85.301        3.753       66.191      106.396       57.930     4381.287    11320.073     3355.837        1.319        0.953       85.519       47.877        0.313      344.862       21.982      865.569
04/08/2014  12:54:00       46.842     -123.996        6.692       94.661      110.788       84.273     8960.721    12273.900     7101.932        2.297        1.417      132.549       80.771        0.371      344.770       21.822      865.547
04/08/2014  12:55:00       27.395       30.700       72.780       67.012       80.065       64.090     4490.592     6410.384     4107.504        1.100        0.750       41.146       55.868        1.844      344.691       21.689      865.526
04/08/2014  12:56:00       20.169       -6.962       11.094       30.576       52.152       29.043      934.913     2719.826      843.484        0.254        0.225       21.337       28.728        1.813      344.353       21.112      865.514
04/08/2014  12:57:00       34.709       22.524        7.474       21.941       32.965       28.487      481.412     1086.692      811.508        0.207        0.119       41.377       15.949        0.149      344.556       21.460      865.485
04/08/2014  12:58:00       48.014       34.221       46.505       59.279      104.013       58.424     3513.965    10818.716     3413.341        1.169        0.887       58.962       64.078        1.181      344.664       21.645      865.440
04/08/2014  12:59:00       33.156      -30.535       39.079       57.886       67.932       49.952     3350.808     4614.805     2495.188        0.701        0.523       45.075       47.385        1.105      344.681       21.671      865.435
04/08/2014  13:00:00       22.268      -55.442        3.315       60.537       68.159       41.084     3664.699     4645.693     1687.895        0.679        0.500       59.747       35.840        0.360      344.509       21.377      865.430
04/08/2014  13:01:00       68.368     -127.128      -14.989       83.752      104.524       57.750     7014.419    10925.359     3335.041        2.116        1.064      144.346       61.273        0.180      344.855       21.967      865.413
04/08/2014  13:02:00      130.390     -168.645      -21.116      108.778      134.149       80.067    11832.721    17995.922     6410.779        4.106        1.812      213.173       91.393        0.184      344.737       21.765      865.387
04/08/2014  13:03:00       -6.501       80.025      122.804       52.012       63.912       57.570     2705.261     4084.701     3314.356        1.581        0.505       80.289       52.695        0.431      344.928       22.095      865.399
04/08/2014  13:04:00       19.792      -54.244       16.091       39.179       48.615       33.755     1535.019     2363.374     1139.415        0.431        0.252       57.742       26.269        0.207      344.991       22.204      865.410
04/08/2014  13:05:00       30.338       18.058       37.347       39.869       65.382       35.859     1589.557     4274.857     1285.861        0.489        0.358       35.306       35.704        1.023      344.857       21.972      865.394
04/08/2014  13:06:00       18.382      -28.501       24.709       43.212       72.158       39.292     1867.239     5206.840     1543.870        0.519        0.431       33.915       41.846        1.522      344.822       21.914      865.380
04/08/2014  13:07:00       50.097     -185.999        3.426       76.450       89.963       60.039     5844.624     8093.280     3604.703        2.733        0.877      192.628       56.911        0.087      344.945       22.121      865.354
04/08/2014  13:08:00       38.173     -154.343      -12.642       65.722       42.681       53.832     4319.428     1821.670     2897.921        1.724        0.452      158.993       31.831        0.040      345.075       22.345      865.375
04/08/2014  13:09:00      -59.801     -106.203      -25.744       98.439       63.014       37.334     9690.297     3970.815     1393.812        1.528        0.753      121.881       13.090        0.012      344.891       22.030      865.380
04/08/2014  13:10:00       -0.714      -27.794       10.073       72.245       72.101       43.033     5219.302     5198.612     1851.839        0.657        0.613       27.803       38.626        1.930      344.878       22.010      865.371
04/08/2014  13:11:00      -17.409      -57.615       -2.624       72.627       54.035       34.935     5274.688     2919.742     1220.476        0.652        0.471       60.188       21.639        0.129      345.048       22.300      865.373
04/08/2014  13:12:00      -52.050      -56.254        8.104       66.886       70.122       33.542     4473.786     4917.089     1125.050        0.823        0.526       76.640       36.745        0.230      345.195       22.552      865.388
04/08/2014  13:13:00       12.391      -71.463        8.959       68.411      109.568       53.554     4680.023    12005.145     2868.023        1.244        0.978       72.529       63.721        0.772      345.352       22.820      865.381
04/08/2014  13:14:00      -19.044     -156.342      -11.564      102.232       92.887       34.818    10451.429     8628.041     1212.262        2.261        1.015      157.498       30.964        0.039      344.715       21.727      865.375
04/08/2014  13:15:00       97.639      -75.954       -8.284       60.908       71.799       48.013     3709.793     5155.041     2305.276        1.327        0.559      123.702       51.912        0.176      344.797       21.870      865.351
04/08/2014  13:16:00       39.966      -59.214       39.784       63.320       96.133       55.245     4009.376     9241.531     3052.054        1.149        0.815       71.439       58.371        0.668      345.223       22.599      865.312
04/08/2014  13:17:00      109.550      -78.468        2.660       80.281       93.582       75.204     6445.011     8757.546     5655.638        1.951        1.043      134.753       70.900        0.277      344.950       22.130      865.315
04/08/2014  13:18:00       90.834     -173.221      -19.893       79.304      118.659       61.362     6289.128    14079.910     3765.241        3.139        1.207      195.592       68.784        0.124      344.587       21.507      865.311
04/08/2014  13:19:00       28.102      -53.245       17.744       41.426       59.954       35.535     1716.123     3594.509     1262.725        0.526        0.329       60.206       31.791        0.279      344.916       22.075      865.275
04/08/2014  13:20:00       61.020      -33.489       27.324       54.102       67.183       44.977     2927.063     4513.585     2022.917        0.753        0.473       69.606       36.886        0.281      344.794       21.864      865.239
04/08/2014  13:21:00       78.593       89.481       42.704       42.829       32.616       42.794     1834.286     1063.815     1831.294        1.037        0.236      119.095       30.475        0.065      344.474       21.319      865.205
04/08/2014  13:22:00        3.083       21.892       -7.999       30.738       26.340       23.806      944.828      693.801      566.715        0.138        0.110       22.109        7.010        0.101      345.084       22.362      865.193
04/08/2014  13:23:00       31.377      -12.980      -15.773       28.427       57.590       19.526      808.098     3316.583      381.248        0.295        0.225       33.956       16.360        0.232      344.643       21.607      865.193
04/08/2014  13:24:00       36.659        0.209        9.387       24.340       58.791       26.682      592.430     3456.355      711.946        0.310        0.238       36.660       17.291        0.222      344.625       21.578      865.187
04/08/2014  13:25:00       56.967       -4.721       -2.219       23.113       17.203       22.214      534.189      295.954      493.451        0.230        0.066       57.162       15.825        0.077      344.766       21.819      865.183
04/08/2014  13:26:00       33.888      -28.883       13.738       67.869       85.214       50.146     4606.224     7261.449     2514.640        0.827        0.719       44.527       33.187        0.555      345.404       22.910      865.151
04/08/2014  13:27:00      109.847       20.533       59.663       90.581       86.522       63.666     8204.923     7486.082     4053.345        1.789        0.987      111.749       54.630        0.239      345.142       22.460      865.128
04/08/2014  13:28:00       40.999       14.451       65.707       99.058      115.967       78.253     9812.465    13448.335     6123.503        1.779        1.469       43.471       76.634        3.108      345.132       22.444      865.102
04/08/2014  13:29:00        5.955       63.105       97.027       63.578      100.682       75.948     4042.195    10136.901     5768.095        1.669        0.997       63.385       73.638        1.350      345.256       22.656      865.083
04/08/2014  13:30:00       50.858      -72.871       77.477       98.963      167.857      108.331     9793.577    28176.058    11735.555        3.179        2.485       88.864      110.424        1.544      345.263       22.666      865.033
04/08/2014  13:31:00      148.995     -245.013      -39.318      125.154      219.237       89.222    15663.633    48064.835     7960.526        7.772        3.584      286.759      114.222        0.159      344.974       22.171      864.998
04/08/2014  13:32:00       53.417       98.625      150.011       89.845      119.966       90.954     8072.210    14391.950     8272.621        3.290        1.537      112.162       76.808        0.469      345.194       22.548      865.018
04/08/2014  13:33:00      145.534       72.087       83.368      118.517      124.704       79.991    14046.300    15551.178     6398.604        3.465        1.800      162.409       69.809        0.185      345.125       22.430      865.008
04/08/2014  13:34:00       81.498       15.492      114.310      103.518      151.606      103.854    10715.950    22984.234    10785.616        3.221        2.224       82.958      108.691        1.717      345.136       22.448      865.001
04/08/2014  13:35:00      163.832     -119.169       21.782      113.713      152.250       95.259    12930.582    23180.189     9074.285        4.334        2.259      202.588      112.839        0.310      345.052       22.306      864.993
04/08/2014  13:36:00       90.154        3.994       44.647       69.667       63.066       55.382     4853.501     3977.349     3067.123        1.102        0.595       90.243       38.849        0.185      344.946       22.124      865.012
04/08/2014  13:37:00      105.032      -63.906       29.308       63.817      110.861       56.756     4072.563    12290.121     3221.287        1.778        0.979      122.946       59.463        0.234      344.848       21.957      865.022
04/08/2014  13:38:00       24.645      -27.454       13.617       67.479       85.230       51.740     4553.373     7264.191     2677.017        0.802        0.725       36.893       58.644        2.527      344.556       21.459      865.031
04/08/2014  13:39:00        1.108      -56.244       14.907       55.084       32.787       25.571     3034.294     1074.974      653.885        0.407        0.238       56.255       21.605        0.147      344.942       22.119      865.016
04/08/2014  13:40:00      -35.309      -66.595       -2.303       46.930       64.607       30.094     2202.425     4174.054      905.650        0.648        0.364       75.377       36.256        0.231      345.057       22.317      864.987
04/08/2014  13:41:00      -45.394      -58.811       -4.662       57.928       51.716       26.932     3355.697     2674.594      725.335        0.615        0.338       74.292       17.856        0.058      344.789       21.858      864.968
04/08/2014  13:42:00        3.506       27.981        3.381       36.535       23.652       29.963     1334.796      559.395      897.763        0.180        0.140       28.200        6.672        0.056      345.257       22.659      864.957
04/08/2014  13:43:00       12.632      -40.232      -16.460       43.958       97.576       36.586     1932.304     9521.146     1338.513        0.742        0.640       42.169       25.554        0.367      344.942       22.119      864.922
04/08/2014  13:44:00       43.985     -112.899       -4.065       64.093       82.673       51.104     4107.863     6834.839     2611.607        1.412        0.678      121.165       54.556        0.203      345.147       22.469      864.893
04/08/2014  13:45:00      -36.326      -25.450       -1.522       68.027       38.156       31.210     4627.643     1455.908      974.055        0.451        0.353       44.354       39.201        0.781      345.481       23.041      864.873
04/08/2014  13:46:00      -44.719       11.223       -6.950       35.826       32.683       27.853     1283.488     1068.156      775.794        0.265        0.156       46.105       20.288        0.194      345.480       23.040      864.865
04/08/2014  13:47:00       51.474       87.210       28.209       58.714       79.800       43.320     3447.292     6368.104     1876.647        1.137        0.585      101.268        8.350        0.007      345.232       22.616      864.855
04/08/2014  13:48:00      -19.298      -27.922      -12.516       57.460       36.839       30.007     3301.628     1357.096      900.428        0.343        0.278       33.943       27.685        0.665      345.195       22.553      864.868
04/08/2014  13:49:00      -66.504      -58.280       -8.214       50.392       41.024       24.945     2539.349     1682.947      622.256        0.636        0.242       88.427       21.421        0.059      345.110       22.407      864.868
04/08/2014  13:50:00      -41.850       36.673       14.934       89.804       39.429       30.032     8064.728     1554.666      901.950        0.692        0.526       55.645       41.361        0.553      345.230       22.612      864.846
04/08/2014  13:51:00       -5.892       51.468       15.948       56.063       40.598       28.587     3143.040     1648.235      817.226        0.427        0.280       51.805       27.465        0.281      345.697       23.413      864.830
04/08/2014  13:52:00      -23.080       14.779       -9.787       56.418       46.802       22.172     3182.990     2190.438      491.587        0.335        0.293       27.406       21.719        0.628      345.210       22.578      864.824
04/08/2014  13:53:00        5.725      -65.876        4.974       76.326      100.940       28.733     5825.653    10188.940      825.566        1.062        0.842       66.124       22.552        0.116      345.424       22.944      864.798
04/08/2014  13:54:00     -193.116      -79.943       -8.181       69.422       65.174       38.539     4819.448     4247.603     1485.218        2.715        0.528      209.009       34.617        0.027      345.440       22.968      864.796
04/08/2014  13:55:00     -382.506       -5.808      -27.146      132.065      104.526       61.632    17441.119    10925.661     3798.498        8.962        1.608      382.550       66.872        0.031      345.073       22.339      864.797
04/08/2014  13:56:00     -145.283      -22.780        8.854      131.804      101.634       60.128    17372.325    10329.409     3615.351        2.650        1.566      147.058       58.381        0.158      345.606       23.254      864.772
04/08/2014  13:57:00     -271.345     -105.575       -7.669      155.286      105.726       55.391    24113.833    11178.012     3068.177        6.159        1.918      291.161       53.778        0.034      345.195       22.551      864.758
04/08/2014  13:58:00     -268.892     -127.122        1.613      140.382      145.826       72.136    19707.049    21265.232     5203.634        6.731        2.309      297.427       70.290        0.056      345.307       22.740      864.731
04/08/2014  13:59:00     -271.524     -133.296      -19.834      123.077      140.783       71.682    15147.972    19819.910     5138.355        6.599        2.005      302.478       76.580        0.064      344.926       22.089      864.743
04/08/2014  14:00:00     -264.765      -57.446      -16.401      149.185      110.068       55.129    22256.167    12114.925     3039.182        5.553        1.871      270.926       59.736        0.049      345.278       22.691      864.699
04/08/2014  14:01:00     -188.671       20.409        3.236      131.894       81.737       60.053    17396.088     6680.892     3606.319        3.185        1.384      189.771       65.564        0.119      345.629       23.293      864.688
04/08/2014  14:02:00     -376.259      -34.071      -28.633      156.381      118.195       67.401    24455.062    13970.100     4542.838        9.325        2.148      377.799       57.886        0.023      345.493       23.060      864.680
04/08/2014  14:03:00     -380.751     -117.861      -10.134      212.219      111.219       73.283    45036.771    12369.765     5370.396       11.086        3.139      398.575       91.392        0.053      345.216       22.584      864.667
04/08/2014  14:04:00      -93.880      -69.854        5.704       80.574      109.385       57.538     6492.188    11965.017     3310.650        1.774        1.088      117.017       47.274        0.163      345.251       22.647      864.650
04/08/2014  14:05:00      -21.417      -23.475       18.479       76.201       32.610       35.522     5806.569     1063.434     1261.839        0.474        0.407       31.777       39.813        1.570      345.614       23.270      864.608
04/08/2014  14:06:00        4.357       65.307       -3.197       79.747       46.938       40.694     6359.620     2203.187     1655.962        0.725        0.511       65.452       32.677        0.249      345.717       23.447      864.606
04/08/2014  14:07:00     -178.490       33.164      -24.497       77.408       59.428       36.103     5991.938     3531.636     1303.457        2.219        0.541      181.545       36.936        0.041      345.183       22.530      864.599
04/08/2014  14:08:00     -231.960      -94.955       -9.851      115.726      100.456       55.424    13392.397    10091.368     3071.827        4.473        1.328      250.643       55.387        0.049      345.507       23.082      864.633
04/08/2014  14:09:00     -300.917     -158.013        8.735      187.393      173.639       84.126    35116.316    30150.330     7077.232        9.396        3.617      339.881       88.026        0.067      345.282       22.699      864.625
04/08/2014  14:10:00     -319.653     -219.580        2.469      172.751      117.558       86.059    29842.742    13819.768     7406.235       10.072        2.553      387.806       94.332        0.059      345.189       22.538      864.555
04/08/2014  14:11:00     -258.622     -163.827       -3.710      186.182      111.685       87.733    34663.853    12473.540     7696.993        7.428        2.742      306.145      101.457        0.110      345.504       23.079      864.554
04/08/2014  14:12:00     -319.263      -68.349      -14.551      150.331      143.766       74.200    22599.553    20668.768     5505.598        7.778        2.439      326.497       65.709        0.041      345.525       23.113      864.583
04/08/2014  14:13:00     -352.074      -88.344      -18.568      149.483       99.547       53.598    22345.205     9909.677     2872.706        8.361        1.756      362.988       58.089        0.026      345.014       22.239      864.578
04/08/2014  14:14:00     -274.365      -78.801        7.876      124.378      101.649       70.570    15469.780    10332.494     4980.132        5.616        1.539      285.457       66.911        0.055      345.187       22.535      864.571
04/08/2014  14:15:00     -263.314     -103.360      -26.496      134.136      140.166       74.177    17992.458    19646.398     5502.222        6.192        2.157      282.874       69.156        0.060      345.362       22.835      864.562
04/08/2014  14:16:00     -198.766     -153.534        8.518      140.345      105.592       69.111    19696.850    11149.579     4776.386        4.938        1.781      251.158       61.560        0.060      345.382       22.870      864.548
04/08/2014  14:17:00     -215.333     -155.600      -13.424      155.376      106.686       68.607    24141.653    11381.911     4706.899        5.549        2.012      265.669       64.139        0.058      345.422       22.938      864.491
04/08/2014  14:18:00     -341.047      -95.484       -0.637      203.239      153.639       74.469    41306.066    23605.024     5545.571        9.793        3.523      354.161       71.883        0.041      345.593       23.230      864.498
04/08/2014  14:19:00     -619.579     -139.477      -19.980      256.950      188.622       92.246    66023.552    35578.105     8509.340       25.690        5.506      635.084      106.333        0.028      345.207       22.569      864.466
04/08/2014  14:20:00     -622.692      -74.258      -34.031      283.250      168.729       89.420    80230.576    28469.349     7995.968       25.553        5.835      627.104      117.722        0.035      345.322       22.767      864.399
04/08/2014  14:21:00     -525.891     -155.709      -27.811      235.048      206.868       91.533    55247.703    42794.342     8378.378       20.398        5.321      548.459      110.951        0.041      345.684       23.388      864.438
04/08/2014  14:22:00     -620.132     -261.104      -18.201      249.636      230.425       97.370    62318.226    53095.828     9480.894       28.896        6.245      672.859       93.517        0.019      345.184       22.528      864.496
04/08/2014  14:23:00     -460.680     -302.449      -13.187      222.055      149.854      107.822    49308.433    22456.162    11625.559       19.362        4.170      551.091      111.208        0.041      345.205       22.565      864.523
04/08/2014  14:24:00     -300.215     -180.323        4.264      188.895      173.125       90.223    35681.503    29972.165     8140.233        9.821        3.690      350.208      101.580        0.084      345.382       22.868      864.518
04/08/2014  14:25:00      -70.066     -111.851       29.305      154.848       90.479       75.785    23977.844     8186.377     5743.307        2.809        1.895      131.984       81.093        0.377      345.587       23.222      864.515
04/08/2014  14:26:00     -114.032      -84.115       10.767       87.516       77.261       51.496     7659.042     5969.281     2651.849        1.823        0.814      141.699       46.967        0.110      345.651       23.332      864.495
04/08/2014  14:27:00     -274.561     -140.721        1.001      175.462      107.782       58.320    30786.833    11616.865     3401.264        7.049        2.290      308.522       70.030        0.052      345.443       22.974      864.456
04/08/2014  14:28:00     -157.800      -76.077        5.385      101.217      132.686       50.709    10244.965    17605.567     2571.408        3.056        1.521      175.182       51.391        0.086      345.513       23.096      864.419
04/08/2014  14:29:00     -273.754       -4.170      -18.312      145.225      119.976       59.615    21090.445    14394.242     3554.007        5.716        1.952      273.785       62.548        0.052      345.443       22.971      864.414
04/08/2014  14:30:00     -161.592      -11.161       14.714      222.879      132.601       79.424    49675.135    17583.090     6308.111        4.999        3.678      161.977       91.504        0.319      345.785       23.562      864.381
04/08/2014  14:31:00     -457.900     -160.036       -4.996      179.242      168.247       73.633    32127.856    28307.081     5421.862       15.057        3.293      485.061       72.823        0.023      345.473       23.025      864.369
04/08/2014  14:32:00     -290.838      -56.689        0.111      160.984      132.971       65.140    25915.904    17681.217     4243.185        6.781        2.392      296.311       80.279        0.073      345.625       23.286      864.364
04/08/2014  14:33:00     -347.814      -70.845      -21.918      161.657      142.038       68.314    26132.934    20174.785     4666.811        8.871        2.549      354.956       58.703        0.027      345.716       23.441      864.334
04/08/2014  14:34:00     -431.658      -35.415      -27.539      143.873      134.495       86.898    20699.561    18088.938     7551.296       11.733        2.317      433.108       88.059        0.041      345.838       23.651      864.339
04/08/2014  14:35:00     -290.135       72.759       -6.350      188.849      142.711       88.618    35663.974    20366.363     7853.092        7.669        3.194      299.119       93.456        0.098      345.817       23.615      864.307
04/08/2014  14:36:00     -308.577     -179.994       -8.495      181.914      159.799       81.217    33092.657    25535.833     6596.120        9.644        3.261      357.236       86.892        0.059      345.865       23.698      864.316
04/08/2014  14:37:00     -302.986     -150.821        4.345      211.401      168.988       90.389    44690.422    28557.090     8170.196        9.798        4.071      338.448      102.338        0.091      345.888       23.737      864.270
04/08/2014  14:38:00     -129.879        7.764        1.543      112.151       81.643       56.958    12577.877     6665.581     3244.183        1.971        1.124      130.111       55.033        0.179      346.209       24.291      864.283
04/08/2014  14:39:00     -625.389     -161.607      -45.883      230.712      205.662       91.874    53227.957    42297.009     8440.914       26.163        5.198      645.932       78.327        0.015      345.617       23.272      864.258
04/08/2014  14:40:00     -439.055     -109.480       -3.004      190.848      218.300       96.230    36422.817    47654.950     9260.190       14.903        4.667      452.498       91.397        0.041      345.717       23.444      864.253
04/08/2014  14:41:00     -487.080      -98.894      -20.632      174.245      187.629       98.359    30361.407    35204.745     9674.435       16.133        3.762      497.018       92.534        0.035      345.688       23.393      864.227
04/08/2014  14:42:00     -543.493     -130.277      -27.300      210.374      137.243       86.819    44257.235    18835.587     7537.509       19.185        3.532      558.889      103.757        0.034      345.580       23.210      864.235
04/08/2014  14:43:00     -151.731      -10.856       19.445      156.783      115.455       74.010    24580.812    13329.752     5477.488        3.344        2.169      152.119       84.268        0.307      346.005       23.939      864.245
04/08/2014  14:44:00     -640.125     -112.331      -28.142      256.550      184.565      105.595    65818.003    34064.295    11150.366       26.708        5.552      649.907      118.795        0.033      345.511       23.090      864.193
04/08/2014  14:45:00     -669.217      -36.111      -21.316      240.285      182.117      112.869    57737.001    33166.576    12739.448       27.661        5.182      670.191      129.215        0.037      345.327       22.775      864.160
04/08/2014  14:46:00     -444.234      -33.174      -13.583      207.205      151.593       86.067    42933.801    22980.363     7407.538       13.596        3.666      445.471       94.585        0.045      345.624       23.284      864.176
04/08/2014  14:47:00     -668.336     -128.132      -27.068      234.361      177.487      101.363    54925.073    31501.470    10274.462       28.024        4.835      680.508      111.691        0.027      345.317       22.758      864.230
04/08/2014  14:48:00     -442.294      -57.561      -14.236      194.406      146.303       74.438    37793.576    21404.625     5541.088       13.193        3.237      446.023       83.181        0.035      345.472       23.023      864.266
04/08/2014  14:49:00     -380.721      -98.869        0.078      218.550      127.569       83.046    47764.038    16273.811     6896.721       11.281        3.547      393.349       99.167        0.064      345.502       23.074      864.247
04/08/2014  14:50:00     -449.344     -118.643      -33.987      232.557      159.461       86.440    54082.745    25427.766     7471.901       15.204        4.349      464.743       93.906        0.041      345.358       22.828      864.246
04/08/2014  14:51:00     -429.363      -31.613       -9.552      219.340      155.621       83.324    48110.116    24217.850     6942.960       13.234        3.964      430.525       96.621        0.050      345.470       23.020      864.239
04/08/2014  14:52:00     -493.329      -82.865       -9.409      234.395      190.003       86.500    54940.850    36101.278     7482.191       17.441        4.926      500.240       93.320        0.035      345.360       22.829      864.230
04/08/2014  14:53:00     -344.764      -97.058      -13.469      208.855      148.100       79.269    43620.427    21933.606     6283.522       10.014        3.592      358.165       90.467        0.064      345.367       22.843      864.240
04/08/2014  14:54:00     -529.526      -93.956      -23.391      214.294      153.627       93.241    45921.849    23601.200     8693.900       18.398        3.911      537.797       99.425        0.034      345.295       22.720      864.204
04/08/2014  14:55:00     -569.127     -213.015      -11.397      249.851      143.775       79.128    62425.771    20671.342     6261.199       22.937        4.468      607.685      100.805        0.028      345.216       22.584      864.167
04/08/2014  14:56:00     -381.369     -130.384       -0.396      263.108      116.995       89.704    69225.820    13687.714     8046.859       12.668        4.548      403.041      115.229        0.082      345.516       23.099      864.131
04/08/2014  14:57:00     -349.300      -32.163       -4.713      188.765      131.710       74.353    35632.310    17347.652     5528.297        9.078        2.925      350.778       81.884        0.054      345.664       23.352      864.133
04/08/2014  14:58:00     -320.851      -61.646      -11.708      150.317      129.903       60.593    22595.310    16874.744     3671.460        7.500        2.157      326.720       51.279        0.025      345.654       23.336      864.124
04/08/2014  14:59:00     -336.989     -270.279       -2.288      202.869      151.275       86.283    41155.769    22884.051     7444.749       12.904        3.574      431.987       95.073        0.048      345.373       22.853      864.124
04/08/2014  15:00:00     -416.782     -296.808      -18.343      258.405      200.137      108.383    66773.092    40054.676    11746.925       19.033        5.929      511.666      136.830        0.072      345.282       22.698      864.084
04/08/2014  15:01:00     -361.074     -171.003      -17.581      302.709      172.915       92.291    91632.949    29899.569     8517.662       14.496        6.503      399.520      129.732        0.105      345.305       22.737      864.105
04/08/2014  15:02:00     -331.376     -238.142       -1.979      223.063      187.029       88.619    49756.885    34979.979     7853.367       12.954        4.630      408.071      103.972        0.065      345.239       22.624      864.105
04/08/2014  15:03:00     -266.468     -182.313        5.730      237.940      139.009       82.186    56615.611    19323.508     6754.506        9.347        4.135      322.867       97.922        0.092      345.479       23.035      864.047
04/08/2014  15:04:00     -101.093     -166.065       31.561      165.188      145.242       73.836    27287.008    21095.278     5451.784        4.630        2.692      194.415       79.963        0.169      345.711       23.434      864.036
04/08/2014  15:05:00     -219.174     -128.139       -1.910      131.355       92.935       60.381    17254.176     8636.861     3645.892        4.699        1.477      253.883       54.783        0.047      345.991       23.914      864.038
04/08/2014  15:06:00     -484.712     -269.014      -25.912      256.347      172.973      109.327    65713.591    29919.784    11952.324       20.776        5.379      554.360      100.141        0.033      345.570       23.192      864.025
04/08/2014  15:07:00     -385.333     -229.162       -8.637      255.704      231.148      127.759    65384.685    53429.383    16322.475       16.808        6.757      448.326      140.121        0.098      345.477       23.033      864.033
04/08/2014  15:08:00     -510.267     -322.027       -8.358      295.150      170.964      121.135    87113.654    29228.709    14673.696       24.755        6.551      603.385      136.854        0.051      345.325       22.771      864.034
04/08/2014  15:09:00     -465.644     -261.120       -9.422      219.448      153.122       90.871    48157.340    23446.459     8257.508       18.246        3.993      533.861       96.015        0.032      345.403       22.906      864.069
04/08/2014  15:10:00     -238.996     -203.983        7.979      179.319      163.303      113.322    32155.344    26667.745    12841.768        8.521        3.583      314.211      117.252        0.139      345.587       23.221      864.104
04/08/2014  15:11:00     -376.615     -261.505       -2.950      205.495      190.467      104.782    42228.048    36277.684    10979.356       14.984        4.474      458.501      117.213        0.065      345.293       22.717      864.090
04/08/2014  15:12:00     -463.237     -175.366      -10.580      198.785      162.064       87.329    39515.630    26264.641     7626.350       15.942        3.670      495.320       95.610        0.037      345.253       22.648      864.111
04/08/2014  15:13:00     -224.720      -73.017        5.147      179.918      142.434       84.116    32370.596    20287.452     7075.566        5.778        2.987      236.285       82.947        0.123      345.394       22.891      864.064
04/08/2014  15:14:00     -527.247      -15.406      -37.324      156.559      223.138       79.435    24510.864    49790.541     6309.895       18.010        4.031      527.472       78.887        0.022      345.417       22.929      864.060
04/08/2014  15:15:00     -581.226     -213.796      -44.849      254.331      176.996       92.507    64684.212    31327.501     8557.496       24.504        5.228      619.300       87.128        0.020      345.188       22.537      863.981
04/08/2014  15:16:00     -419.917     -123.389       -3.960      202.975      131.066       85.248    41198.895    17178.279     7267.263       12.859        3.282      437.670       90.491        0.043      345.578       23.205      863.992
04/08/2014  15:17:00     -166.472      -71.852        5.615      174.185      115.944       68.894    30340.449    13443.119     4746.334        4.071        2.426      181.316       73.495        0.164      345.922       23.797      864.017
04/08/2014  15:18:00     -325.929       10.830      -10.515      197.282      140.364       95.105    38920.123    19702.050     9044.932        8.705        3.383      326.108      102.632        0.099      345.887       23.735      864.007
04/08/2014  15:19:00     -217.614      -12.124       11.184      164.373      130.832       83.904    27018.386    17116.955     7039.927        4.939        2.559      217.952       84.638        0.151      345.768       23.532      864.001
04/08/2014  15:20:00     -578.005     -111.591      -34.907      162.683      160.431       87.195    26465.790    25738.217     7602.902       20.377        2.990      588.679       70.276        0.014      345.556       23.168      863.983
04/08/2014  15:21:00     -556.956     -176.541      -15.592      307.324      210.978      109.154    94448.256    44511.580    11914.698       24.621        7.544      584.267      113.765        0.038      345.298       22.726      863.935
04/08/2014  15:22:00     -361.462     -171.366       -4.492      221.185      203.249      101.456    48922.881    41310.046    10293.408       13.026        5.026      400.026      107.156        0.072      345.458       23.000      863.938
04/08/2014  15:23:00     -457.270      -92.157      -19.932      298.300      194.807      105.168    88982.966    37949.707    11060.300       17.796        6.900      466.464      120.496        0.067      345.435       22.961      863.907
04/08/2014  15:24:00     -344.481      -17.737      -12.197      216.213      156.696       85.488    46748.163    24553.717     7308.155        9.885        3.931      344.937      102.956        0.089      345.803       23.591      863.886
04/08/2014  15:25:00     -234.312      -95.074       16.638      191.955      138.037       85.949    36846.702    19054.293     7387.299        6.374        3.164      252.866       95.614        0.143      345.857       23.685      863.895
04/08/2014  15:26:00     -221.912     -128.362       -6.217      218.119      212.574       95.924    47576.074    45187.720     9201.329        8.384        5.098      256.362      110.954        0.187      345.730       23.466      863.895
04/08/2014  15:27:00     -289.814     -197.058      -11.682      210.208      160.043       98.724    44187.312    25613.830     9746.454       10.124        3.977      350.462      116.440        0.110      345.648       23.325      863.904
04/08/2014  15:28:00     -259.776      -25.997       -1.362      174.202      127.335       71.793    30346.180    16214.246     5154.233        5.993        2.586      261.074       85.304        0.107      345.771       23.537      863.950
04/08/2014  15:29:00     -317.478      -25.498       -2.420      139.373      145.524       59.437    19424.863    21177.144     3532.751        7.278        2.207      318.500       52.650        0.027      345.567       23.187      863.942
04/08/2014  15:30:00     -462.298        1.678      -31.957      181.374      178.839       77.570    32896.365    31983.501     6017.090       14.281        3.545      462.301       78.708        0.029      345.487       23.048      863.935
04/08/2014  15:31:00     -544.566      -40.899      -29.657      181.525      231.882       82.092    32951.460    53769.130     6739.137       19.626        4.673      546.100       72.087        0.017      345.291       22.715      863.912
04/08/2014  15:32:00     -413.705     -179.999        0.869      188.538      209.390       84.004    35546.472    43844.063     7056.609       14.498        4.322      451.166       91.746        0.041      345.488       23.050      863.915
04/08/2014  15:33:00     -536.494     -120.453      -21.651      250.097      220.432       91.638    62548.504    48590.093     8397.604       21.115        5.977      549.850      111.500        0.041      345.344       22.804      863.923
04/08/2014  15:34:00     -455.730     -164.596      -19.005      246.037      151.687       95.288    60534.418    23008.845     9079.764       16.386        4.631      484.543      105.512        0.047      345.384       22.873      863.898
04/08/2014  15:35:00     -402.100     -183.520       -3.160      198.863      181.040       93.654    39546.487    32775.467     8771.117       13.822        4.055      442.000      101.580        0.053      345.408       22.914      863.877
04/08/2014  15:36:00     -354.273      -85.400       -3.819      192.770      139.552       79.561    37160.330    19474.790     6329.958        9.788        3.148      364.420       82.968        0.052      345.628       23.290      863.864
04/08/2014  15:37:00     -242.035     -120.656       12.828      199.017      138.788       81.891    39607.593    19262.084     6706.159        6.943        3.279      270.442       87.816        0.105      345.707       23.427      863.893
04/08/2014  15:38:00     -344.891     -178.569       -7.866      163.271      126.369       76.543    26657.384    15969.146     5858.892        9.968        2.424      388.378       77.628        0.040      345.620       23.277      863.843
04/08/2014  15:39:00     -508.834      -43.413      -31.707      234.335      187.213       86.016    54912.769    35048.596     7398.760       17.956        4.868      510.683       93.718        0.034      345.560       23.174      863.839
04/08/2014  15:40:00     -467.582     -145.230       -9.587      192.493      176.718       99.041    37053.606    31229.315     9809.179       15.894        3.905      489.617      107.753        0.048      345.318       22.760      863.846
04/08/2014  15:41:00     -476.347     -213.083      -11.446      197.927      119.323       72.942    39174.943    14237.904     5320.526       16.558        2.937      521.834       81.766        0.025      345.266       22.670      863.808
04/08/2014  15:42:00     -285.810      -68.872       -0.276      186.481      237.219       93.045    34775.336    56272.881     8657.378        9.305        4.985      293.991      110.752        0.142      345.414       22.925      863.785
04/08/2014  15:43:00     -290.048      -45.396      -15.730      198.109      163.247       75.966    39247.323    26649.629     5770.789        7.904        3.583      293.579       82.658        0.079      345.433       22.956      863.798
04/08/2014  15:44:00     -385.185     -138.988       -5.363      204.884      207.767      100.551    41977.384    43166.963    10110.419       13.147        4.763      409.494       92.150        0.051      345.514       23.094      863.798
04/08/2014  15:45:00     -209.303     -277.762       17.725      238.523      201.023      121.199    56893.377    40410.260    14689.259       11.661        5.600      347.793      134.728        0.150      345.425       22.942      863.785
04/08/2014  15:46:00     -476.872     -241.817      -22.015      166.479      176.755       96.763    27715.190    31242.436     9363.031       17.733        3.416      534.680       71.091        0.018      345.300       22.730      863.761
04/08/2014  15:47:00     -374.857      -35.544      -15.796      219.066      127.705       79.193    47990.123    16308.499     6271.600       10.629        3.529      376.539      100.666        0.071      345.464       23.010      863.797
04/08/2014  15:48:00     -367.611     -108.485       -8.062      180.116      106.918       71.033    32441.861    11431.422     5045.683        9.794        2.446      383.284       70.668        0.034      345.350       22.813      863.768
04/08/2014  15:49:00     -288.565     -174.970        1.073      119.759      102.757       68.216    14342.312    10558.982     4653.363        7.171        1.478      337.467       67.079        0.040      345.335       22.788      863.748
04/08/2014  15:50:00     -288.108      -49.017       -8.674      180.556      144.228       74.729    32600.408    20801.803     5584.493        7.222        2.949      292.248       76.435        0.068      345.568       23.188      863.744
04/08/2014  15:51:00     -367.395     -276.343       -8.602      186.371      170.851       84.975    34734.184    29190.193     7220.715       14.127        3.557      459.723       99.532        0.047      345.289       22.708      863.720
04/08/2014  15:52:00     -249.277      -92.321       23.147      162.937      134.298       75.774    26548.568    18036.016     5741.638        6.075        2.516      265.823       75.249        0.080      345.494       23.061      863.712
04/08/2014  15:53:00     -384.778      -27.640      -28.302      197.131       86.725       62.886    38860.542     7521.229     3954.601        9.997        2.517      385.770       73.891        0.037      345.378       22.862      863.685
04/08/2014  15:54:00     -476.936     -160.054       10.089      357.889      138.866      108.491   128084.499    19283.855    11770.397       20.613        7.957      503.076      149.239        0.088      345.539       23.140      863.686
04/08/2014  15:55:00     -420.620     -253.972      -14.864      206.975      178.500       93.401    42838.546    31862.349     8723.712       16.252        4.171      491.348       94.043        0.037      345.239       22.624      863.703
04/08/2014  15:56:00     -202.954     -142.248       25.081      222.175      164.354       97.892    49361.628    27012.300     9582.855        7.399        4.298      247.841      121.426        0.240      345.570       23.192      863.699
04/08/2014  15:57:00     -326.884     -123.195      -11.324      173.804      138.287       77.258    30207.898    19123.306     5968.723        8.872        2.765      349.328       62.007        0.032      345.541       23.142      863.661
04/08/2014  15:58:00     -495.171     -125.711      -11.574      209.865      164.269       88.072    44043.179    26984.318     7756.685       16.994        3.939      510.880       98.122        0.037      345.467       23.013      863.636
04/08/2014  15:59:00     -414.268     -213.792      -20.450      187.015      158.826       86.409    34974.492    25225.572     7466.519       14.269        3.383      466.181       88.882        0.036      345.565       23.183      863.631
04/08/2014  16:00:00     -379.010     -190.682       -9.831      162.343      166.223       79.143    26355.330    27629.955     6263.609       12.016        3.012      424.273       87.037        0.042      345.607       23.255      863.576
04/08/2014  16:01:00     -519.685     -279.084      -10.310      323.868      208.414      121.087   104890.740    43436.494    14662.167       25.549        8.149      589.881      148.869        0.064      345.515       23.099      863.580
04/08/2014  16:02:00     -379.869     -204.529      -19.457      203.890      160.389       90.715    41571.159    25724.605     8229.214       13.100        3.776      431.431       97.655        0.051      345.504       23.078      863.571
04/08/2014  16:03:00     -511.058     -229.840        8.130      327.679      234.060      125.151   107373.460    54784.202    15662.740       24.591        8.891      560.363      145.458        0.067      345.492       23.058      863.551
04/08/2014  16:04:00     -562.145     -229.010      -27.624      297.244      221.397      118.218    88353.847    49016.837    13975.446       26.025        7.567      607.003      133.535        0.048      345.379       22.863      863.607
04/08/2014  16:05:00     -414.893     -164.057        4.166      244.937      174.504      109.624    59993.906    30451.504    12017.356       15.075        5.123      446.151      131.781        0.087      345.427       22.947      863.643
04/08/2014  16:06:00     -524.212     -224.483      -36.678      245.497      192.683      102.158    60268.948    37126.924    10436.187       21.716        5.392      570.255      111.250        0.038      345.369       22.847      863.666
04/08/2014  16:07:00     -336.989      -79.460        0.961      148.861      121.891       68.704    22159.640    14857.430     4720.231        8.080        2.087      346.231       72.055        0.043      345.727       23.461      863.665
04/08/2014  16:08:00     -223.203     -133.569        1.171      109.034      118.490       54.724    11888.463    14039.883     2994.676        4.829        1.446      260.116       52.714        0.041      345.782       23.556      863.685
04/08/2014  16:09:00      -54.652        0.854        8.761       83.263       59.893       42.227     6932.739     3587.154     1783.111        0.768        0.615       54.658       37.967        0.482      346.071       24.054      863.648
04/08/2014  16:10:00     -445.058      -96.042       -3.683      240.413      168.760       94.871    57798.417    28479.836     9000.429       15.128        4.764      455.303      100.615        0.049      345.935       23.817      863.635
04/08/2014  16:11:00     -434.949     -138.387       -0.607      220.935      188.447      108.383    48812.314    35512.337    11746.851       15.218        4.804      456.434      112.453        0.061      345.528       23.119      863.620
04/08/2014  16:12:00     -526.473       91.998      -30.429      194.586      185.206       87.509    37863.579    34301.183     7657.829       18.318        3.991      534.451       87.682        0.027      345.423       22.939      863.617
04/08/2014  16:13:00     -505.891      -66.734      -35.383      202.748      230.351       86.215    41106.918    53061.472     7433.071       18.160        5.080      510.273       76.711        0.023      345.578       23.203      863.562
04/08/2014  16:14:00     -475.274     -147.590      -13.235      220.325      154.151       89.768    48543.281    23762.596     8058.313       16.409        4.018      497.662       98.860        0.039      345.637       23.306      863.561
04/08/2014  16:15:00     -633.636     -192.333       -3.954      234.574      206.422       99.749    55024.852    42610.080     9949.912       27.302        5.379      662.183      109.418        0.027      345.491       23.056      863.498
04/08/2014  16:16:00     -513.394      -95.689      -25.169      235.508      216.453       95.790    55463.988    46851.949     9175.670       19.241        5.575      522.235       84.794        0.026      345.531       23.125      863.520
04/08/2014  16:17:00     -572.127     -194.218      -28.126      267.759      218.989      112.827    71694.794    47956.335    12730.010       24.908        6.619      604.194      120.786        0.040      345.578       23.205      863.521
04/08/2014  16:18:00     -517.115     -285.192      -24.267      218.035      168.254       85.765    47539.225    28309.418     7355.559       21.625        4.160      590.544       97.902        0.027      345.535       23.132      863.583
04/08/2014  16:19:00     -467.923     -312.014       -2.181      213.267      192.632      105.947    45482.835    37107.251    11224.840       20.504        4.691      562.410      116.530        0.043      345.381       22.866      863.575
04/08/2014  16:20:00     -242.861     -105.663       15.253      241.951      131.447       86.738    58540.282    17278.189     7523.478        7.684        4.167      264.852      110.387        0.174      345.736       23.478      863.572
04/08/2014  16:21:00     -407.180     -163.438       15.734      292.202      205.730      113.038    85382.063    42324.885    12777.617       16.659        7.024      438.757      147.885        0.114      345.549       23.155      863.588
04/08/2014  16:22:00     -285.666     -216.001        9.580      189.907      163.251      106.752    36064.620    26650.735    11395.971       10.122        3.706      358.136      118.483        0.109      345.487       23.049      863.609
04/08/2014  16:23:00     -474.388     -302.791       -6.620      236.435      171.983      112.078    55901.286    29578.292    12561.479       20.739        4.902      562.784      120.576        0.046      345.221       22.592      863.601
04/08/2014  16:24:00     -264.165     -168.894       20.964      176.724      132.465       86.001    31231.321    17546.969     7396.231        7.745        2.809      313.542       88.117        0.079      345.259       22.658      863.611
04/08/2014  16:25:00      -46.015      -36.964       14.150      118.882       80.247       52.604    14133.006     6439.628     2767.145        1.351        1.167       59.023       51.808        0.770      345.615       23.270      863.608
04/08/2014  16:26:00     -116.787       -1.108        0.742      105.573       67.504       49.222    11145.714     4556.828     2422.796        1.588        0.906      116.792       40.934        0.123      345.602       23.248      863.598
04/08/2014  16:27:00     -178.896     -132.357       -8.258      137.243      111.020       64.820    18835.730    12325.446     4201.619        4.247        1.768      222.535       71.442        0.103      345.522       23.110      863.587
04/08/2014  16:28:00     -274.452     -139.992        3.721      202.273      130.275       76.388    40914.246    16971.605     5835.188        7.932        3.186      308.093       97.611        0.100      345.630       23.294      863.615
04/08/2014  16:29:00     -532.041      -66.989      -27.057      228.922      148.207       95.513    52405.379    21965.294     9122.742       18.587        4.175      536.242      107.519        0.040      345.405       22.910      863.605
04/08/2014  16:30:00     -377.340     -127.265      -10.517      161.965      178.250       85.447    26232.565    31773.108     7301.254       11.199        3.265      398.223       79.396        0.040      345.447       22.979      863.598
04/08/2014  16:31:00     -152.674     -106.055       34.423      218.884      151.690       93.950    47910.246    23009.758     8826.526        5.773        3.987      185.895      100.132        0.290      345.569       23.190      863.589
04/08/2014  16:32:00     -191.916     -152.051       34.987      232.479      205.420      116.813    54046.340    42197.547    13645.188        8.551        5.494      244.849      146.662        0.359      345.479       23.037      863.585
04/08/2014  16:33:00     -322.362      -63.238       -9.778      181.470      104.498       68.556    32931.262    10919.835     4699.936        7.827        2.428      328.506       71.499        0.047      345.549       23.155      863.649
04/08/2014  16:34:00     -342.383      -72.438       -6.773      156.620      144.448       73.432    24529.973    20865.356     5392.315        8.664        2.539      349.962       78.966        0.051      345.307       22.741      863.627
04/08/2014  16:35:00     -404.202      -96.041       -9.416      237.877      145.903       77.318    56585.306    21287.592     5978.106       12.825        4.193      415.456       84.619        0.041      345.499       23.070      863.637
04/08/2014  16:36:00     -444.410     -118.273      -29.524      165.571      131.170       79.331    27413.661    17205.492     6293.390       13.163        2.546      459.879       90.945        0.039      345.254       22.651      863.643
04/08/2014  16:37:00     -369.679      -81.427      -33.716      127.300      118.686       64.277    16205.173    14086.258     4131.522        8.942        1.721      378.541       43.805        0.013      345.277       22.690      863.652
04/08/2014  16:38:00     -284.023      -51.459      -12.509      133.133      118.326       58.039    17724.461    14001.160     3368.537        5.928        1.755      288.647       58.483        0.041      345.508       23.083      863.612
04/08/2014  16:39:00     -361.840     -135.959      -17.010      160.287      123.833       68.482    25691.813    15334.508     4689.847        9.770        2.286      386.540       83.282        0.046      345.365       22.840      863.621
04/08/2014  16:40:00     -554.435     -183.554      -52.001      186.665      117.745       71.388    34843.672    13863.914     5096.244       19.879        2.690      584.029       65.775        0.013      345.128       22.432      863.597
04/08/2014  16:41:00     -247.438     -113.208       11.196      139.147      121.604       72.617    19361.917    14787.426     5273.270        5.679        1.971      272.105       74.034        0.074      345.497       23.067      863.571
04/08/2014  16:42:00     -333.550       20.586       10.814      233.324      163.547      101.260    54440.211    26747.484    10253.529       10.160        4.572      334.185      124.732        0.139      345.575       23.198      863.575
04/08/2014  16:43:00     -477.388      -36.278      -22.527      151.559       98.848       60.720    22970.031     9770.855     3686.872       13.307        1.821      478.765       66.997        0.020      345.494       23.061      863.595
04/08/2014  16:44:00     -192.126      -65.243        2.782      142.488      111.764       56.985    20302.911    12491.235     3247.276        3.860        1.802      202.902       70.538        0.121      345.887       23.736      863.570
04/08/2014  16:45:00     -184.246      -31.928        0.635      176.707      102.937       57.358    31225.203    10595.995     3289.902        4.003        2.256      186.992       76.915        0.169      345.935       23.819      863.572
04/08/2014  16:46:00     -259.370     -109.154        6.883      168.503      128.678       80.063    28393.105    16558.089     6410.090        6.529        2.568      281.402       87.937        0.098      345.858       23.686      863.548
04/08/2014  16:47:00     -310.897     -176.647      -12.254      229.385      180.575       93.493    52617.502    32607.445     8740.955       11.097        4.698      357.577      116.847        0.107      345.334       22.787      863.559
04/08/2014  16:48:00     -421.007     -313.397      -10.014      243.413      190.064      116.427    59249.996    36124.255    13555.286       19.223        5.446      524.847      128.067        0.060      345.249       22.642      863.550
04/08/2014  16:49:00     -368.479     -209.416        4.710      221.670      138.535       81.975    49137.709    19192.041     6719.946       12.734        3.752      423.830      102.655        0.059      345.185       22.531      863.573
04/08/2014  16:50:00     -225.459      -25.912       -4.648      183.088      132.905       76.844    33521.123    17663.856     5904.944        5.430        2.854      226.943       82.443        0.132      345.495       23.062      863.563
04/08/2014  16:51:00     -362.089     -195.180        6.491      239.003      145.162       79.821    57122.439    21071.899     6371.385       12.689        4.228      411.344      102.010        0.062      345.347       22.810      863.589
04/08/2014  16:52:00     -315.622     -136.763       16.433      197.882      170.335       92.652    39157.098    29014.040     8584.304        9.766        3.838      343.979      110.246        0.103      345.371       22.851      863.541
04/08/2014  16:53:00     -387.367     -143.750       -7.186      215.787      132.184       90.483    46564.150    17472.710     8187.088       12.148        3.611      413.179      104.026        0.063      345.366       22.843      863.533
04/08/2014  16:54:00     -390.186     -112.662      -23.244      195.955      134.312       76.393    38398.452    18039.804     5835.877       11.386        3.114      406.126       87.072        0.046      345.499       23.068      863.534
04/08/2014  16:55:00     -267.598      -76.219        6.341      214.248      166.149       89.065    45902.029    27605.584     7932.619        7.943        4.072      278.241      110.430        0.158      345.523       23.110      863.551
04/08/2014  16:56:00     -527.647     -182.785      -35.610      177.084      237.729       93.955    31358.642    56514.921     8827.503       20.488        4.835      558.410       84.161        0.023      345.249       22.640      863.556
04/08/2014  16:57:00     -313.474     -195.989       -2.999      183.000      160.251       85.315    33488.838    25680.514     7278.641       10.155        3.322      369.700       91.395        0.061      345.260       22.661      863.565
04/08/2014  16:58:00     -243.098      -66.281       -6.665      123.781      131.212       71.695    15321.841    17216.653     5140.240        5.060        1.884      251.972       72.789        0.083      345.375       22.856      863.567
04/08/2014  16:59:00     -185.644      -19.977       11.130      126.860      109.037       66.752    16093.434    11889.173     4455.812        3.371        1.622      186.716       56.415        0.091      345.603       23.249      863.568
04/08/2014  17:00:00     -290.245     -132.446      -17.372      127.001      184.642       73.798    16129.303    34092.755     5446.148        7.887        2.783      319.036       56.806        0.032      345.439       22.967      863.533
04/08/2014  17:01:00     -216.140     -178.700       20.949      204.613      182.508      113.411    41866.618    33309.235    12861.971        8.355        4.402      280.446      119.219        0.181      345.500       23.073      863.477
04/08/2014  17:02:00     -370.729     -191.514      -10.894      193.029      166.072      101.580    37260.250    27580.010    10318.453       12.468        3.758      417.274      104.114        0.062      345.496       23.065      863.492
04/08/2014  17:03:00     -540.899     -185.784      -32.502      303.558      211.670       95.547    92147.335    44803.984     9129.237       23.708        7.304      571.916      108.422        0.036      345.400       22.899      863.508
04/08/2014  17:04:00     -529.321     -166.680      -25.260      190.686      179.472       94.921    36361.194    32210.231     9010.027       19.308        3.879      554.944       86.179        0.024      345.233       22.614      863.505
04/08/2014  17:05:00     -357.838      -54.121      -18.030      166.403      127.857       84.519    27689.911    16347.455     7143.472        9.123        2.559      361.907       85.466        0.056      345.481       23.038      863.524
04/08/2014  17:06:00     -429.383     -152.107        3.534      212.896      208.630       97.824    45324.875    43526.539     9569.610       15.295        4.921      455.529      110.045        0.058      345.278       22.691      863.521
04/08/2014  17:07:00     -481.134      -97.454      -23.147      209.700      166.877       80.593    43974.005    27848.087     6495.292       15.990        3.916      490.905       88.862        0.033      345.247       22.639      863.537
04/08/2014  17:08:00     -356.230      -39.846      -33.982      195.905      130.836       77.292    38378.607    17118.059     5974.002        9.554        3.074      358.452       88.588        0.061      345.433       22.956      863.529
04/08/2014  17:09:00     -350.930      -75.919      -10.275      206.928      165.034       69.719    42819.078    27236.185     4860.762       10.195        3.746      359.048       81.307        0.051      345.435       22.960      863.526
04/08/2014  17:10:00     -328.717      -95.250        1.179      215.945      162.773       91.821    46632.361    26494.896     8431.007        9.933        4.078      342.239      113.891        0.111      345.308       22.741      863.504
04/08/2014  17:11:00     -337.594     -242.631       -3.161      216.333      130.069      101.315    46799.912    16918.065    10264.763       12.340        3.699      415.740      107.027        0.066      345.281       22.696      863.504
04/08/2014  17:12:00     -410.931     -235.792        2.019      162.519      183.183       79.677    26412.293    33555.963     6348.444       14.538        3.316      473.774       81.274        0.029      345.211       22.577      863.509
04/08/2014  17:13:00     -231.977     -153.096       -2.972      124.476      119.223       63.697    15494.343    14214.110     4057.282        5.551        1.688      277.942       72.955        0.069      345.425       22.942      863.516
04/08/2014  17:14:00     -367.761     -231.271       -9.165      234.776      185.935      103.620    55119.789    34571.672    10737.009       14.460        5.021      434.436      103.739        0.057      345.402       22.902      863.517
04/08/2014  17:15:00     -496.623     -322.052       -6.643      245.868      178.300      112.363    60450.907    31790.900    12625.438       22.761        5.243      591.905      132.887        0.050      345.079       22.349      863.520
04/08/2014  17:16:00     -436.450     -184.272       -9.462      217.399      151.580       91.402    47262.496    22976.471     8354.402       15.155        3.930      473.756       93.561        0.039      345.211       22.576      863.547
04/08/2014  17:17:00     -340.488      -41.763       -4.972      212.396      191.363       85.980    45112.028    36619.909     7392.475       10.339        4.456      343.039       96.222        0.079      345.277       22.688      863.568
04/08/2014  17:18:00     -376.617      -51.788      -31.641      158.727      121.741       69.121    25194.119    14820.822     4777.656        9.515        2.240      380.161       71.060        0.035      345.121       22.421      863.580
04/08/2014  17:19:00     -171.376     -120.655       21.660      215.028      155.839       82.325    46236.918    24285.662     6777.423        6.083        3.865      209.589       95.854        0.209      345.503       23.079      863.546
04/08/2014  17:20:00     -199.906     -223.535        0.315      198.871      203.388      107.315    39549.571    41366.856    11516.586        9.116        4.622      299.884      121.131        0.163      345.264       22.668      863.532
04/08/2014  17:21:00     -286.515     -164.867        4.694      203.970      147.151       84.899    41603.562    21653.328     7207.816        8.987        3.523      330.563       92.932        0.079      345.123       22.425      863.545
04/08/2014  17:22:00     -285.464      -53.695       -1.890      185.633      134.289       81.312    34459.529    18033.562     6611.636        7.173        2.955      290.470       96.846        0.111      345.162       22.492      863.520
04/08/2014  17:23:00     -210.638      -71.058       12.106      126.700      107.870       60.906    16052.799    11635.866     3709.541        4.047        1.570      222.301       54.823        0.061      345.354       22.821      863.510
04/08/2014  17:24:00     -361.848      -37.628      -21.839      112.063       79.642       59.406    12558.169     6342.826     3529.031        7.762        1.122      363.799       52.141        0.021      345.268       22.673      863.507
04/08/2014  17:25:00     -349.897     -128.690       -9.942      155.802      135.681       70.738    24274.275    18409.364     5003.879        9.338        2.384      372.813       78.330        0.044      345.320       22.763      863.520
04/08/2014  17:26:00     -374.503     -129.612      -32.648      110.143       95.500       54.690    12131.458     9120.324     2991.046        9.118        1.212      396.298       41.575        0.011      345.159       22.486      863.511
04/08/2014  17:27:00     -446.852      -99.584      -23.832      179.442      198.225       75.856    32199.344    39293.091     5754.199       14.369        3.862      457.814       80.408        0.031      345.082       22.356      863.452
04/08/2014  17:28:00     -567.854     -220.288      -24.942      257.848      176.764       96.135    66485.819    31245.651     9242.012       23.927        5.349      609.085      109.523        0.032      345.038       22.280      863.380
04/08/2014  17:29:00     -517.822     -189.211       -5.319      192.266      158.703       82.667    36966.206    25186.624     6833.778       18.646        3.449      551.308       92.508        0.028      345.064       22.324      863.422
04/08/2014  17:30:00     -369.209     -214.495       -8.585      176.308      133.778       78.961    31084.432    17896.651     6234.821       11.880        2.761      426.993       80.953        0.036      345.114       22.410      863.478
04/08/2014  17:31:00     -325.327     -173.301       -4.778      177.460      192.330       83.880    31491.949    36990.687     7035.910       10.569        3.776      368.607       72.030        0.038      345.006       22.225      863.466
04/08/2014  17:32:00     -334.266     -265.435       -4.803      215.902      162.534      113.398    46613.677    26417.221    12859.047       13.403        4.294      426.837      124.829        0.086      345.048       22.297      863.471
04/08/2014  17:33:00     -341.499     -180.248      -14.986      152.921      130.458       86.214    23384.772    17019.213     7432.866        9.858        2.392      386.148       89.066        0.053      345.105       22.394      863.477
04/08/2014  17:34:00     -375.508     -145.035       -7.032      187.038      130.103       78.047    34983.304    16926.738     6091.400       11.003        2.900      402.544       84.024        0.044      345.037       22.277      863.476
04/08/2014  17:35:00     -533.264     -280.204      -16.483      226.194      170.145       93.287    51163.770    28949.233     8702.394       22.597        4.441      602.399      111.321        0.034      344.913       22.066      863.443
04/08/2014  17:36:00     -332.116     -226.206       -8.638      160.320      145.802       85.324    25702.518    21258.246     7280.147       10.788        2.712      401.833       84.493        0.044      345.002       22.218      863.417
04/08/2014  17:37:00     -167.941     -163.682       10.028      151.077      110.633       76.922    22824.294    12239.558     5917.048        4.803        2.049      234.512       79.976        0.116      345.124       22.427      863.429
04/08/2014  17:38:00     -303.692     -180.317       -3.767      190.695      119.269       72.497    36364.550    14224.983     5255.886        9.029        2.792      353.190       89.641        0.064      345.092       22.372      863.401
04/08/2014  17:39:00     -310.166     -148.037        0.203      152.451      124.312       70.723    23241.189    15453.508     5001.721        8.090        2.185      343.683       63.137        0.034      345.192       22.542      863.424
04/08/2014  17:40:00     -374.214     -185.057      -23.009      167.592      164.954       84.700    28087.225    27209.914     7174.034       11.863        3.124      417.471       84.405        0.041      344.976       22.173      863.394
04/08/2014  17:41:00     -362.566      -74.415      -25.450      151.551      138.826       64.684    22967.576    19272.646     4184.061        9.202        2.321      370.124       65.216        0.031      345.155       22.479      863.375
04/08/2014  17:42:00     -402.148      -64.692      -25.204      173.845      130.452       72.710    30222.039    17017.702     5286.690       10.952        2.626      407.318       82.159        0.041      345.062       22.321      863.371
04/08/2014  17:43:00     -310.194      -58.397        6.522      152.143      102.124       75.380    23147.574    10429.365     5682.167        6.946        1.963      315.643       85.037        0.073      345.088       22.365      863.356
04/08/2014  17:44:00     -143.220      -55.092       14.448      197.110      154.039       70.279    38852.536    23727.915     4939.188        4.562        3.376      153.451       93.242        0.369      345.120       22.422      863.343
04/08/2014  17:45:00     -357.744      -64.417      -27.543      212.619      122.068       72.968    45206.875    14900.486     5324.303        9.915        3.272      363.497       65.080        0.032      345.030       22.267      863.361
04/08/2014  17:46:00     -289.458      -65.160        0.252      216.050      136.083       73.778    46677.728    18518.511     5443.259        7.932        3.532      296.702       93.377        0.099      345.054       22.309      863.340
04/08/2014  17:47:00     -419.186      -59.563      -44.432      209.351      157.170       65.073    43827.799    24702.302     4234.488       12.699        3.638      423.397       64.747        0.023      345.000       22.217      863.298
04/08/2014  17:48:00     -350.510      -97.270        0.602      183.229      123.622       63.522    33572.746    15282.474     4035.065        9.259        2.645      363.757       68.723        0.036      345.090       22.371      863.304
04/08/2014  17:49:00     -331.234     -187.570       -8.052      210.167      187.803      100.141    44170.210    35269.948    10028.303       11.720        4.473      380.656       91.070        0.057      344.962       22.150      863.325
04/08/2014  17:50:00     -367.717     -260.203       -3.229      203.570      134.771       90.633    41440.857    18163.266     8214.308       13.536        3.391      450.468      107.985        0.057      344.823       21.912      863.298
04/08/2014  17:51:00     -346.060     -227.697       -7.869      171.339      140.905       83.413    29357.031    19854.192     6957.758       11.391        2.808      414.250       89.421        0.047      344.818       21.905      863.322
04/08/2014  17:52:00     -242.111     -102.934       -5.820      183.650      132.012       85.245    33727.246    17427.173     7266.651        6.382        2.921      263.084       90.102        0.117      344.936       22.107      863.330
04/08/2014  17:53:00     -551.348     -136.403      -34.120      214.440      198.086      102.176    45984.431    39238.237    10439.882       20.969        4.783      567.971      109.874        0.037      344.795       21.864      863.335
04/08/2014  17:54:00     -387.613     -141.439       -2.923      228.401      152.269       88.869    52167.036    23185.732     7897.665       12.674        4.163      412.612      110.883        0.072      344.775       21.830      863.356
04/08/2014  17:55:00     -361.445     -128.690        7.575      259.216      167.866       92.256    67193.083    28178.968     8511.234       12.555        5.194      383.671      110.610        0.083      344.755       21.796      863.352
04/08/2014  17:56:00     -333.841      -90.352       13.535      179.475      138.874       78.196    32211.294    19286.107     6114.610        8.869        2.881      345.852       85.746        0.061      344.801       21.874      863.379
04/08/2014  17:57:00     -327.030     -153.659       -5.678      189.923      173.661      104.872    36070.575    30158.027    10998.113       10.389        3.861      361.330      109.866        0.092      344.739       21.768      863.400
04/08/2014  17:58:00     -410.774     -127.226      -19.243      229.639      153.503       88.773    52734.170    23563.217     7880.635       13.472        4.209      430.025      107.083        0.062      344.749       21.784      863.395
04/08/2014  17:59:00     -457.872      -70.730      -18.492      182.019      140.296       85.889    33131.069    19683.035     7376.920       13.758        3.010      463.303       86.047        0.034      344.787       21.848      863.399
04/08/2014  18:00:00     -404.458      -67.742       -4.890      214.680      131.009       85.326    46087.433    17163.445     7280.443       11.935        3.527      410.092      102.900        0.063      344.731       21.755      863.409
04/08/2014  18:01:00     -422.344     -117.081      -17.467      195.128      162.622       70.934    38074.784    26445.753     5031.664       13.096        3.478      438.272       72.194        0.027      344.766       21.814      863.419
04/08/2014  18:02:00     -402.181     -159.238      -14.802      233.236      180.119       87.649    54398.930    32442.944     7682.392       14.091        4.726      432.558      106.164        0.060      344.721       21.738      863.413
04/08/2014  18:03:00     -362.838     -251.534       -9.251      172.937      202.700       80.548    29907.372    41087.455     6488.009       13.623        3.874      441.499       90.262        0.042      344.733       21.757      863.431
04/08/2014  18:04:00     -250.270       -8.599       -3.619      158.852      102.689       64.466    25233.810    10545.091     4155.820        5.132        1.997      250.418       81.172        0.105      344.879       22.008      863.450
04/08/2014  18:05:00     -352.966      -71.124        2.006      160.154      127.013       80.632    25649.434    16132.284     6501.590        8.896        2.414      360.061       86.930        0.058      344.750       21.787      863.465
04/08/2014  18:06:00     -312.483     -136.996      -12.375      157.188      119.954       71.956    24708.032    14389.021     5177.612        8.041        2.214      341.194       83.163        0.059      344.756       21.797      863.489
04/08/2014  18:07:00     -264.795      -69.885       16.993      192.838      123.800       79.917    37186.683    15326.488     6386.801        6.708        2.945      273.862       95.784        0.122      344.778       21.836      863.504
04/08/2014  18:08:00     -273.876     -145.993        0.000      157.248      122.302       66.052    24726.988    14957.745     4362.895        7.018        2.202      310.358       68.439        0.049      344.758       21.800      863.504
04/08/2014  18:09:00     -487.901     -255.929       -9.854      202.296      190.174       83.605    40923.762    36166.284     6989.853       19.385        4.204      550.951       84.124        0.023      344.632       21.584      863.493
04/08/2014  18:10:00     -398.654     -291.686       -0.545      211.895      131.642      100.612    44899.394    17329.652    10122.860       15.816        3.618      493.970       97.520        0.039      344.634       21.588      863.503
04/08/2014  18:11:00     -304.819     -140.686      -19.302      133.629      159.279       75.497    17856.745    25369.823     5699.814        8.099        2.446      335.719       73.753        0.048      344.665       21.641      863.525
04/08/2014  18:12:00     -310.065      -10.829      -16.997      102.184      146.575       59.894    10441.585    21484.274     3587.338        6.602        1.776      310.254       54.167        0.030      344.764       21.811      863.519
04/08/2014  18:13:00     -402.221      -41.907        1.741      156.554      113.568       77.238    24509.152    12897.784     5965.700       10.345        2.169      404.398       77.659        0.037      344.656       21.626      863.515
04/08/2014  18:14:00     -340.037      -66.119        8.755      152.476      106.528       64.905    23248.912    11348.248     4212.611        7.943        1.940      346.406       80.417        0.054      344.706       21.712      863.523
04/08/2014  18:15:00     -376.451     -134.034       -5.999      128.321      109.689       58.190    16466.333    12031.711     3386.078        9.579        1.594      399.601       69.758        0.030      344.687       21.678      863.520
04/08/2014  18:16:00     -373.395     -108.901      -10.044      142.332      122.695       62.368    20258.312    15054.049     3889.789        9.529        1.960      388.951       60.841        0.024      344.681       21.668      863.508
04/08/2014  18:17:00     -344.415     -118.967       -1.360      171.666      129.173       65.149    29469.055    16685.618     4244.382        9.158        2.520      364.383       66.400        0.033      344.684       21.674      863.513
04/08/2014  18:18:00     -247.870      -75.556      -25.016      113.660      117.276       53.629    12918.528    13753.572     2876.083        4.866        1.477      259.130       57.726        0.050      344.648       21.614      863.527
04/08/2014  18:19:00     -239.008      -51.996       -2.184      172.812      142.538       74.332    29864.098    20317.181     5525.228        5.776        2.785      244.599       71.760        0.086      344.648       21.614      863.512
04/08/2014  18:20:00     -351.729       29.244      -30.692      128.882      102.117       55.414    16610.442    10427.981     3070.707        7.780        1.505      352.943       47.655        0.018      344.611       21.549      863.512
04/08/2014  18:21:00     -264.875     -119.636       -6.313      102.428       76.631       45.718    10491.412     5872.335     2090.139        5.148        0.923      290.640       47.873        0.027      344.626       21.574      863.499
04/08/2014  18:22:00     -185.864      -32.245       -0.152       94.160       79.224       47.910     8866.171     6276.493     2295.332        2.651        0.872      188.640       44.122        0.055      344.685       21.677      863.503
04/08/2014  18:23:00     -235.606     -130.736      -16.087      137.992      129.763       68.108    19041.841    16838.414     4638.739        5.668        2.026      269.448       80.380        0.089      344.675       21.659      863.528
04/08/2014  18:24:00     -243.672     -173.596       -1.275      156.339      109.625       75.781    24441.802    12017.638     5742.805        6.585        2.110      299.185       69.906        0.055      344.574       21.486      863.520
04/08/2014  18:25:00     -234.384     -119.913       -3.834       95.683       84.579       49.798     9155.204     7153.663     2479.891        4.406        0.939      263.277       43.098        0.027      344.583       21.502      863.520
04/08/2014  18:26:00     -208.361     -176.053       -3.175      111.607       94.804       60.663    12456.203     8987.839     3679.942        4.977        1.256      272.780       59.472        0.048      344.578       21.491      863.514
04/08/2014  18:27:00     -192.932      -80.673        9.381      133.208       88.753       59.699    17744.473     7877.166     3563.916        3.650        1.459      209.119       64.620        0.095      344.604       21.539      863.527
04/08/2014  18:28:00     -171.333     -148.958       25.699      178.301      126.880       97.486    31791.132    16098.496     9503.430        5.479        2.870      227.032      112.683        0.246      344.544       21.434      863.520
04/08/2014  18:29:00     -344.162      -83.444      -23.026      148.796      115.080       63.827    22140.288    13243.455     4073.843        8.269        1.973      354.133       70.013        0.039      344.527       21.408      863.507
04/08/2014  18:30:00     -217.296     -119.243        3.445      145.837      113.914       66.629    21268.431    12976.369     4439.357        5.006        1.934      247.864       73.605        0.088      344.511       21.377      863.512
04/08/2014  18:31:00      -90.600      -66.399       18.553      132.318       93.461       70.791    17507.929     8734.960     5011.329        2.210        1.563      112.326       75.857        0.456      344.504       21.368      863.519
04/08/2014  18:32:00     -118.556      -65.240       24.732      118.815      110.920       67.092    14117.121    12303.267     4501.342        2.492        1.546      135.321       69.420        0.263      344.474       21.316      863.517
04/08/2014  18:33:00     -118.222      -32.719        0.158      116.903       90.319       54.823    13666.325     8157.483     3005.507        1.993        1.241      122.666       63.204        0.265      344.527       21.407      863.509
04/08/2014  18:34:00     -304.894      -79.921      -21.602      156.391      112.988       52.424    24458.058    12766.328     2748.326        6.989        1.999      315.194       49.271        0.024      344.500       21.360      863.502
04/08/2014  18:35:00     -224.885      -29.921        5.703      182.859       87.781       71.484    33437.387     7705.519     5109.906        4.887        2.313      226.867       92.960        0.168      344.487       21.336      863.481
04/08/2014  18:36:00     -320.917      -39.632      -16.559      189.338      108.442       62.475    35848.737    11759.704     3903.181        7.816        2.576      323.355       77.125        0.057      344.474       21.315      863.481
04/08/2014  18:37:00     -316.429      -31.860      -20.781      116.190      102.693       48.646    13500.138    10545.755     2366.405        6.399        1.321      318.029       42.011        0.017      344.469       21.305      863.475
04/08/2014  18:38:00     -271.095      -87.960       -3.302      117.747       98.182       57.322    13864.279     9639.715     3285.847        5.401        1.339      285.008       63.533        0.050      344.443       21.263      863.467
04/08/2014  18:39:00     -155.216      -76.622        6.593      122.529      102.016       62.264    15013.259    10407.291     3876.779        2.965        1.465      173.098       71.876        0.172      344.456       21.285      863.467
04/08/2014  18:40:00     -184.910      -68.696        1.412      122.601      104.947       54.668    15030.889    11013.856     2988.546        3.397        1.452      197.258       60.723        0.095      344.468       21.305      863.456
04/08/2014  18:41:00      -88.469      -90.429       12.305      107.223       80.407       58.091    11496.782     6465.262     3374.610        1.874        1.067      126.508       65.650        0.269      344.483       21.332      863.427
04/08/2014  18:42:00     -154.067       21.342       -1.357      124.682      103.854       48.583    15545.602    10785.583     2360.293        2.644        1.435      155.539       49.793        0.102      344.502       21.362      863.414
04/08/2014  18:43:00     -195.324       27.695      -20.175      117.567       80.938       44.637    13822.002     6550.962     1992.422        3.084        1.118      197.277       32.014        0.026      344.509       21.376      863.414
04/08/2014  18:44:00     -202.742      -65.917        4.349       77.932       94.460       49.084     6073.347     8922.657     2409.270        3.143        0.870      213.189       49.723        0.054      344.468       21.305      863.391
04/08/2014  18:45:00     -177.319     -121.349       -3.910      164.718      117.378       57.728    27132.139    13777.615     3332.524        4.520        2.212      214.866       66.795        0.097      344.526       21.406      863.363
04/08/2014  18:46:00     -255.707      -93.099      -19.148      147.994      109.241       63.545    21902.335    11933.532     4037.906        5.614        1.894      272.128       62.992        0.054      344.454       21.280      863.351
04/08/2014  18:47:00     -292.754      -51.329      -19.111      143.990       92.892       52.093    20733.167     8628.892     2713.672        6.038        1.604      297.220       65.231        0.048      344.433       21.247      863.345
04/08/2014  18:48:00     -271.649     -130.255        4.900      136.959      111.716       70.125    18757.853    12480.390     4917.542        6.346        1.808      301.264       64.783        0.046      344.394       21.179      863.321
04/08/2014  18:49:00     -283.066     -113.206       -6.277      104.369      117.021       66.190    10892.786    13694.014     4381.101        6.097        1.448      304.864       60.256        0.039      344.399       21.188      863.318
04/08/2014  18:50:00     -318.744     -146.743       -2.697      110.779       86.009       59.355    12271.892     7397.563     3523.051        7.316        1.160      350.901       54.263        0.024      344.343       21.091      863.328
04/08/2014  18:51:00     -254.514      -85.811        0.885      113.619       98.764       50.327    12909.323     9754.253     2532.773        4.866        1.260      268.590       51.632        0.037      344.376       21.148      863.341
04/08/2014  18:52:00     -288.757      -20.004      -31.377      105.149       62.168       52.544    11056.280     3864.908     2760.898        5.122        0.884      289.449       47.791        0.027      344.352       21.106      863.352
04/08/2014  18:53:00     -391.833      -19.403      -38.064      133.736       72.497       50.488    17885.305     5255.786     2549.066        9.052        1.285      392.313       68.957        0.031      344.340       21.084      863.337
04/08/2014  18:54:00     -200.081      -41.366        5.469       99.679       74.918       42.343     9935.831     5612.768     1792.961        2.955        0.867      204.312       45.722        0.050      344.367       21.133      863.336
04/08/2014  18:55:00     -232.371      -84.212        5.527       96.105       84.886       43.989     9236.091     7205.673     1935.023        3.974        0.919      247.160       41.959        0.029      344.348       21.099      863.349
04/08/2014  18:56:00     -148.427      -35.430        9.080      133.464      117.799       50.319    17812.576    13876.712     2531.956        2.879        1.711      152.597       60.585        0.158      344.368       21.135      863.345
04/08/2014  18:57:00     -211.636      -54.135        3.506      103.095       71.597       49.568    10628.558     5126.129     2456.940        3.297        0.911      218.450       53.926        0.061      344.320       21.051      863.335
04/08/2014  18:58:00     -172.465     -104.905        4.489      127.718       84.518       57.702    16311.851     7143.345     3329.531        3.377        1.339      201.864       64.284        0.101      344.302       21.023      863.324
04/08/2014  18:59:00     -198.577     -106.814        6.352      114.108      130.008       68.569    13020.592    16902.084     4701.733        4.275        1.731      225.481       66.843        0.088      344.261       20.951      863.329
04/08/2014  19:00:00     -128.676      -76.091        8.366      113.963       92.537       54.418    12987.590     8563.009     2961.281        2.346        1.226      149.490       61.621        0.170      344.297       21.014      863.335
04/08/2014  19:01:00     -250.404      -19.578      -18.517       98.711       84.366       49.682     9743.773     7117.616     2468.254        4.138        0.966      251.168       47.423        0.036      344.282       20.986      863.326
04/08/2014  19:02:00     -272.699      -52.699       -3.553      105.178       95.867       53.280    11062.417     9190.509     2838.730        5.012        1.155      277.745       57.908        0.043      344.257       20.944      863.317
04/08/2014  19:03:00     -264.980      -54.643       -7.935      158.803       94.529       55.391    25218.442     8935.675     3068.210        5.524        1.861      270.555       63.877        0.056      344.218       20.879      863.325
04/08/2014  19:04:00     -341.810       21.526      -29.970      149.368       85.946       63.636    22310.881     7386.739     4049.504        7.596        1.687      342.487       67.500        0.039      344.200       20.845      863.345
04/08/2014  19:05:00     -199.287      -40.532      -10.964       83.743       74.367       38.104     7012.832     5530.415     1451.949        2.773        0.700      203.367       39.487        0.038      344.207       20.858      863.351
04/08/2014  19:06:00     -248.579      -80.887       -5.549       76.562       76.080       48.086     5861.678     5788.196     2312.252        4.116        0.698      261.408       40.924        0.025      344.193       20.835      863.353
04/08/2014  19:07:00     -156.230      -13.823        4.073       80.913       54.656       45.056     6546.848     2987.259     2030.022        1.809        0.578      156.840       38.967        0.062      344.193       20.836      863.355
04/08/2014  19:08:00     -148.424        5.662       -6.393       72.403       54.577       34.542     5242.263     2978.600     1193.166        1.576        0.471      148.532       39.495        0.071      344.198       20.846      863.351
04/08/2014  19:09:00     -170.657        0.199      -10.068      105.856       59.496       42.308    11205.508     3539.794     1789.935        2.288        0.827      170.658       55.146        0.104      344.145       20.754      863.361
04/08/2014  19:10:00     -179.109      -54.499      -11.193      110.031       54.863       40.726    12106.744     3009.895     1658.640        2.597        0.839      187.217       36.767        0.039      344.145       20.754      863.361
04/08/2014  19:11:00     -191.348      -29.270        1.863      137.243       73.452       39.170    18835.560     5395.230     1534.289        3.161        1.288      193.574       43.765        0.051      344.134       20.736      863.359
04/08/2014  19:12:00     -238.622      -71.160       11.348      180.250      134.462       66.212    32489.957    18080.161     4384.042        5.853        2.748      249.007       83.109        0.111      344.093       20.665      863.355
04/08/2014  19:13:00     -174.123      -67.544        4.072      107.280       72.669       46.712    11509.002     5280.839     2182.022        2.693        0.949      186.765       49.189        0.069      344.132       20.732      863.368
04/08/2014  19:14:00     -355.855     -174.259      -15.677      123.266      140.642       76.606    15194.480    19780.265     5868.437        9.904        2.042      396.231       65.697        0.027      344.099       20.673      863.364
04/08/2014  19:15:00     -294.889     -162.475      -16.612      121.284       89.136       47.372    14709.753     7945.289     2244.073        6.926        1.245      336.686       55.489        0.027      344.067       20.619      863.357
04/08/2014  19:16:00     -249.716      -71.749      -18.802       86.386       94.427       43.268     7462.550     8916.530     1872.115        4.305        0.913      259.819       38.298        0.022      344.080       20.639      863.369
04/08/2014  19:17:00     -308.713      -29.578      -11.150      112.953       72.961       55.035    12758.352     5323.380     3028.902        5.870        1.056      310.126       62.001        0.040      344.031       20.561      863.376
04/08/2014  19:18:00     -344.493     -128.186      -21.149       90.269       70.680       44.142     8148.495     4995.717     1948.492        7.532        0.755      367.569       34.613        0.009      344.038       20.572      863.392
04/08/2014  19:19:00     -238.840      -38.374       -7.757       66.457       57.142       43.021     4416.494     3265.256     1850.764        3.405        0.477      241.903       46.018        0.036      344.027       20.551      863.403
04/08/2014  19:20:00     -109.305      -13.379        4.192       84.175       76.617       37.952     7085.349     5870.239     1440.323        1.327        0.720      110.121       38.141        0.120      344.012       20.528      863.416
04/08/2014  19:21:00     -186.569      -43.863       -0.544      104.948       61.249       40.183    11014.148     3751.391     1614.714        2.655        0.819      191.656       42.996        0.050      344.008       20.519      863.420
04/08/2014  19:22:00     -123.377      -18.884       -1.432       99.053       63.966       37.516     9811.458     4091.642     1407.480        1.544        0.766      124.813       51.036        0.167      343.970       20.455      863.401
04/08/2014  19:23:00     -192.447        7.642      -11.692       90.800       77.843       44.967     8244.721     6059.490     2022.034        2.678        0.816      192.598       42.663        0.049      343.929       20.385      863.407
04/08/2014  19:24:00     -147.926      -75.001        2.913       92.977       91.510       47.822     8644.674     8374.139     2286.904        2.341        0.965      165.853       45.569        0.075      343.943       20.408      863.408
04/08/2014  19:25:00     -196.901      -11.740        9.224       82.977       82.090       46.516     6885.113     6738.808     2163.784        2.739        0.789      197.251       50.674        0.066      343.898       20.331      863.423
04/08/2014  19:26:00     -164.399      -39.347      -10.149       93.807       47.225       29.725     8799.710     2230.236      883.586        2.029        0.596      169.042       33.546        0.039      343.927       20.380      863.429
04/08/2014  19:27:00     -207.440      -79.673       13.333      120.788      102.994       52.506    14589.854    10607.716     2756.926        3.875        1.398      222.214       53.787        0.059      343.856       20.261      863.428
04/08/2014  19:28:00     -257.136       13.291       -4.789      136.650       94.598       60.563    18673.247     8948.840     3667.874        4.880        1.564      257.479       66.580        0.067      343.819       20.197      863.442
04/08/2014  19:29:00     -209.678      -44.023       -3.008       98.012       93.879       50.366     9606.360     8813.303     2536.700        3.343        1.048      214.249       46.629        0.047      343.819       20.198      863.454
04/08/2014  19:30:00     -183.492      -85.128        8.345      138.101       87.617       55.851    19071.784     7676.710     3119.322        3.542        1.493      202.278       66.307        0.107      343.832       20.220      863.464
04/08/2014  19:31:00     -305.691     -218.232       -4.635      171.040      106.435       78.774    29254.821    11328.479     6205.309        9.393        2.339      375.596       91.534        0.059      343.834       20.222      863.454
04/08/2014  19:32:00     -330.396     -228.672        1.354      205.800      158.747       86.413    42353.832    25200.617     7467.204       11.822        3.751      401.812      103.025        0.066      343.829       20.212      863.441
04/08/2014  19:33:00      -79.337      -74.590        7.202      116.686      110.663       64.332    13615.668    12246.262     4138.595        2.095        1.500      108.895       64.653        0.352      343.803       20.171      863.452
04/08/2014  19:34:00     -149.674      -42.418        9.428      105.337       56.470       51.505    11095.908     3188.855     2652.789        2.061        0.847      155.568       52.502        0.114      343.812       20.185      863.471
04/08/2014  19:35:00     -204.925     -101.978       -3.719      169.412      117.009       58.241    28700.547    13691.107     3392.037        4.909        2.289      228.897       66.029        0.083      343.792       20.153      863.493
04/08/2014  19:36:00     -183.715     -110.529        0.347      120.380      108.863       50.348    14491.357    11851.139     2534.893        3.742        1.444      214.401       55.317        0.067      343.797       20.159      863.504
04/08/2014  19:37:00     -177.816     -129.924        8.415      119.211      104.479       69.569    14211.230    10915.939     4839.876        3.926        1.498      220.224       70.898        0.104      343.785       20.139      863.518
04/08/2014  19:38:00     -184.814      -61.797       -3.802       84.382       79.796       46.636     7120.367     6367.387     2174.880        2.682        0.783      194.872       50.168        0.066      343.759       20.094      863.543
04/08/2014  19:39:00     -166.871      -64.590        7.475      115.392       70.573       38.113    13315.327     4980.617     1452.636        2.591        0.987      178.935       47.206        0.070      343.766       20.107      863.551
04/08/2014  19:40:00     -149.566     -105.887       12.729      119.100       89.282       60.263    14184.886     7971.284     3631.622        2.976        1.289      183.254       73.943        0.163      343.724       20.034      863.545
04/08/2014  19:41:00     -240.252      -54.974       -6.724       69.303       80.032       44.590     4802.860     6405.194     1988.253        3.699        0.660      246.461       33.746        0.019      343.729       20.041      863.568
04/08/2014  19:42:00     -334.042      -96.333        1.895      170.817      125.247       80.741    29178.282    15686.796     6519.073        8.612        2.569      347.655       91.911        0.070      343.673       19.948      863.554
04/08/2014  19:43:00     -337.649     -148.326       -9.124      149.982      138.389       72.405    22494.606    19151.512     5242.462        9.148        2.344      368.792       61.673        0.028      343.635       19.882      863.547
04/08/2014  19:44:00     -293.333      -67.267       -2.192      140.221      105.115       62.539    19661.973    11049.112     3911.130        6.259        1.731      300.948       70.886        0.055      343.611       19.840      863.583
04/08/2014  19:45:00     -237.476      -36.761      -11.261      140.893      106.254       54.466    19850.779    11289.951     2966.560        4.598        1.705      240.305       58.733        0.060      343.593       19.811      863.599
04/08/2014  19:46:00     -221.808      -70.793       -8.594       99.281       73.168       36.046     9856.625     5353.607     1299.309        3.539        0.825      232.831       36.928        0.025      343.584       19.796      863.608
04/08/2014  19:47:00     -206.819     -187.171       -4.523      111.835       95.628       65.313    12507.129     9144.661     4265.790        5.187        1.296      278.939       62.321        0.050      343.614       19.846      863.616
04/08/2014  19:48:00     -189.558     -124.459      -12.919       91.213       72.185       46.538     8319.873     5210.744     2165.823        3.364        0.785      226.764       30.849        0.019      343.604       19.829      863.624
04/08/2014  19:49:00     -195.695      -46.432      -13.663      109.796       73.180       49.964    12055.102     5355.376     2496.410        3.027        0.995      201.127       48.606        0.058      343.559       19.755      863.647
04/08/2014  19:50:00     -169.119     -110.140       -6.290       70.700       78.897       41.239     4998.423     6224.721     1700.631        2.685        0.646      201.822       40.487        0.040      343.559       19.752      863.633
04/08/2014  19:51:00     -168.046        4.943       -7.169       62.336       56.119       23.653     3885.803     3149.346      559.448        1.795        0.380      168.119       24.875        0.022      343.523       19.693      863.642
04/08/2014  19:52:00     -136.500       16.927       -2.350       64.449       62.160       32.321     4153.662     3863.919     1044.670        1.399        0.453      137.546       33.576        0.060      343.496       19.648      863.643
04/08/2014  19:53:00     -140.944      -17.477       -1.135       55.015       46.365       26.380     3026.669     2149.732      695.879        1.302        0.294      142.023       27.764        0.038      343.525       19.697      863.653
04/08/2014  19:54:00     -202.317      -41.349        3.880       66.115       60.317       35.254     4371.180     3638.085     1242.863        2.595        0.463      206.499       32.701        0.025      343.543       19.725      863.669
04/08/2014  19:55:00     -117.358      -46.223       23.194       91.499       78.115       54.538     8372.114     6101.974     2974.391        1.694        0.872      126.133       59.887        0.225      343.512       19.675      863.673
04/08/2014  19:56:00     -156.471     -172.620       -0.480      110.898       90.046       56.898    12298.409     8108.256     3237.421        3.896        1.182      232.983       66.070        0.080      343.532       19.708      863.683
04/08/2014  19:57:00     -255.751     -172.204        0.220      140.738       86.616       50.245    19807.107     7502.310     2524.588        6.244        1.492      308.323       62.132        0.041      343.526       19.697      863.677
04/08/2014  19:58:00     -177.703      -91.554       -9.341       84.126       61.884       38.228     7077.267     3829.589     1461.396        2.621        0.618      199.902       32.136        0.026      343.505       19.664      863.674
04/08/2014  19:59:00     -208.086     -102.709       -6.787       86.308       85.139       37.117     7449.100     7248.614     1377.682        3.498        0.804      232.053       39.480        0.029      343.501       19.653      863.672
04/08/2014  20:00:00     -225.276      -81.485       -7.447       57.968       50.822       38.594     3360.284     2582.886     1489.500        3.244        0.372      239.561       32.177        0.018      343.485       19.626      863.679
04/08/2014  20:01:00     -270.281     -146.202       -8.647       89.748       68.878       43.205     8054.619     4744.137     1866.697        5.458        0.733      307.290       37.605        0.015      343.494       19.640      863.695
04/08/2014  20:02:00     -193.767     -132.712       11.675      133.959       88.943       65.881    17945.087     7910.785     4340.290        4.274        1.510      234.857       65.706        0.078      343.463       19.589      863.685
04/08/2014  20:03:00     -159.896      -94.117       -2.275      106.592       77.192       50.243    11361.932     5958.672     2524.324        2.713        0.992      185.539       50.945        0.075      343.440       19.550      863.713
04/08/2014  20:04:00     -231.029      -58.432       -7.523       79.606       62.029       40.368     6337.053     3847.583     1629.549        3.433        0.591      238.304       44.022        0.034      343.443       19.554      863.735
04/08/2014  20:05:00     -230.651     -126.099        9.537      101.394       72.027       48.909    10280.678     5187.949     2392.122        4.352        0.893      262.870       50.637        0.037      343.423       19.522      863.741
04/08/2014  20:06:00     -278.421      -74.037      -18.994       68.088       70.557       38.200     4635.948     4978.241     1459.254        4.721        0.554      288.096       32.586        0.013      343.437       19.545      863.742
04/08/2014  20:07:00     -237.543      -63.032       -1.077      120.704       71.673       44.574    14569.464     5137.024     1986.842        4.104        1.085      245.763       45.672        0.035      343.432       19.538      863.753
04/08/2014  20:08:00     -300.691     -114.113       -6.745      112.661       76.829       46.158    12692.555     5902.636     2130.517        6.210        1.036      321.616       53.475        0.028      343.408       19.495      863.783
04/08/2014  20:09:00     -223.556     -144.235        9.932      140.801      105.557       66.099    19824.868    11142.263     4369.077        5.310        1.767      266.047       70.730        0.071      343.405       19.490      863.806
04/08/2014  20:10:00     -158.830     -137.384       15.341      140.287      140.451       66.342    19680.502    19726.361     4401.316        4.406        2.190      210.003       65.826        0.098      343.394       19.472      863.817
04/08/2014  20:11:00     -244.789     -157.311        5.142      132.556       90.952       62.129    17571.105     8272.184     3859.984        5.719        1.485      290.978       59.934        0.042      343.395       19.473      863.835
04/08/2014  20:12:00     -270.863     -151.084       13.767      120.766      111.828       71.132    14584.495    12505.449     5059.793        6.426        1.607      310.150       66.076        0.045      343.365       19.422      863.832
04/08/2014  20:13:00     -359.209     -115.502       -4.546      123.267      161.666       73.750    15194.658    26136.021     5439.135        9.457        2.338      377.322       59.236        0.025      343.369       19.428      863.848
04/08/2014  20:14:00     -221.571     -180.170       -0.775      118.278      105.571       54.646    13989.619    11145.144     2986.190        5.483        1.406      285.579       46.262        0.026      343.388       19.462      863.869
04/08/2014  20:15:00     -340.657     -233.343       -5.711      114.397       90.454       65.215    13086.720     8182.000     4253.031        9.802        1.276      412.912       68.947        0.028      343.346       19.389      863.879
04/08/2014  20:16:00     -234.112     -180.368        0.822      138.386       98.212       67.422    19150.651     9645.661     4545.788        6.034        1.667      295.535       69.523        0.055      343.306       19.320      863.859
04/08/2014  20:17:00      -75.007      -33.235       11.788       70.908       70.761       43.586     5027.989     5007.131     1899.703        0.940        0.597       82.041       47.020        0.328      343.305       19.322      863.874
04/08/2014  20:18:00     -192.246      -41.332       -7.623      108.900       71.115       55.275    11859.219     5057.295     3055.345        2.934        0.999      196.639       53.002        0.073      343.315       19.337      863.879
04/08/2014  20:19:00     -205.553      -27.030      -11.886       61.709       72.421       40.250     3807.967     5244.850     1620.091        2.690        0.534      207.323       32.637        0.025      343.299       19.311      863.863
04/08/2014  20:20:00     -148.544      -48.184        5.021       82.623       93.426       44.845     6826.528     8728.385     2011.116        2.099        0.878      156.164       39.747        0.065      343.260       19.244      863.866
04/08/2014  20:21:00     -208.097     -134.491       -2.454       87.871       87.886       47.434     7721.256     7724.020     2249.943        3.954        0.885      247.775       55.895        0.051      343.294       19.300      863.880
04/08/2014  20:22:00     -231.578     -182.097        6.159      139.451      133.400       75.532    19446.586    17795.432     5705.021        6.488        2.147      294.598       78.228        0.071      343.261       19.244      863.896
04/08/2014  20:23:00     -193.745      -89.043        5.725      157.731       91.572       55.571    24879.191     8385.356     3088.132        4.092        1.818      213.227       63.654        0.089      343.266       19.254      863.915
04/08/2014  20:24:00     -147.394      -55.247        4.372       94.174       75.569       39.501     8868.712     5710.658     1560.345        2.046        0.807      157.408       42.734        0.074      343.262       19.249      863.924
04/08/2014  20:25:00     -226.843      -35.423       -7.726      105.292      100.301       44.965    11086.388    10060.364     2021.892        3.797        1.158      229.593       38.966        0.029      343.234       19.198      863.956
04/08/2014  20:26:00     -322.728      -77.840      -19.777       87.242       95.774       46.561     7611.108     9172.592     2167.894        6.477        0.948      331.983       41.039        0.015      343.257       19.235      863.958
04/08/2014  20:27:00     -206.394     -115.128        0.490      149.054       95.643       51.150    22217.115     9147.510     2616.297        4.491        1.699      236.333       61.803        0.068      343.206       19.151      863.932
04/08/2014  20:28:00     -243.202      -90.361       -4.254      110.219       85.978       51.518    12148.206     7392.220     2654.090        4.476        1.110      259.446       51.903        0.040      343.217       19.169      863.957
04/08/2014  20:29:00     -197.699     -103.374       -2.762      121.142       97.701       60.584    14675.367     9545.455     3670.449        3.883        1.395      223.094       60.550        0.074      343.178       19.104      863.996
04/08/2014  20:30:00     -199.430       -9.882      -15.861      112.916       68.547       51.023    12749.929     4698.754     2603.385        3.008        1.003      199.675       59.577        0.089      343.169       19.090      863.991
04/08/2014  20:31:00     -277.580     -167.759      -10.765      177.832      135.123       56.192    31624.070    18258.144     3157.515        7.916        2.652      324.336       57.912        0.032      343.160       19.071      863.979
04/08/2014  20:32:00     -233.321     -150.568        9.536      144.527       99.141       62.012    20887.940     9828.971     3845.443        5.587        1.728      277.686       63.923        0.053      343.115       18.996      864.005
04/08/2014  20:33:00     -359.356     -151.594       -0.577      140.106      120.501       64.578    19629.697    14520.610     4170.345        9.521        1.916      390.023       74.473        0.036      343.109       18.987      863.992
04/08/2014  20:34:00     -311.019      -72.334       -0.670      145.332       88.415       52.975    21121.264     7817.124     2806.298        6.685        1.587      319.320       52.115        0.027      343.093       18.960      863.986
04/08/2014  20:35:00     -310.719      -11.117       -0.728      161.335      108.131       57.996    26028.838    11692.281     3363.580        6.887        2.054      310.918       68.348        0.048      343.065       18.910      863.956
04/08/2014  20:36:00     -236.882     -153.583        2.604      109.783      122.566       60.496    12052.306    15022.386     3659.734        5.522        1.537      282.314       51.953        0.034      343.080       18.936      863.950
04/08/2014  20:37:00     -249.433     -173.536      -10.062      149.320      114.582       51.288    22296.495    13129.124     2630.454        6.524        1.903      303.861       62.605        0.042      343.044       18.876      863.946
04/08/2014  20:38:00     -350.122      -78.084      -18.410      145.346      128.690       61.162    21125.516    16561.033     3740.822        8.522        2.071      358.724       68.814        0.037      342.985       18.776      863.954
04/08/2014  20:39:00     -312.212     -118.649        0.165      159.583      127.997       70.118    25466.633    16383.258     4916.566        7.915        2.338      333.997       77.339        0.054      342.939       18.696      863.943
04/08/2014  20:40:00     -386.087      -97.080      -27.139      133.815      128.029       67.121    17906.565    16391.453     4505.164        9.901        1.940      398.105       49.117        0.015      342.936       18.691      863.939
04/08/2014  20:41:00     -342.515     -124.259       -0.071      177.565      117.859       67.292    31529.289    13890.857     4528.245        9.134        2.497      364.358       75.355        0.043      342.933       18.686      863.944
04/08/2014  20:42:00     -347.056      -87.572       -4.260      115.276       94.893       56.497    13288.516     9004.670     3191.961        7.680        1.274      357.934       66.376        0.034      342.906       18.641      863.978
04/08/2014  20:43:00     -217.672      -35.326        4.490      137.437       90.784       61.153    18889.048     8241.803     3739.708        3.975        1.544      220.520       60.606        0.076      342.873       18.586      863.981
04/08/2014  20:44:00     -299.971      -59.551       -7.968      120.924       99.139       46.760    14622.562     9828.545     2186.523        6.011        1.332      305.825       51.388        0.028      342.871       18.581      863.978
04/08/2014  20:45:00     -338.514      -76.697      -10.984      122.989       80.187       52.540    15126.325     6429.875     2760.406        7.245        1.216      347.094       55.987        0.026      342.852       18.547      863.989
04/08/2014  20:46:00     -345.563      -30.596       -0.715      195.335       99.523       74.290    38155.684     9904.923     5518.982        8.695        2.679      346.915       96.129        0.077      342.832       18.515      864.002
04/08/2014  20:47:00     -310.280      -69.476       -2.907      159.051      143.481       70.764    25297.268    20586.908     5007.571        7.599        2.545      317.963       81.939        0.066      342.844       18.535      863.999
04/08/2014  20:48:00     -200.129      -16.459       -6.938      125.119       92.272       56.812    15654.733     8514.175     3227.572        3.388        1.370      200.805       69.281        0.119      342.821       18.495      864.012
04/08/2014  20:49:00     -307.090      -81.652      -20.393      218.382      131.200       70.557    47690.774    17213.406     4978.330        8.562        3.494      317.760       97.853        0.095      342.841       18.529      863.999
04/08/2014  20:50:00     -368.311     -120.773      -23.364      131.295      151.801       74.558    17238.269    23043.567     5558.960        9.830        2.292      387.607       65.832        0.029      342.839       18.526      864.004
04/08/2014  20:51:00     -311.799      -70.859      -24.713      147.049      118.582       67.387    21623.445    14061.746     4541.071        7.153        2.011      319.749       73.490        0.053      342.802       18.464      864.019
04/08/2014  20:52:00     -298.281      -81.923      -21.311      198.422      120.190       78.422    39371.256    14445.584     6150.047        7.804        2.998      309.327       83.455        0.073      342.796       18.453      864.028
04/08/2014  20:53:00     -251.379      -36.479      -15.816      115.104       81.736       52.082    13248.982     6680.805     2712.535        4.370        1.132      254.013       62.220        0.060      342.788       18.441      864.052
04/08/2014  20:54:00     -310.934      -24.867      -18.103      126.814      110.314       57.712    16081.814    12169.242     3330.687        6.460        1.579      311.927       63.785        0.042      342.779       18.424      864.032
04/08/2014  20:55:00     -397.483      -47.811      -28.817      190.257      107.390       65.244    36197.881    11532.549     4256.739       10.654        2.599      400.348       73.402        0.034      342.771       18.411      864.037
04/08/2014  20:56:00     -354.128     -132.576       -5.982      157.108      140.560       85.778    24682.832    19757.242     7357.824        9.740        2.590      378.131       83.724        0.049      342.753       18.381      864.027
04/08/2014  20:57:00     -522.848      -80.404      -13.773      183.107      131.280       86.427    33528.063    17234.416     7469.665       16.912        2.912      528.994       90.682        0.029      342.741       18.359      864.017
04/08/2014  20:58:00     -435.290      -54.923      -15.092      147.208      121.695       71.868    21670.256    14809.637     5164.953       11.717        2.082      438.741       67.500        0.024      342.725       18.333      864.058
04/08/2014  20:59:00     -356.072      -17.362      -24.270       89.220      101.911       59.499     7960.210    10385.901     3540.072        7.478        1.094      356.495       52.754        0.022      342.734       18.348      864.064
04/08/2014  21:00:00     -348.450       -6.503       -6.740      129.666       90.209       66.821    16813.179     8137.706     4465.065        7.545        1.471      348.511       71.448        0.042      342.727       18.336      864.051
04/08/2014  21:01:00     -271.349      -19.245      -21.842      116.449       92.415       45.706    13560.445     8540.569     2089.007        4.933        1.210      272.030       43.809        0.026      342.716       18.316      864.057
04/08/2014  21:02:00     -167.415      -38.833        4.240      142.605       78.650       52.741    20336.184     6185.889     2781.594        2.942        1.465      171.859       61.756        0.129      342.646       18.200      864.035
04/08/2014  21:03:00     -390.471     -119.605      -17.925      156.000      118.373       68.301    24335.910    14012.092     4664.985       10.505        2.151      408.379       64.554        0.025      342.655       18.214      864.038
04/08/2014  21:04:00     -400.301     -114.645       -9.108      147.186      148.541       73.456    21663.762    22064.335     5395.786       11.129        2.456      416.395       77.954        0.035      342.642       18.192      864.028
04/08/2014  21:05:00     -376.389     -119.078      -17.952      137.467       90.830       63.983    18897.151     8250.036     4093.817        9.370        1.562      394.777       53.760        0.019      342.625       18.162      864.023
04/08/2014  21:06:00     -302.999      -40.868       -9.431      154.903      160.496       90.151    23994.960    25759.047     8127.241        7.571        2.894      305.743       73.769        0.058      342.639       18.186      864.003
04/08/2014  21:07:00     -369.557     -113.970       -6.246      174.238      143.468       77.252    30359.020    20582.961     5967.860       10.324        2.845      386.732       85.300        0.049      342.659       18.221      864.002
04/08/2014  21:08:00     -345.754      -74.513        1.221      148.423      117.098       68.537    22029.249    13712.033     4697.374        8.276        2.022      353.692       79.018        0.050      342.690       18.271      864.006
04/08/2014  21:09:00     -263.563      -63.916        4.599      218.446      145.874       71.019    47718.440    21279.107     5043.735        7.379        3.702      271.203       96.512        0.127      342.616       18.148      864.011
04/08/2014  21:10:00     -322.339      -28.401      -11.589      161.632      120.923       63.611    26124.895    14622.312     4046.341        7.481        2.240      323.588       69.298        0.046      342.657       18.217      864.028
04/08/2014  21:11:00     -142.988      -39.728        9.330      112.850       85.039       48.913    12735.216     7231.601     2392.475        2.223        1.118      148.404       50.675        0.117      342.641       18.192      864.025
04/08/2014  21:12:00     -184.956      -71.210       -6.625       99.340       79.057       48.243     9868.452     6249.997     2327.371        2.888        0.922      198.190       48.528        0.060      342.661       18.224      864.023
04/08/2014  21:13:00     -321.122      -34.316       -8.096      162.644      116.213       64.821    26453.006    13505.462     4201.761        7.425        2.208      322.950       72.004        0.050      342.628       18.168      864.018
04/08/2014  21:14:00     -328.535      -39.558      -20.287      161.811      133.252       70.381    26182.717    17756.228     4953.421        7.939        2.445      330.908       64.770        0.038      342.621       18.155      864.007
04/08/2014  21:15:00     -445.020      -76.014      -25.414      183.711      126.128       70.828    33749.815    15908.202     5016.615       12.956        2.734      451.466       88.738        0.039      342.603       18.125      864.019
04/08/2014  21:16:00     -350.678     -128.466       -5.884      171.454      152.304       78.238    29396.314    23196.358     6121.150        9.910        2.936      373.469       85.305        0.052      342.596       18.113      864.033
04/08/2014  21:17:00     -382.957     -164.327        4.462      181.821      141.559       67.222    33058.793    20038.841     4518.819       11.564        2.881      416.724       81.869        0.039      342.649       18.203      864.034
04/08/2014  21:18:00     -373.524      -50.650       -7.750      154.417       97.567       71.433    23844.626     9519.246     5102.643        9.030        1.923      376.943       79.550        0.045      342.633       18.177      864.012
04/08/2014  21:19:00     -350.950      -88.345      -19.338      122.673      117.708       76.876    15048.617    13855.236     5909.855        8.307        1.741      361.899       61.679        0.029      342.603       18.126      864.011
04/08/2014  21:20:00     -360.908      -84.182      -10.689      239.645      158.842       79.990    57429.610    25230.814     6398.470       11.324        4.453      370.596      103.717        0.078      342.547       18.031      864.005
04/08/2014  21:21:00     -188.681      -82.717       14.777      174.196      127.824       97.235    30344.201    16339.005     9454.729        4.939        2.807      206.016       96.005        0.217      342.547       18.031      864.004
04/08/2014  21:22:00     -222.468      -53.142        0.831      209.835       90.926       67.934    44030.629     8267.571     4615.008        5.460        2.846      228.727       89.244        0.152      342.568       18.068      864.022
04/08/2014  21:23:00     -368.789      -75.110      -17.656      143.278      134.747       69.064    20528.529    18156.627     4769.808        9.270        2.173      376.360       71.348        0.036      342.596       18.114      863.999
04/08/2014  21:24:00     -445.814      -29.306      -22.231      195.810      144.301       79.511    38341.389    20822.735     6322.032       13.278        3.274      446.776      100.974        0.051      342.626       18.164      863.978
04/08/2014  21:25:00     -437.825     -106.900      -32.962      176.253      152.334       73.325    31064.997    23205.662     5376.603       13.191        2.982      450.687       88.314        0.038      342.663       18.226      863.993
04/08/2014  21:26:00     -150.293      -28.140      -12.551      127.770       87.412       42.322    16325.268     7640.780     1791.183        2.464        1.288      152.905       53.619        0.123      342.622       18.160      864.000
04/08/2014  21:27:00     -114.569      -63.258       -6.477       72.402       58.994       38.657     5241.980     3480.312     1494.381        1.369        0.511      130.873       37.276        0.081      342.672       18.243      863.961
04/08/2014  21:28:00     -165.063      -55.888       -3.105      120.192      111.944       46.441    14446.051    12531.503     2156.740        2.975        1.457      174.268       46.366        0.071      342.585       18.096      863.933
04/08/2014  21:29:00     -354.719       21.474      -24.456      176.207      116.523       68.545    31049.057    13577.626     4698.435        8.809        2.466      355.368       64.477        0.033      342.531       18.001      863.890
04/08/2014  21:30:00     -313.897     -127.897       -7.088      156.956      134.205       72.165    24635.201    18010.866     5207.760        8.139        2.393      338.953       73.481        0.047      342.554       18.042      863.892
04/08/2014  21:31:00     -241.641     -100.257        6.500      160.822      127.559       66.537    25863.671    16271.281     4427.172        5.751        2.328      261.614       77.891        0.089      342.570       18.069      863.918
04/08/2014  21:32:00     -346.444       -6.675      -13.268      194.961      136.320       76.325    38009.893    18583.073     5825.579        9.132        3.121      346.509       85.192        0.060      342.533       18.007      863.936
04/08/2014  21:33:00     -403.091      -50.789      -36.774      186.430      132.542       74.343    34756.065    17567.400     5526.923       11.212        2.893      406.278       79.202        0.038      342.562       18.055      863.919
04/08/2014  21:34:00     -262.238       -9.249       -5.845      187.188      137.825       62.359    35039.188    18995.697     3888.663        6.339        2.896      262.401       76.921        0.086      342.506       17.962      863.925
04/08/2014  21:35:00     -317.084      -79.115       -4.067      193.315      148.227       86.268    37370.845    21971.322     7442.136        8.679        3.339      326.805      105.221        0.104      342.499       17.950      863.936
04/08/2014  21:36:00     -443.980      -76.596       -8.779      176.057      124.052       75.444    30995.957    15389.016     5691.844       12.756        2.604      450.538       82.181        0.033      342.552       18.039      863.923
04/08/2014  21:37:00     -397.448      -95.460       -4.753      177.959      108.308       66.268    31669.571    11730.584     4391.445       10.744        2.390      408.751       75.830        0.034      342.522       17.988      863.929
04/08/2014  21:38:00     -417.860      -17.732      -26.035      132.794      130.860       67.924    17634.217    17124.425     4613.621       10.748        1.969      418.236       65.888        0.025      342.507       17.962      863.945
04/08/2014  21:39:00     -439.221     -132.331      -17.603      150.226      120.678       64.594    22567.900    14563.173     4172.335       12.601        2.065      458.723       56.498        0.015      342.519       17.983      863.943
04/08/2014  21:40:00     -265.361      -67.959        1.169      116.861      106.621       51.386    13656.518    11368.142     2640.568        5.135        1.383      273.925       53.181        0.038      342.492       17.938      863.988
04/08/2014  21:41:00     -259.807      -63.599       -3.134      100.983       94.658       50.735    10197.621     8960.224     2574.064        4.664        1.087      267.478       44.295        0.027      342.489       17.932      864.010
04/08/2014  21:42:00     -215.166     -141.634        3.627      153.469      113.863       68.103    23552.884    12964.754     4638.067        5.375        2.058      257.598       74.019        0.083      342.524       17.992      863.999
04/08/2014  21:43:00     -139.399     -110.772        4.006      118.650       77.500       53.236    14077.913     6006.240     2834.120        2.731        1.146      178.052       55.580        0.097      342.498       17.948      863.990
04/08/2014  21:44:00     -249.145      -45.710        1.790      121.353       82.304       53.490    14726.482     6773.914     2861.149        4.426        1.218      253.303       61.225        0.058      342.488       17.930      864.007
04/08/2014  21:45:00     -220.557      -48.841       -9.914       97.041       88.305       54.530     9416.897     7797.803     2973.543        3.565        1.009      225.900       46.662        0.043      342.523       17.989      863.999
04/08/2014  21:46:00     -264.159      -33.029      -11.776      120.968       95.768       58.277    14633.150     9171.521     3396.186        4.910        1.360      266.216       59.846        0.051      342.532       18.005      863.991
04/08/2014  21:47:00     -232.239      -71.411      -10.589       96.055       80.301       43.356     9226.498     6448.327     1879.758        3.835        0.878      242.970       33.145        0.019      342.554       18.042      863.979
04/08/2014  21:48:00     -308.310      -29.266      -28.532      108.705       87.000       44.737    11816.751     7568.921     2001.385        5.905        1.069      309.696       46.143        0.022      342.567       18.064      863.971
04/08/2014  21:49:00     -360.446      -89.918      -22.777      128.991       96.376       58.622    16638.572     9288.285     3436.547        8.394        1.468      371.492       59.172        0.025      342.553       18.040      863.953
04/08/2014  21:50:00     -156.754      -73.081       -1.889       74.063       78.754       48.346     5485.330     6202.158     2337.293        2.197        0.701      172.953       29.397        0.029      342.500       17.949      863.929
04/08/2014  21:51:00     -233.644      -66.286       -4.727      126.232       92.956       47.797    15934.604     8640.864     2284.543        4.293        1.343      242.865       47.332        0.038      342.458       17.878      863.936
04/08/2014  21:52:00     -252.359      -55.432       -3.661      128.884       70.932       49.186    16611.034     5031.307     2419.226        4.541        1.203      258.375       48.578        0.035      342.458       17.878      863.961
04/08/2014  21:53:00     -122.629      -52.274       20.161       93.646       84.338       53.727     8769.528     7112.857     2886.611        1.847        0.938      133.306       58.445        0.192      342.430       17.832      863.952
04/08/2014  21:54:00      -91.003      -43.341       14.745      101.410       71.704       42.940    10283.939     5141.392     1843.832        1.382        0.863      100.797       49.817        0.244      342.436       17.845      863.941
04/08/2014  21:55:00     -172.950        7.192       -9.230       76.901       82.862       42.065     5913.702     6866.131     1769.503        2.230        0.727      173.099       41.163        0.057      342.488       17.931      863.932
04/08/2014  21:56:00     -120.489      -38.623        0.756       70.716       68.716       39.465     5000.722     4721.833     1557.486        1.364        0.564      126.528       33.770        0.071      342.469       17.899      863.942
04/08/2014  21:57:00     -176.070       -5.863      -15.938      107.388       56.854       46.229    11532.211     3232.338     2137.113        2.409        0.845      176.168       54.910        0.097      342.487       17.929      863.947
04/08/2014  21:58:00     -129.713      -36.135       -2.539       63.093       72.298       39.864     3980.692     5227.032     1589.132        1.447        0.540      134.652       35.608        0.070      342.454       17.875      863.950
04/08/2014  21:59:00      -81.692      -18.892       15.910      100.391       78.032       50.594    10078.395     6088.932     2559.741        1.300        0.936       83.848       54.009        0.415      342.401       17.784      863.944
04/08/2014  22:00:00     -128.937      -29.811       14.637      138.800       71.699       54.448    19265.401     5140.680     2964.569        2.254        1.369      132.339       65.903        0.248      342.474       17.906      863.947
04/08/2014  22:01:00     -224.584      -32.133       -8.058       85.615       78.807       49.864     7329.918     6210.532     2486.467        3.378        0.801      226.871       45.634        0.040      342.494       17.939      863.940
04/08/2014  22:02:00      -83.696      -32.038       -1.613       49.904       51.572       31.294     2490.442     2659.687      979.306        0.708        0.306       89.619       23.330        0.068      342.421       17.819      863.945
04/08/2014  22:03:00      -88.357      -43.294       -0.661       60.659       74.681       44.963     3679.479     5577.278     2021.692        1.048        0.564       98.394       42.995        0.191      342.438       17.847      863.936
04/08/2014  22:04:00     -168.533      -11.942       -6.296       78.848       62.105       38.666     6216.950     3857.087     1495.033        2.007        0.578      168.955       35.194        0.043      342.434       17.838      863.921
04/08/2014  22:05:00     -254.049      -56.365      -13.139       65.772       73.523       41.110     4325.979     5405.600     1690.009        3.965        0.571      260.227       33.908        0.017      342.434       17.835      863.915
04/08/2014  22:06:00     -169.932        3.575       -1.933       88.589       94.991       53.624     7848.062     9023.309     2875.517        2.432        0.987      169.969       52.641        0.096      342.417       17.811      863.898
04/08/2014  22:07:00     -164.600      -64.281       -1.171       61.430       60.702       39.489     3773.655     3684.753     1559.409        2.012        0.451      176.706       37.080        0.044      342.428       17.830      863.864
04/08/2014  22:08:00     -190.009        7.422       -7.912      113.872       91.463       47.145    12966.758     8365.391     2222.627        2.988        1.178      190.154       53.220        0.078      342.424       17.819      863.862
04/08/2014  22:09:00     -245.265      -47.122        3.691       88.011       68.105       47.892     7745.885     4638.282     2293.626        3.853        0.734      249.751       37.324        0.022      342.457       17.876      863.858
04/08/2014  22:10:00     -258.007      -41.609      -14.755       70.045       66.166       39.155     4906.339     4377.938     1533.076        3.966        0.541      261.340       37.639        0.021      342.490       17.931      863.870
04/08/2014  22:11:00     -204.622      -58.674        5.438      137.964       87.779       60.893    19033.945     7705.239     3707.943        3.789        1.522      212.868       69.075        0.105      342.394       17.770      863.882
04/08/2014  22:12:00     -267.542      -64.481       -5.120       87.671       76.165       49.109     7686.216     5801.057     2411.652        4.583        0.795      275.203       39.303        0.020      342.441       17.849      863.900
04/08/2014  22:13:00     -119.864      -73.557       12.046       92.078       69.745       44.766     8478.422     4864.407     2003.971        1.763        0.767      140.634       46.364        0.109      342.378       17.744      863.903
04/08/2014  22:14:00     -265.778      -45.560      -12.898       80.730       88.124       42.518     6517.294     7765.807     1807.755        4.448        0.805      269.655       28.054        0.011      342.446       17.857      863.905
04/08/2014  22:15:00     -171.336      -43.173       -6.141       89.462       86.745       40.242     8003.515     7524.739     1619.391        2.420        0.857      176.692       44.464        0.063      342.403       17.786      863.901
04/08/2014  22:16:00     -192.488      -60.912       -5.095       83.703       92.473       40.866     7006.245     8551.208     1670.020        2.900        0.861      201.896       49.191        0.059      342.415       17.807      863.896
04/08/2014  22:17:00      -86.984      -89.453       -2.341       97.041       86.332       48.161     9416.933     7453.217     2319.521        1.738        0.959      124.773       40.905        0.107      342.394       17.772      863.882
04/08/2014  22:18:00      -83.234      -27.350        9.188       99.976       68.539       50.818     9995.260     4697.605     2582.483        1.251        0.864       87.612       57.629        0.433      342.355       17.706      863.857
04/08/2014  22:19:00     -177.404      -64.722        6.407       77.527       66.167       41.769     6010.497     4378.125     1744.608        2.392        0.607      188.841       36.513        0.037      342.434       17.838      863.860
04/08/2014  22:20:00     -207.514      -24.356      -15.284       42.444       47.543       28.626     1801.529     2260.322      819.436        2.438        0.244      208.938       16.439        0.006      342.440       17.848      863.846
04/08/2014  22:21:00     -197.129      -64.311       -8.929       54.032       62.977       35.026     2919.441     3966.087     1226.849        2.559        0.406      207.354       29.262        0.020      342.399       17.779      863.840
04/08/2014  22:22:00     -207.008      -40.605       -3.501       77.390       68.572       32.612     5989.223     4702.109     1063.536        2.813        0.588      210.953       38.503        0.033      342.358       17.710      863.837
04/08/2014  22:23:00     -166.539      -67.362       -8.811       88.905       58.921       31.407     7904.084     3471.639      986.425        2.235        0.618      179.646       30.350        0.029      342.371       17.733      863.849
04/08/2014  22:24:00     -165.388      -36.730        2.867       91.527       66.086       39.700     8377.187     4367.366     1576.097        2.151        0.716      169.418       39.228        0.054      342.382       17.750      863.853
04/08/2014  22:25:00     -149.309      -95.811        3.460       70.970       54.260       35.757     5036.729     2944.151     1278.539        2.037        0.463      177.406       34.799        0.038      342.393       17.770      863.866
04/08/2014  22:26:00     -184.269      -97.327        0.762       55.436       48.089       36.692     3073.176     2312.549     1346.339        2.508        0.337      208.393       33.172        0.025      342.375       17.738      863.872
04/08/2014  22:27:00     -116.381      -56.387        7.267       53.609       68.047       34.947     2873.900     4630.402     1221.312        1.275        0.436      129.321       31.130        0.058      342.368       17.728      863.871
04/08/2014  22:28:00     -158.085     -105.287       -2.969       85.047       43.102       31.609     7233.049     1857.794      999.106        2.309        0.504      189.938       28.801        0.023      342.430       17.831      863.875
04/08/2014  22:29:00      -52.345      -53.569       16.225       71.672       55.964       38.174     5136.873     3131.982     1457.273        0.780        0.486       74.897       47.742        0.406      342.354       17.706      863.871
04/08/2014  22:30:00      -79.278      -84.838       -2.579       53.803       37.444       27.907     2894.816     1402.023      778.825        0.928        0.254      116.114       25.671        0.049      342.465       17.894      863.861
04/08/2014  22:31:00      -62.006      -26.350       -1.667       54.355       34.934       20.452     2954.486     1220.385      418.299        0.457        0.230       67.373       21.445        0.101      342.415       17.809      863.840
04/08/2014  22:32:00      -83.169      -91.794        8.061       72.615       69.955       28.734     5272.957     4893.763      825.621        1.320        0.550      123.868       33.850        0.075      342.422       17.817      863.822
04/08/2014  22:33:00      -88.689     -125.578      -11.981       40.553       66.978       25.793     1644.553     4486.023      665.278        1.529        0.340      153.739       11.547        0.006      342.460       17.885      863.808
04/08/2014  22:34:00      -51.824      -22.738        5.124       34.373       40.599       25.504     1181.504     1648.305      650.431        0.335        0.174       56.593       27.036        0.228      342.373       17.739      863.803
04/08/2014  22:35:00      -69.460      -15.063       -6.301       28.137       17.643       21.390      791.717      311.291      457.524        0.333        0.078       71.075       13.883        0.038      342.359       17.713      863.794
04/08/2014  22:36:00      -25.389      -23.470      -16.865       34.941       24.993       21.351     1220.865      624.667      455.853        0.189        0.115       34.575       16.297        0.222      342.090       17.256      863.784
04/08/2014  22:37:00      -57.763      -36.094       -6.933       39.840       36.030       15.096     1587.200     1298.195      227.901        0.390        0.156       68.112        9.569        0.020      342.246       17.520      863.775
04/08/2014  22:38:00      -85.653      -59.831       -6.941       54.984       48.976       27.199     3023.233     2398.623      739.806        0.856        0.308      104.480       32.222        0.095      342.339       17.678      863.782
04/08/2014  22:39:00      -16.668      -83.961       12.178       28.807       33.646       18.294      829.857     1132.067      334.668        0.489        0.115       85.600       14.187        0.027      342.322       17.649      863.783
04/08/2014  22:40:00      -67.138      -66.111       -0.042       46.566       36.057       19.338     2168.385     1300.116      373.960        0.636        0.192       94.224       23.242        0.061      342.298       17.610      863.786
04/08/2014  22:41:00      -95.518      -80.884       -5.398       52.387       41.040       25.134     2744.386     1684.267      631.730        1.038        0.253      125.164       22.713        0.033      342.297       17.608      863.789
04/08/2014  22:42:00      -60.697      -72.234       -0.121       61.356       55.916       35.820     3764.596     3126.615     1283.103        0.854        0.409       94.350       35.254        0.140      342.295       17.603      863.774
04/08/2014  22:43:00      -19.487      -86.121       19.609       30.500       79.881       23.217      930.268     6381.032      539.051        0.801        0.393       88.298        9.625        0.012      342.300       17.613      863.748
04/08/2014  22:44:00      -67.846      -32.283       -9.873       62.405       26.582       23.492     3894.439      706.629      551.863        0.545        0.258       75.135       21.708        0.083      342.216       17.470      863.726
04/08/2014  22:45:00     -118.958      -72.853       -6.106       62.219       46.945       30.951     3871.258     2203.818      957.944        1.326        0.352      139.494       24.564        0.031      342.238       17.505      863.711
04/08/2014  22:46:00     -117.638      -98.718        2.357       59.288       66.791       34.700     3515.114     4461.091     1204.060        1.638        0.459      153.571       38.546        0.063      342.255       17.534      863.705
04/08/2014  22:47:00     -159.749      -96.579       -4.069       60.678       42.999       33.627     3681.763     1848.936     1130.772        2.076        0.333      186.674       32.511        0.030      342.235       17.501      863.710
04/08/2014  22:48:00     -154.206      -91.376      -10.290       43.588       53.879       26.051     1899.953     2902.925      678.651        1.886        0.274      179.246       20.297        0.013      342.188       17.423      863.716
04/08/2014  22:49:00     -113.844      -69.484        3.510       62.378       40.386       29.168     3891.037     1631.068      850.788        1.209        0.319      133.373       27.152        0.041      342.113       17.296      863.726
04/08/2014  22:50:00     -132.736     -110.469       -4.943       56.649       44.693       31.262     3209.105     1997.444      977.328        1.801        0.309      172.691       22.188        0.017      342.128       17.320      863.745
04/08/2014  22:51:00     -170.875     -118.178       -5.364       76.841       56.704       35.850     5904.504     3215.393     1285.189        2.680        0.520      207.760       33.231        0.026      342.119       17.302      863.755
04/08/2014  22:52:00     -115.330     -148.777        2.008       55.786       53.121       34.753     3112.081     2821.795     1207.763        2.129        0.357      188.243       18.475        0.010      342.109       17.286      863.756
04/08/2014  22:53:00      -67.165     -137.927        0.964       43.351       60.236       30.495     1879.274     3628.428      929.915        1.499        0.322      153.411       29.684        0.037      342.195       17.435      863.728
04/08/2014  22:54:00     -122.182      -69.864       -8.496       60.924       45.091       31.545     3711.716     2033.214      995.062        1.331        0.337      140.746       32.166        0.052      342.163       17.380      863.706
04/08/2014  22:55:00     -111.182      -78.352        0.926       49.589       47.137       26.326     2459.048     2221.860      693.035        1.194        0.269      136.016       26.057        0.037      342.031       17.156      863.705
04/08/2014  22:56:00     -131.562      -41.400       -5.535       37.626       49.374       24.099     1415.717     2437.818      580.771        1.174        0.222      137.922       16.005        0.013      342.008       17.116      863.692
04/08/2014  22:57:00     -121.261      -34.581       -4.346       46.291       32.587       29.454     2142.839     1061.884      867.529        0.999        0.204      126.095       26.513        0.044      342.033       17.159      863.697
04/08/2014  22:58:00     -131.231      -48.526        0.454       48.099       32.595       23.574     2313.535     1062.444      555.724        1.175        0.197      139.915       23.737        0.029      342.062       17.209      863.684
04/08/2014  22:59:00     -155.114      -91.138       -0.939       37.709       35.723       26.050     1421.940     1276.129      678.616        1.787        0.169      179.907       18.159        0.010      342.075       17.231      863.681
04/08/2014  23:00:00     -133.725      -23.249       -8.041       45.532       60.845       25.400     2073.181     3702.081      645.171        1.245        0.321      135.731       25.404        0.035      342.088       17.252      863.671
04/08/2014  23:01:00      -47.534      -44.216        0.230       39.556       31.097       20.184     1564.672      967.032      407.383        0.358        0.147       64.920       17.529        0.073      342.067       17.218      863.666
04/08/2014  23:02:00      -54.443      -41.106        5.056       38.883       41.107       19.821     1511.857     1689.781      392.868        0.414        0.180       68.219       18.821        0.076      342.011       17.122      863.676
04/08/2014  23:03:00      -52.461      -20.647        5.063       38.648       45.302       17.514     1493.648     2052.237      306.752        0.353        0.193       56.378       16.173        0.082      342.038       17.169      863.674
04/08/2014  23:04:00      -34.717       -7.248       -1.340       19.481       18.674       12.678      379.516      348.722      160.720        0.107        0.044       35.465        6.579        0.034      342.091       17.258      863.683
04/08/2014  23:05:00        2.574      -12.214       -4.708       15.774       28.142       21.656      248.826      791.967      468.969        0.084        0.075       12.482       20.253        2.633      341.782       16.735      863.689
04/08/2014  23:06:00       51.577      -32.988        8.678       42.543       30.296       34.633     1809.889      917.854     1199.465        0.387        0.196       61.224       19.195        0.098      341.211       15.767      863.716
04/08/2014  23:07:00        9.137      -16.569      -15.958       33.265       41.208       23.790     1106.546     1698.065      565.969        0.199        0.169       18.921       16.755        0.784      341.477       16.217      863.752
04/08/2014  23:08:00       41.937      -10.474      -20.657       32.093       44.773       18.962     1029.951     2004.601      359.559        0.284        0.170       43.225        9.109        0.044      341.325       15.959      863.783
04/08/2014  23:09:00       51.766      -47.880       -7.414       43.216       47.876       36.991     1867.628     2292.133     1368.311        0.528        0.276       70.514       29.439        0.174      341.218       15.779      863.784
04/08/2014  23:10:00       48.915      -13.513       10.034       61.249       36.042       35.656     3751.437     1298.996     1271.385        0.450        0.316       50.747       36.856        0.527      341.307       15.930      863.801
04/08/2014  23:11:00       11.925       15.925       23.105       31.251       25.029       26.292      976.650      626.427      691.265        0.161        0.115       19.895       24.075        1.464      341.172       15.700      863.799
04/08/2014  23:12:00       10.069      -10.190       11.478       26.008       35.244       25.816      676.421     1242.138      666.451        0.146        0.129       14.325       24.793        2.995      341.049       15.492      863.798
04/08/2014  23:13:00       29.551       -2.821       12.763       28.229       23.851       25.110      796.881      568.888      630.525        0.152        0.100       29.685       19.177        0.417      341.150       15.664      863.810
04/08/2014  23:14:00       -2.526       25.444       11.686       15.326       20.389       17.636      234.892      415.705      311.012        0.088        0.048       25.569        9.619        0.142      341.111       15.597      863.811
04/08/2014  23:15:00        6.400       16.081       -9.606       11.874       20.960       10.273      140.992      439.302      105.529        0.054        0.034       17.308        6.642        0.147      341.195       15.741      863.809
04/08/2014  23:16:00       11.547       22.360        3.443       19.477       26.007       13.979      379.336      676.378      195.401        0.095        0.063       25.166        5.992        0.057      341.370       16.035      863.798
04/08/2014  23:17:00       17.806       16.388       36.706       34.781       43.603       29.619     1209.729     1901.178      877.268        0.296        0.199       24.199       25.771        1.134      341.108       15.592      863.786
04/08/2014  23:18:00       54.015      -56.514        4.743       44.787       64.961       48.573     2005.914     4219.868     2359.367        0.736        0.429       78.176       37.592        0.231      341.396       16.079      863.803
04/08/2014  23:19:00       77.327      -98.283       -8.332       57.578       61.792       37.363     3315.170     3818.213     1395.974        1.212        0.426      125.056       40.410        0.104      341.600       16.427      863.829
04/08/2014  23:20:00       28.675      -66.603       -4.067       56.945       58.389       54.238     3242.720     3409.271     2941.712        0.743        0.480       72.514       49.454        0.465      341.455       16.178      863.840
04/08/2014  23:21:00        8.565      -91.693       -1.434       47.514       77.841       45.565     2257.547     6059.244     2076.205        0.944        0.520       92.092       34.841        0.143      341.564       16.364      863.830
04/08/2014  23:22:00      -15.373      -79.859      -15.205       33.826       49.320       24.902     1144.211     2432.476      620.112        0.552        0.210       81.325       18.712        0.053      341.652       16.513      863.864
04/08/2014  23:23:00      -20.927      -16.117      -16.043       27.585       35.589       22.719      760.910     1266.605      516.174        0.175        0.127       26.414       12.769        0.234      341.621       16.461      863.886
04/08/2014  23:24:00      -17.388      -21.342       -4.268       24.826       23.270       13.651      616.326      541.487      186.337        0.106        0.067       27.529        8.550        0.096      341.649       16.507      863.896
04/08/2014  23:25:00        4.886        0.063       -2.318       38.008       33.913       23.650     1444.571     1150.091      559.307        0.159        0.158        4.887       16.153       10.927      341.538       16.320      863.896
04/08/2014  23:26:00       13.847      -25.094       17.753       40.120       58.005       32.714     1609.617     3364.630     1070.177        0.359        0.302       28.661       30.756        1.152      341.248       15.829      863.865
04/08/2014  23:27:00      -26.161      -12.516        2.065       33.319       42.364       24.729     1110.160     1794.694      611.530        0.218        0.176       29.001       21.080        0.528      341.626       16.470      863.881
04/08/2014  23:28:00      -36.985      -16.824        7.595       25.977       33.051       17.712      674.782     1092.365      313.712        0.189        0.104       40.632       14.817        0.133      341.633       16.482      863.870
04/08/2014  23:29:00      -57.815      -86.874       -0.349       29.043       56.987       17.313      843.471     3247.552      299.755        0.764        0.220      104.354       19.906        0.036      341.728       16.642      863.849
04/08/2014  23:30:00      -33.032      -74.460       11.218       35.064       46.009       19.320     1229.501     2116.812      373.273        0.524        0.186       81.457       22.317        0.075      341.705       16.602      863.839
04/08/2014  23:31:00      -35.509      -64.039        6.571       40.793       47.948       20.111     1664.061     2299.013      404.472        0.489        0.218       73.225       24.672        0.114      341.705       16.604      863.813
04/08/2014  23:32:00       34.863       37.893       28.930       32.988       35.220       24.973     1088.212     1240.446      623.670        0.322        0.148       51.491       19.222        0.139      341.167       15.691      863.768
04/08/2014  23:33:00       28.478       14.035       10.520       43.521       32.614       36.107     1894.050     1063.657     1303.740        0.269        0.213       31.749       23.496        0.548      340.929       15.289      863.746
04/08/2014  23:34:00        5.137       18.284       33.994       20.199       18.208       16.799      407.993      331.544      282.215        0.127        0.051       18.992       10.326        0.296      340.916       15.266      863.747
04/08/2014  23:35:00      -14.604      -41.207        5.531       23.056       22.483       24.625      531.575      505.495      606.392        0.179        0.082       43.718       11.953        0.075      341.508       16.271      863.756
04/08/2014  23:36:00      -45.552      -26.311       -6.039       23.217       13.528       13.619      539.013      183.003      185.483        0.186        0.045       52.605        8.689        0.027      341.492       16.242      863.769
04/08/2014  23:37:00      -24.011      -53.849       -0.559       44.346       34.016       19.397     1966.569     1157.112      376.231        0.349        0.175       58.960       18.818        0.102      341.625       16.468      863.772
04/08/2014  23:38:00       29.202      -10.831       15.555       46.057       42.615       24.774     2121.258     1816.004      613.760        0.288        0.228       31.146       20.716        0.442      341.063       15.515      863.765
04/08/2014  23:39:00       30.126        4.913       26.875       44.812       30.161       23.908     2008.104      909.715      571.583        0.257        0.174       30.524       23.100        0.573      340.968       15.355      863.751
04/08/2014  23:40:00       -6.730       -6.046       18.493       15.873       27.870       17.574      251.949      776.755      308.840        0.088        0.067        9.047       15.929        3.100      341.068       15.525      863.743
04/08/2014  23:41:00      -17.243        9.279        1.412       16.478       12.085       10.960      271.531      146.036      120.118        0.046        0.027       19.581        5.149        0.069      341.189       15.730      863.745
04/08/2014  23:42:00      -13.412       45.384       -1.503       17.717       28.647        8.401      313.896      820.639       70.583        0.172        0.060       47.324       10.711        0.051      341.345       15.993      863.741
04/08/2014  23:43:00       20.111       37.098       -2.551       23.305       13.396        8.025      543.105      179.463       64.398        0.129        0.039       42.199        8.937        0.045      341.413       16.109      863.740
04/08/2014  23:44:00       27.840       20.659        6.529       22.386       13.036        9.091      501.154      169.925       82.642        0.100        0.038       34.668        8.470        0.060      341.105       15.587      863.769
04/08/2014  23:45:00       58.221       26.340       17.093       19.091       25.441       20.605      364.451      647.240      424.564        0.291        0.072       63.902       16.133        0.064      340.939       15.306      863.792
04/08/2014  23:46:00       50.643       78.776       -2.091       20.132       21.095       27.871      405.308      445.013      776.775        0.520        0.081       93.650       19.387        0.043      341.151       15.662      863.802
04/08/2014  23:47:00       39.417       86.152       -4.290       27.737       37.224       26.997      769.349     1385.644      728.853        0.594        0.144       94.741       24.066        0.065      340.933       15.295      863.811
04/08/2014  23:48:00       29.385       31.299        4.830       28.946       35.025       23.852      837.856     1226.732      568.911        0.225        0.132       42.932       18.841        0.193      340.953       15.330      863.816
04/08/2014  23:49:00       52.481       14.068       15.672       37.565       39.180       28.432     1411.161     1535.080      808.381        0.348        0.188       54.334       21.288        0.153      340.860       15.171      863.820
04/08/2014  23:50:00       85.598       61.670       27.359       38.909       27.213       30.160     1513.904      740.523      909.624        0.752        0.158      105.499       14.020        0.018      340.714       14.926      863.809
04/08/2014  23:51:00      110.137       73.353       31.040       32.866       22.996       27.605     1080.184      528.834      762.052        1.042        0.119      132.328       19.047        0.021      341.051       15.497      863.808
04/08/2014  23:52:00      137.030       91.360       34.560       26.120       30.468       25.252      682.239      928.288      637.644        1.528        0.112      164.693       16.473        0.010      341.190       15.732      863.823
04/08/2014  23:53:00       47.035       41.528        4.320       49.268       21.975       20.322     2427.385      482.903      412.983        0.364        0.166       62.745       11.161        0.032      341.075       15.536      863.841
04/08/2014  23:54:00       70.093       56.593       29.539       32.167       33.925       30.118     1034.742     1150.913      907.120        0.604        0.155       90.088       15.140        0.028      340.936       15.299      863.846
04/08/2014  23:55:00       94.360       65.108       27.752       26.932       22.981       20.917      725.319      528.148      437.540        0.780        0.085      114.642       14.885        0.017      341.046       15.486      863.843
04/08/2014  23:56:00       35.285       40.357       11.479       33.629       29.331       27.893     1130.906      860.324      778.031        0.289        0.138       53.607       23.093        0.186      340.983       15.381      863.832
04/08/2014  23:57:00       20.184       93.742       -6.934       22.462       33.228       19.945      504.563     1104.072      397.784        0.562        0.100       95.890       20.371        0.045      341.080       15.545      863.826
04/08/2014  23:58:00        5.570      144.178      -23.525       17.805       22.479        9.364      317.005      505.288       87.687        1.114        0.045      144.286        8.700        0.004      341.131       15.630      863.822
04/08/2014  23:59:00       24.093       97.767       -8.265       22.633       39.691       22.081      512.249     1575.349      487.556        0.639        0.129      100.692       23.029        0.052      341.134       15.635      863.819
